<?xml version="1.0" encoding="UTF-8" standalone="no" ?>
<gpx xmlns="http://www.topografix.com/GPX/1/1" xmlns:xsi="http://www.w3.org/2001/XMLSchema-instance" xsi:schemaLocation="http://www.topografix.com/GPX/1/1 http://www.topografix.com/GPX/1/1/gpx.xsd" version="1.1" creator="VisuGPX - https://www.visugpx.com">
  <metadata>
    <name>Sortie Givors - Col de Chassenoud 25km - 090411</name>
    <desc><![CDATA[Du très bon et du très moyen...]]></desc>
  </metadata>
  <trk>
    <name><![CDATA[TracÃ© actuel: 09 AVR 2011 08:16]]></name>
    <trkseg>
      <trkpt lat="45.58352" lon="4.75502">
        <ele>159</ele>
        <time>2011-04-09T06:16:50Z</time>
      </trkpt>
      <trkpt lat="45.58352" lon="4.75501">
        <ele>158</ele>
        <time>2011-04-09T06:17:06Z</time>
      </trkpt>
      <trkpt lat="45.58352" lon="4.75501">
        <ele>161</ele>
        <time>2011-04-09T06:17:08Z</time>
      </trkpt>
      <trkpt lat="45.58352" lon="4.755">
        <ele>159</ele>
        <time>2011-04-09T06:17:12Z</time>
      </trkpt>
      <trkpt lat="45.5835" lon="4.75499">
        <ele>160</ele>
        <time>2011-04-09T06:17:13Z</time>
      </trkpt>
      <trkpt lat="45.58347" lon="4.75497">
        <ele>160</ele>
        <time>2011-04-09T06:17:15Z</time>
      </trkpt>
      <trkpt lat="45.58345" lon="4.75497">
        <ele>160</ele>
        <time>2011-04-09T06:17:16Z</time>
      </trkpt>
      <trkpt lat="45.58344" lon="4.75498">
        <ele>160</ele>
        <time>2011-04-09T06:17:17Z</time>
      </trkpt>
      <trkpt lat="45.58342" lon="4.755">
        <ele>160</ele>
        <time>2011-04-09T06:17:18Z</time>
      </trkpt>
      <trkpt lat="45.58339" lon="4.75502">
        <ele>160</ele>
        <time>2011-04-09T06:17:19Z</time>
      </trkpt>
      <trkpt lat="45.58337" lon="4.75504">
        <ele>160</ele>
        <time>2011-04-09T06:17:20Z</time>
      </trkpt>
      <trkpt lat="45.58335" lon="4.75507">
        <ele>160</ele>
        <time>2011-04-09T06:17:21Z</time>
      </trkpt>
      <trkpt lat="45.58317" lon="4.75534">
        <ele>161</ele>
        <time>2011-04-09T06:17:31Z</time>
      </trkpt>
      <trkpt lat="45.58299" lon="4.75556">
        <ele>161</ele>
        <time>2011-04-09T06:17:40Z</time>
      </trkpt>
      <trkpt lat="45.58284" lon="4.75567">
        <ele>163</ele>
        <time>2011-04-09T06:17:48Z</time>
      </trkpt>
      <trkpt lat="45.58277" lon="4.75569">
        <ele>165</ele>
        <time>2011-04-09T06:17:53Z</time>
      </trkpt>
      <trkpt lat="45.58261" lon="4.75568">
        <ele>165</ele>
        <time>2011-04-09T06:18:03Z</time>
      </trkpt>
      <trkpt lat="45.58247" lon="4.75567">
        <ele>167</ele>
        <time>2011-04-09T06:18:11Z</time>
      </trkpt>
      <trkpt lat="45.58234" lon="4.75575">
        <ele>169</ele>
        <time>2011-04-09T06:18:20Z</time>
      </trkpt>
      <trkpt lat="45.58217" lon="4.75583">
        <ele>169</ele>
        <time>2011-04-09T06:18:29Z</time>
      </trkpt>
      <trkpt lat="45.58192" lon="4.75596">
        <ele>167</ele>
        <time>2011-04-09T06:18:36Z</time>
      </trkpt>
      <trkpt lat="45.58177" lon="4.75614">
        <ele>166</ele>
        <time>2011-04-09T06:18:42Z</time>
      </trkpt>
      <trkpt lat="45.58157" lon="4.75632">
        <ele>166</ele>
        <time>2011-04-09T06:18:50Z</time>
      </trkpt>
      <trkpt lat="45.58131" lon="4.75643">
        <ele>166</ele>
        <time>2011-04-09T06:18:58Z</time>
      </trkpt>
      <trkpt lat="45.58097" lon="4.75647">
        <ele>167</ele>
        <time>2011-04-09T06:19:08Z</time>
      </trkpt>
      <trkpt lat="45.5807" lon="4.75639">
        <ele>168</ele>
        <time>2011-04-09T06:19:16Z</time>
      </trkpt>
      <trkpt lat="45.58037" lon="4.75629">
        <ele>168</ele>
        <time>2011-04-09T06:19:26Z</time>
      </trkpt>
      <trkpt lat="45.58006" lon="4.75628">
        <ele>169</ele>
        <time>2011-04-09T06:19:35Z</time>
      </trkpt>
      <trkpt lat="45.57974" lon="4.75639">
        <ele>169</ele>
        <time>2011-04-09T06:19:45Z</time>
      </trkpt>
      <trkpt lat="45.57945" lon="4.75651">
        <ele>171</ele>
        <time>2011-04-09T06:19:54Z</time>
      </trkpt>
      <trkpt lat="45.57928" lon="4.75644">
        <ele>172</ele>
        <time>2011-04-09T06:20:00Z</time>
      </trkpt>
      <trkpt lat="45.57912" lon="4.75653">
        <ele>172</ele>
        <time>2011-04-09T06:20:07Z</time>
      </trkpt>
      <trkpt lat="45.57896" lon="4.75676">
        <ele>173</ele>
        <time>2011-04-09T06:20:14Z</time>
      </trkpt>
      <trkpt lat="45.57872" lon="4.75702">
        <ele>173</ele>
        <time>2011-04-09T06:20:24Z</time>
      </trkpt>
      <trkpt lat="45.57853" lon="4.75708">
        <ele>174</ele>
        <time>2011-04-09T06:20:31Z</time>
      </trkpt>
      <trkpt lat="45.57837" lon="4.75703">
        <ele>175</ele>
        <time>2011-04-09T06:20:38Z</time>
      </trkpt>
      <trkpt lat="45.57826" lon="4.75706">
        <ele>175</ele>
        <time>2011-04-09T06:20:44Z</time>
      </trkpt>
      <trkpt lat="45.57824" lon="4.75707">
        <ele>175</ele>
        <time>2011-04-09T06:20:45Z</time>
      </trkpt>
      <trkpt lat="45.57814" lon="4.75704">
        <ele>177</ele>
        <time>2011-04-09T06:20:51Z</time>
      </trkpt>
      <trkpt lat="45.57798" lon="4.75703">
        <ele>177</ele>
        <time>2011-04-09T06:21:00Z</time>
      </trkpt>
      <trkpt lat="45.57786" lon="4.75711">
        <ele>178</ele>
        <time>2011-04-09T06:21:09Z</time>
      </trkpt>
      <trkpt lat="45.57783" lon="4.75718">
        <ele>179</ele>
        <time>2011-04-09T06:21:17Z</time>
      </trkpt>
      <trkpt lat="45.57783" lon="4.75718">
        <ele>178</ele>
        <time>2011-04-09T06:21:28Z</time>
      </trkpt>
      <trkpt lat="45.57783" lon="4.75714">
        <ele>178</ele>
        <time>2011-04-09T06:21:32Z</time>
      </trkpt>
      <trkpt lat="45.57784" lon="4.75712">
        <ele>178</ele>
        <time>2011-04-09T06:21:33Z</time>
      </trkpt>
      <trkpt lat="45.57785" lon="4.7571">
        <ele>178</ele>
        <time>2011-04-09T06:21:34Z</time>
      </trkpt>
      <trkpt lat="45.57786" lon="4.75708">
        <ele>177</ele>
        <time>2011-04-09T06:21:35Z</time>
      </trkpt>
      <trkpt lat="45.57785" lon="4.75704">
        <ele>177</ele>
        <time>2011-04-09T06:21:39Z</time>
      </trkpt>
      <trkpt lat="45.57784" lon="4.75704">
        <ele>176</ele>
        <time>2011-04-09T06:21:47Z</time>
      </trkpt>
      <trkpt lat="45.57782" lon="4.75705">
        <ele>176</ele>
        <time>2011-04-09T06:21:55Z</time>
      </trkpt>
      <trkpt lat="45.57776" lon="4.7571">
        <ele>177</ele>
        <time>2011-04-09T06:22:02Z</time>
      </trkpt>
      <trkpt lat="45.57768" lon="4.75712">
        <ele>179</ele>
        <time>2011-04-09T06:22:12Z</time>
      </trkpt>
      <trkpt lat="45.57764" lon="4.75713">
        <ele>180</ele>
        <time>2011-04-09T06:22:21Z</time>
      </trkpt>
      <trkpt lat="45.57761" lon="4.75719">
        <ele>181</ele>
        <time>2011-04-09T06:22:28Z</time>
      </trkpt>
      <trkpt lat="45.57751" lon="4.75738">
        <ele>183</ele>
        <time>2011-04-09T06:22:38Z</time>
      </trkpt>
      <trkpt lat="45.57739" lon="4.7575">
        <ele>184</ele>
        <time>2011-04-09T06:22:48Z</time>
      </trkpt>
      <trkpt lat="45.57731" lon="4.75758">
        <ele>186</ele>
        <time>2011-04-09T06:22:55Z</time>
      </trkpt>
      <trkpt lat="45.57716" lon="4.75771">
        <ele>187</ele>
        <time>2011-04-09T06:23:06Z</time>
      </trkpt>
      <trkpt lat="45.57703" lon="4.75775">
        <ele>189</ele>
        <time>2011-04-09T06:23:14Z</time>
      </trkpt>
      <trkpt lat="45.57687" lon="4.75775">
        <ele>190</ele>
        <time>2011-04-09T06:23:23Z</time>
      </trkpt>
      <trkpt lat="45.57672" lon="4.7578">
        <ele>190</ele>
        <time>2011-04-09T06:23:31Z</time>
      </trkpt>
      <trkpt lat="45.57656" lon="4.75786">
        <ele>190</ele>
        <time>2011-04-09T06:23:38Z</time>
      </trkpt>
      <trkpt lat="45.57643" lon="4.75791">
        <ele>190</ele>
        <time>2011-04-09T06:23:44Z</time>
      </trkpt>
      <trkpt lat="45.57627" lon="4.75789">
        <ele>192</ele>
        <time>2011-04-09T06:23:51Z</time>
      </trkpt>
      <trkpt lat="45.57612" lon="4.75781">
        <ele>193</ele>
        <time>2011-04-09T06:23:58Z</time>
      </trkpt>
      <trkpt lat="45.57594" lon="4.75778">
        <ele>194</ele>
        <time>2011-04-09T06:24:06Z</time>
      </trkpt>
      <trkpt lat="45.5758" lon="4.75783">
        <ele>196</ele>
        <time>2011-04-09T06:24:13Z</time>
      </trkpt>
      <trkpt lat="45.57568" lon="4.7578">
        <ele>198</ele>
        <time>2011-04-09T06:24:21Z</time>
      </trkpt>
      <trkpt lat="45.57557" lon="4.75776">
        <ele>200</ele>
        <time>2011-04-09T06:24:29Z</time>
      </trkpt>
      <trkpt lat="45.57541" lon="4.75774">
        <ele>202</ele>
        <time>2011-04-09T06:24:37Z</time>
      </trkpt>
      <trkpt lat="45.57532" lon="4.75766">
        <ele>202</ele>
        <time>2011-04-09T06:24:43Z</time>
      </trkpt>
      <trkpt lat="45.57527" lon="4.75762">
        <ele>203</ele>
        <time>2011-04-09T06:24:48Z</time>
      </trkpt>
      <trkpt lat="45.57525" lon="4.7576">
        <ele>203</ele>
        <time>2011-04-09T06:24:49Z</time>
      </trkpt>
      <trkpt lat="45.57524" lon="4.75759">
        <ele>204</ele>
        <time>2011-04-09T06:24:50Z</time>
      </trkpt>
      <trkpt lat="45.57523" lon="4.75757">
        <ele>204</ele>
        <time>2011-04-09T06:24:51Z</time>
      </trkpt>
      <trkpt lat="45.57521" lon="4.75756">
        <ele>204</ele>
        <time>2011-04-09T06:24:52Z</time>
      </trkpt>
      <trkpt lat="45.5752" lon="4.75755">
        <ele>204</ele>
        <time>2011-04-09T06:24:53Z</time>
      </trkpt>
      <trkpt lat="45.57519" lon="4.75753">
        <ele>204</ele>
        <time>2011-04-09T06:24:54Z</time>
      </trkpt>
      <trkpt lat="45.57517" lon="4.75752">
        <ele>205</ele>
        <time>2011-04-09T06:24:55Z</time>
      </trkpt>
      <trkpt lat="45.57516" lon="4.75751">
        <ele>205</ele>
        <time>2011-04-09T06:24:56Z</time>
      </trkpt>
      <trkpt lat="45.57511" lon="4.75746">
        <ele>206</ele>
        <time>2011-04-09T06:25:01Z</time>
      </trkpt>
      <trkpt lat="45.57499" lon="4.75747">
        <ele>207</ele>
        <time>2011-04-09T06:25:09Z</time>
      </trkpt>
      <trkpt lat="45.57497" lon="4.75746">
        <ele>207</ele>
        <time>2011-04-09T06:25:10Z</time>
      </trkpt>
      <trkpt lat="45.57496" lon="4.75746">
        <ele>207</ele>
        <time>2011-04-09T06:25:11Z</time>
      </trkpt>
      <trkpt lat="45.57486" lon="4.75744">
        <ele>209</ele>
        <time>2011-04-09T06:25:18Z</time>
      </trkpt>
      <trkpt lat="45.57478" lon="4.75737">
        <ele>210</ele>
        <time>2011-04-09T06:25:25Z</time>
      </trkpt>
      <trkpt lat="45.57477" lon="4.75736">
        <ele>211</ele>
        <time>2011-04-09T06:25:26Z</time>
      </trkpt>
      <trkpt lat="45.57475" lon="4.75735">
        <ele>211</ele>
        <time>2011-04-09T06:25:27Z</time>
      </trkpt>
      <trkpt lat="45.57469" lon="4.75728">
        <ele>212</ele>
        <time>2011-04-09T06:25:32Z</time>
      </trkpt>
      <trkpt lat="45.57459" lon="4.75723">
        <ele>214</ele>
        <time>2011-04-09T06:25:40Z</time>
      </trkpt>
      <trkpt lat="45.57448" lon="4.75715">
        <ele>214</ele>
        <time>2011-04-09T06:25:49Z</time>
      </trkpt>
      <trkpt lat="45.57436" lon="4.75709">
        <ele>215</ele>
        <time>2011-04-09T06:25:57Z</time>
      </trkpt>
      <trkpt lat="45.57433" lon="4.75709">
        <ele>215</ele>
        <time>2011-04-09T06:25:59Z</time>
      </trkpt>
      <trkpt lat="45.57431" lon="4.75709">
        <ele>215</ele>
        <time>2011-04-09T06:26:00Z</time>
      </trkpt>
      <trkpt lat="45.57417" lon="4.75709">
        <ele>216</ele>
        <time>2011-04-09T06:26:08Z</time>
      </trkpt>
      <trkpt lat="45.5741" lon="4.75701">
        <ele>217</ele>
        <time>2011-04-09T06:26:15Z</time>
      </trkpt>
      <trkpt lat="45.5741" lon="4.757">
        <ele>217</ele>
        <time>2011-04-09T06:26:16Z</time>
      </trkpt>
      <trkpt lat="45.57409" lon="4.75699">
        <ele>217</ele>
        <time>2011-04-09T06:26:17Z</time>
      </trkpt>
      <trkpt lat="45.57408" lon="4.75697">
        <ele>217</ele>
        <time>2011-04-09T06:26:18Z</time>
      </trkpt>
      <trkpt lat="45.57407" lon="4.75695">
        <ele>218</ele>
        <time>2011-04-09T06:26:19Z</time>
      </trkpt>
      <trkpt lat="45.57406" lon="4.75693">
        <ele>218</ele>
        <time>2011-04-09T06:26:20Z</time>
      </trkpt>
      <trkpt lat="45.57405" lon="4.75692">
        <ele>218</ele>
        <time>2011-04-09T06:26:21Z</time>
      </trkpt>
      <trkpt lat="45.57404" lon="4.7569">
        <ele>218</ele>
        <time>2011-04-09T06:26:22Z</time>
      </trkpt>
      <trkpt lat="45.57404" lon="4.75688">
        <ele>219</ele>
        <time>2011-04-09T06:26:23Z</time>
      </trkpt>
      <trkpt lat="45.57395" lon="4.75672">
        <ele>220</ele>
        <time>2011-04-09T06:26:32Z</time>
      </trkpt>
      <trkpt lat="45.57392" lon="4.75669">
        <ele>221</ele>
        <time>2011-04-09T06:26:35Z</time>
      </trkpt>
      <trkpt lat="45.57386" lon="4.75652">
        <ele>222</ele>
        <time>2011-04-09T06:26:44Z</time>
      </trkpt>
      <trkpt lat="45.57385" lon="4.75649">
        <ele>222</ele>
        <time>2011-04-09T06:26:45Z</time>
      </trkpt>
      <trkpt lat="45.57385" lon="4.75647">
        <ele>222</ele>
        <time>2011-04-09T06:26:46Z</time>
      </trkpt>
      <trkpt lat="45.57385" lon="4.75645">
        <ele>223</ele>
        <time>2011-04-09T06:26:47Z</time>
      </trkpt>
      <trkpt lat="45.57384" lon="4.75643">
        <ele>223</ele>
        <time>2011-04-09T06:26:48Z</time>
      </trkpt>
      <trkpt lat="45.5738" lon="4.75636">
        <ele>224</ele>
        <time>2011-04-09T06:26:54Z</time>
      </trkpt>
      <trkpt lat="45.57373" lon="4.75623">
        <ele>225</ele>
        <time>2011-04-09T06:27:02Z</time>
      </trkpt>
      <trkpt lat="45.57368" lon="4.75612">
        <ele>225</ele>
        <time>2011-04-09T06:27:08Z</time>
      </trkpt>
      <trkpt lat="45.57367" lon="4.75611">
        <ele>226</ele>
        <time>2011-04-09T06:27:09Z</time>
      </trkpt>
      <trkpt lat="45.57362" lon="4.75596">
        <ele>227</ele>
        <time>2011-04-09T06:27:17Z</time>
      </trkpt>
      <trkpt lat="45.57357" lon="4.75579">
        <ele>228</ele>
        <time>2011-04-09T06:27:26Z</time>
      </trkpt>
      <trkpt lat="45.57354" lon="4.75577">
        <ele>228</ele>
        <time>2011-04-09T06:27:28Z</time>
      </trkpt>
      <trkpt lat="45.57352" lon="4.75576">
        <ele>228</ele>
        <time>2011-04-09T06:27:29Z</time>
      </trkpt>
      <trkpt lat="45.57342" lon="4.75569">
        <ele>230</ele>
        <time>2011-04-09T06:27:37Z</time>
      </trkpt>
      <trkpt lat="45.57332" lon="4.75568">
        <ele>230</ele>
        <time>2011-04-09T06:27:44Z</time>
      </trkpt>
      <trkpt lat="45.57331" lon="4.75568">
        <ele>231</ele>
        <time>2011-04-09T06:27:45Z</time>
      </trkpt>
      <trkpt lat="45.57328" lon="4.75568">
        <ele>232</ele>
        <time>2011-04-09T06:27:47Z</time>
      </trkpt>
      <trkpt lat="45.57327" lon="4.75568">
        <ele>232</ele>
        <time>2011-04-09T06:27:48Z</time>
      </trkpt>
      <trkpt lat="45.57325" lon="4.75568">
        <ele>232</ele>
        <time>2011-04-09T06:27:49Z</time>
      </trkpt>
      <trkpt lat="45.57324" lon="4.75568">
        <ele>232</ele>
        <time>2011-04-09T06:27:50Z</time>
      </trkpt>
      <trkpt lat="45.57322" lon="4.75567">
        <ele>232</ele>
        <time>2011-04-09T06:27:51Z</time>
      </trkpt>
      <trkpt lat="45.5732" lon="4.75567">
        <ele>232</ele>
        <time>2011-04-09T06:27:52Z</time>
      </trkpt>
      <trkpt lat="45.57317" lon="4.75567">
        <ele>233</ele>
        <time>2011-04-09T06:27:54Z</time>
      </trkpt>
      <trkpt lat="45.57315" lon="4.75567">
        <ele>233</ele>
        <time>2011-04-09T06:27:55Z</time>
      </trkpt>
      <trkpt lat="45.57314" lon="4.75567">
        <ele>233</ele>
        <time>2011-04-09T06:27:56Z</time>
      </trkpt>
      <trkpt lat="45.57304" lon="4.75567">
        <ele>234</ele>
        <time>2011-04-09T06:28:03Z</time>
      </trkpt>
      <trkpt lat="45.57299" lon="4.75568">
        <ele>235</ele>
        <time>2011-04-09T06:28:07Z</time>
      </trkpt>
      <trkpt lat="45.57288" lon="4.75565">
        <ele>236</ele>
        <time>2011-04-09T06:28:15Z</time>
      </trkpt>
      <trkpt lat="45.57284" lon="4.75563">
        <ele>236</ele>
        <time>2011-04-09T06:28:18Z</time>
      </trkpt>
      <trkpt lat="45.57283" lon="4.75563">
        <ele>237</ele>
        <time>2011-04-09T06:28:19Z</time>
      </trkpt>
      <trkpt lat="45.57273" lon="4.75564">
        <ele>237</ele>
        <time>2011-04-09T06:28:26Z</time>
      </trkpt>
      <trkpt lat="45.57264" lon="4.75561">
        <ele>239</ele>
        <time>2011-04-09T06:28:34Z</time>
      </trkpt>
      <trkpt lat="45.57252" lon="4.7556">
        <ele>241</ele>
        <time>2011-04-09T06:28:43Z</time>
      </trkpt>
      <trkpt lat="45.5724" lon="4.75558">
        <ele>243</ele>
        <time>2011-04-09T06:28:51Z</time>
      </trkpt>
      <trkpt lat="45.57231" lon="4.75559">
        <ele>244</ele>
        <time>2011-04-09T06:29:00Z</time>
      </trkpt>
      <trkpt lat="45.57221" lon="4.75559">
        <ele>245</ele>
        <time>2011-04-09T06:29:08Z</time>
      </trkpt>
      <trkpt lat="45.57213" lon="4.7556">
        <ele>247</ele>
        <time>2011-04-09T06:29:15Z</time>
      </trkpt>
      <trkpt lat="45.57205" lon="4.75559">
        <ele>248</ele>
        <time>2011-04-09T06:29:23Z</time>
      </trkpt>
      <trkpt lat="45.572" lon="4.75557">
        <ele>249</ele>
        <time>2011-04-09T06:29:30Z</time>
      </trkpt>
      <trkpt lat="45.57185" lon="4.75548">
        <ele>251</ele>
        <time>2011-04-09T06:29:38Z</time>
      </trkpt>
      <trkpt lat="45.57182" lon="4.75545">
        <ele>252</ele>
        <time>2011-04-09T06:29:42Z</time>
      </trkpt>
      <trkpt lat="45.5718" lon="4.75544">
        <ele>251</ele>
        <time>2011-04-09T06:29:43Z</time>
      </trkpt>
      <trkpt lat="45.57178" lon="4.75542">
        <ele>252</ele>
        <time>2011-04-09T06:29:45Z</time>
      </trkpt>
      <trkpt lat="45.57177" lon="4.75541">
        <ele>252</ele>
        <time>2011-04-09T06:29:46Z</time>
      </trkpt>
      <trkpt lat="45.57175" lon="4.7554">
        <ele>252</ele>
        <time>2011-04-09T06:29:47Z</time>
      </trkpt>
      <trkpt lat="45.57174" lon="4.7554">
        <ele>252</ele>
        <time>2011-04-09T06:29:48Z</time>
      </trkpt>
      <trkpt lat="45.57174" lon="4.75539">
        <ele>252</ele>
        <time>2011-04-09T06:29:49Z</time>
      </trkpt>
      <trkpt lat="45.57172" lon="4.75537">
        <ele>252</ele>
        <time>2011-04-09T06:29:51Z</time>
      </trkpt>
      <trkpt lat="45.57169" lon="4.75532">
        <ele>253</ele>
        <time>2011-04-09T06:29:55Z</time>
      </trkpt>
      <trkpt lat="45.57168" lon="4.7553">
        <ele>253</ele>
        <time>2011-04-09T06:29:56Z</time>
      </trkpt>
      <trkpt lat="45.57167" lon="4.75529">
        <ele>254</ele>
        <time>2011-04-09T06:29:57Z</time>
      </trkpt>
      <trkpt lat="45.57158" lon="4.75524">
        <ele>255</ele>
        <time>2011-04-09T06:30:04Z</time>
      </trkpt>
      <trkpt lat="45.57147" lon="4.75516">
        <ele>255</ele>
        <time>2011-04-09T06:30:13Z</time>
      </trkpt>
      <trkpt lat="45.57141" lon="4.75507">
        <ele>256</ele>
        <time>2011-04-09T06:30:20Z</time>
      </trkpt>
      <trkpt lat="45.57132" lon="4.75498">
        <ele>257</ele>
        <time>2011-04-09T06:30:29Z</time>
      </trkpt>
      <trkpt lat="45.57131" lon="4.75496">
        <ele>257</ele>
        <time>2011-04-09T06:30:30Z</time>
      </trkpt>
      <trkpt lat="45.5713" lon="4.75495">
        <ele>257</ele>
        <time>2011-04-09T06:30:31Z</time>
      </trkpt>
      <trkpt lat="45.57122" lon="4.75481">
        <ele>258</ele>
        <time>2011-04-09T06:30:40Z</time>
      </trkpt>
      <trkpt lat="45.57112" lon="4.75472">
        <ele>260</ele>
        <time>2011-04-09T06:30:49Z</time>
      </trkpt>
      <trkpt lat="45.57111" lon="4.7547">
        <ele>260</ele>
        <time>2011-04-09T06:30:50Z</time>
      </trkpt>
      <trkpt lat="45.57104" lon="4.75467">
        <ele>261</ele>
        <time>2011-04-09T06:30:56Z</time>
      </trkpt>
      <trkpt lat="45.57101" lon="4.75467">
        <ele>262</ele>
        <time>2011-04-09T06:30:58Z</time>
      </trkpt>
      <trkpt lat="45.571" lon="4.75466">
        <ele>262</ele>
        <time>2011-04-09T06:30:59Z</time>
      </trkpt>
      <trkpt lat="45.57092" lon="4.75457">
        <ele>263</ele>
        <time>2011-04-09T06:31:06Z</time>
      </trkpt>
      <trkpt lat="45.57091" lon="4.75456">
        <ele>263</ele>
        <time>2011-04-09T06:31:07Z</time>
      </trkpt>
      <trkpt lat="45.57088" lon="4.75452">
        <ele>263</ele>
        <time>2011-04-09T06:31:10Z</time>
      </trkpt>
      <trkpt lat="45.57086" lon="4.75452">
        <ele>263</ele>
        <time>2011-04-09T06:31:11Z</time>
      </trkpt>
      <trkpt lat="45.57085" lon="4.75452">
        <ele>264</ele>
        <time>2011-04-09T06:31:12Z</time>
      </trkpt>
      <trkpt lat="45.57084" lon="4.75452">
        <ele>263</ele>
        <time>2011-04-09T06:31:13Z</time>
      </trkpt>
      <trkpt lat="45.57082" lon="4.75451">
        <ele>264</ele>
        <time>2011-04-09T06:31:14Z</time>
      </trkpt>
      <trkpt lat="45.57081" lon="4.75451">
        <ele>263</ele>
        <time>2011-04-09T06:31:15Z</time>
      </trkpt>
      <trkpt lat="45.5708" lon="4.7545">
        <ele>263</ele>
        <time>2011-04-09T06:31:16Z</time>
      </trkpt>
      <trkpt lat="45.57068" lon="4.75445">
        <ele>264</ele>
        <time>2011-04-09T06:31:24Z</time>
      </trkpt>
      <trkpt lat="45.57058" lon="4.75438">
        <ele>264</ele>
        <time>2011-04-09T06:31:32Z</time>
      </trkpt>
      <trkpt lat="45.57047" lon="4.75431">
        <ele>266</ele>
        <time>2011-04-09T06:31:40Z</time>
      </trkpt>
      <trkpt lat="45.57035" lon="4.75422">
        <ele>267</ele>
        <time>2011-04-09T06:31:49Z</time>
      </trkpt>
      <trkpt lat="45.57024" lon="4.75414">
        <ele>268</ele>
        <time>2011-04-09T06:31:57Z</time>
      </trkpt>
      <trkpt lat="45.57015" lon="4.75404">
        <ele>269</ele>
        <time>2011-04-09T06:32:05Z</time>
      </trkpt>
      <trkpt lat="45.57009" lon="4.75395">
        <ele>270</ele>
        <time>2011-04-09T06:32:11Z</time>
      </trkpt>
      <trkpt lat="45.57002" lon="4.75385">
        <ele>271</ele>
        <time>2011-04-09T06:32:18Z</time>
      </trkpt>
      <trkpt lat="45.56994" lon="4.75378">
        <ele>272</ele>
        <time>2011-04-09T06:32:25Z</time>
      </trkpt>
      <trkpt lat="45.56983" lon="4.7537">
        <ele>273</ele>
        <time>2011-04-09T06:32:33Z</time>
      </trkpt>
      <trkpt lat="45.56973" lon="4.75357">
        <ele>275</ele>
        <time>2011-04-09T06:32:42Z</time>
      </trkpt>
      <trkpt lat="45.56964" lon="4.75344">
        <ele>277</ele>
        <time>2011-04-09T06:32:50Z</time>
      </trkpt>
      <trkpt lat="45.56959" lon="4.75331">
        <ele>277</ele>
        <time>2011-04-09T06:32:57Z</time>
      </trkpt>
      <trkpt lat="45.56955" lon="4.7532">
        <ele>278</ele>
        <time>2011-04-09T06:33:03Z</time>
      </trkpt>
      <trkpt lat="45.56954" lon="4.75318">
        <ele>278</ele>
        <time>2011-04-09T06:33:04Z</time>
      </trkpt>
      <trkpt lat="45.56953" lon="4.75316">
        <ele>278</ele>
        <time>2011-04-09T06:33:05Z</time>
      </trkpt>
      <trkpt lat="45.56952" lon="4.75314">
        <ele>278</ele>
        <time>2011-04-09T06:33:06Z</time>
      </trkpt>
      <trkpt lat="45.56952" lon="4.75313">
        <ele>279</ele>
        <time>2011-04-09T06:33:07Z</time>
      </trkpt>
      <trkpt lat="45.56951" lon="4.75312">
        <ele>279</ele>
        <time>2011-04-09T06:33:08Z</time>
      </trkpt>
      <trkpt lat="45.5695" lon="4.75311">
        <ele>279</ele>
        <time>2011-04-09T06:33:09Z</time>
      </trkpt>
      <trkpt lat="45.56944" lon="4.753">
        <ele>280</ele>
        <time>2011-04-09T06:33:16Z</time>
      </trkpt>
      <trkpt lat="45.56942" lon="4.75295">
        <ele>281</ele>
        <time>2011-04-09T06:33:19Z</time>
      </trkpt>
      <trkpt lat="45.5694" lon="4.75277">
        <ele>283</ele>
        <time>2011-04-09T06:33:27Z</time>
      </trkpt>
      <trkpt lat="45.56939" lon="4.75268">
        <ele>283</ele>
        <time>2011-04-09T06:33:31Z</time>
      </trkpt>
      <trkpt lat="45.56939" lon="4.75266">
        <ele>283</ele>
        <time>2011-04-09T06:33:32Z</time>
      </trkpt>
      <trkpt lat="45.56937" lon="4.75252">
        <ele>284</ele>
        <time>2011-04-09T06:33:40Z</time>
      </trkpt>
      <trkpt lat="45.56935" lon="4.75238">
        <ele>285</ele>
        <time>2011-04-09T06:33:47Z</time>
      </trkpt>
      <trkpt lat="45.56934" lon="4.75223">
        <ele>286</ele>
        <time>2011-04-09T06:33:55Z</time>
      </trkpt>
      <trkpt lat="45.56933" lon="4.75216">
        <ele>287</ele>
        <time>2011-04-09T06:33:59Z</time>
      </trkpt>
      <trkpt lat="45.56933" lon="4.75214">
        <ele>287</ele>
        <time>2011-04-09T06:34:00Z</time>
      </trkpt>
      <trkpt lat="45.56933" lon="4.75212">
        <ele>288</ele>
        <time>2011-04-09T06:34:01Z</time>
      </trkpt>
      <trkpt lat="45.56933" lon="4.7521">
        <ele>288</ele>
        <time>2011-04-09T06:34:02Z</time>
      </trkpt>
      <trkpt lat="45.56932" lon="4.75208">
        <ele>288</ele>
        <time>2011-04-09T06:34:03Z</time>
      </trkpt>
      <trkpt lat="45.56932" lon="4.75206">
        <ele>288</ele>
        <time>2011-04-09T06:34:04Z</time>
      </trkpt>
      <trkpt lat="45.56925" lon="4.75191">
        <ele>289</ele>
        <time>2011-04-09T06:34:11Z</time>
      </trkpt>
      <trkpt lat="45.56918" lon="4.75177">
        <ele>290</ele>
        <time>2011-04-09T06:34:19Z</time>
      </trkpt>
      <trkpt lat="45.5691" lon="4.75161">
        <ele>291</ele>
        <time>2011-04-09T06:34:29Z</time>
      </trkpt>
      <trkpt lat="45.56902" lon="4.75148">
        <ele>292</ele>
        <time>2011-04-09T06:34:37Z</time>
      </trkpt>
      <trkpt lat="45.56893" lon="4.75135">
        <ele>294</ele>
        <time>2011-04-09T06:34:46Z</time>
      </trkpt>
      <trkpt lat="45.56884" lon="4.75123">
        <ele>295</ele>
        <time>2011-04-09T06:34:54Z</time>
      </trkpt>
      <trkpt lat="45.56879" lon="4.75112">
        <ele>296</ele>
        <time>2011-04-09T06:35:01Z</time>
      </trkpt>
      <trkpt lat="45.56876" lon="4.75098">
        <ele>298</ele>
        <time>2011-04-09T06:35:08Z</time>
      </trkpt>
      <trkpt lat="45.56876" lon="4.75097">
        <ele>298</ele>
        <time>2011-04-09T06:35:09Z</time>
      </trkpt>
      <trkpt lat="45.56876" lon="4.75095">
        <ele>297</ele>
        <time>2011-04-09T06:35:10Z</time>
      </trkpt>
      <trkpt lat="45.56875" lon="4.75094">
        <ele>298</ele>
        <time>2011-04-09T06:35:11Z</time>
      </trkpt>
      <trkpt lat="45.56874" lon="4.75086">
        <ele>299</ele>
        <time>2011-04-09T06:35:15Z</time>
      </trkpt>
      <trkpt lat="45.56873" lon="4.75085">
        <ele>299</ele>
        <time>2011-04-09T06:35:16Z</time>
      </trkpt>
      <trkpt lat="45.5687" lon="4.75076">
        <ele>299</ele>
        <time>2011-04-09T06:35:22Z</time>
      </trkpt>
      <trkpt lat="45.56868" lon="4.75061">
        <ele>300</ele>
        <time>2011-04-09T06:35:30Z</time>
      </trkpt>
      <trkpt lat="45.56865" lon="4.75048">
        <ele>301</ele>
        <time>2011-04-09T06:35:37Z</time>
      </trkpt>
      <trkpt lat="45.56862" lon="4.75032">
        <ele>302</ele>
        <time>2011-04-09T06:35:46Z</time>
      </trkpt>
      <trkpt lat="45.56858" lon="4.75015">
        <ele>304</ele>
        <time>2011-04-09T06:35:55Z</time>
      </trkpt>
      <trkpt lat="45.56856" lon="4.74999">
        <ele>305</ele>
        <time>2011-04-09T06:36:03Z</time>
      </trkpt>
      <trkpt lat="45.56849" lon="4.74984">
        <ele>307</ele>
        <time>2011-04-09T06:36:12Z</time>
      </trkpt>
      <trkpt lat="45.56845" lon="4.74968">
        <ele>308</ele>
        <time>2011-04-09T06:36:21Z</time>
      </trkpt>
      <trkpt lat="45.56844" lon="4.74966">
        <ele>308</ele>
        <time>2011-04-09T06:36:22Z</time>
      </trkpt>
      <trkpt lat="45.56843" lon="4.7495">
        <ele>310</ele>
        <time>2011-04-09T06:36:32Z</time>
      </trkpt>
      <trkpt lat="45.56843" lon="4.74934">
        <ele>312</ele>
        <time>2011-04-09T06:36:40Z</time>
      </trkpt>
      <trkpt lat="45.56841" lon="4.74919">
        <ele>313</ele>
        <time>2011-04-09T06:36:48Z</time>
      </trkpt>
      <trkpt lat="45.5684" lon="4.74912">
        <ele>314</ele>
        <time>2011-04-09T06:36:52Z</time>
      </trkpt>
      <trkpt lat="45.56841" lon="4.74891">
        <ele>315</ele>
        <time>2011-04-09T06:37:02Z</time>
      </trkpt>
      <trkpt lat="45.56843" lon="4.74875">
        <ele>316</ele>
        <time>2011-04-09T06:37:10Z</time>
      </trkpt>
      <trkpt lat="45.56846" lon="4.74862">
        <ele>317</ele>
        <time>2011-04-09T06:37:17Z</time>
      </trkpt>
      <trkpt lat="45.56847" lon="4.74857">
        <ele>318</ele>
        <time>2011-04-09T06:37:20Z</time>
      </trkpt>
      <trkpt lat="45.56851" lon="4.74841">
        <ele>319</ele>
        <time>2011-04-09T06:37:28Z</time>
      </trkpt>
      <trkpt lat="45.56854" lon="4.74824">
        <ele>320</ele>
        <time>2011-04-09T06:37:37Z</time>
      </trkpt>
      <trkpt lat="45.56853" lon="4.74798">
        <ele>320</ele>
        <time>2011-04-09T06:37:47Z</time>
      </trkpt>
      <trkpt lat="45.56851" lon="4.74776">
        <ele>321</ele>
        <time>2011-04-09T06:37:55Z</time>
      </trkpt>
      <trkpt lat="45.5685" lon="4.74759">
        <ele>321</ele>
        <time>2011-04-09T06:38:01Z</time>
      </trkpt>
      <trkpt lat="45.56847" lon="4.74734">
        <ele>321</ele>
        <time>2011-04-09T06:38:09Z</time>
      </trkpt>
      <trkpt lat="45.5684" lon="4.74704">
        <ele>321</ele>
        <time>2011-04-09T06:38:18Z</time>
      </trkpt>
      <trkpt lat="45.56832" lon="4.74673">
        <ele>322</ele>
        <time>2011-04-09T06:38:28Z</time>
      </trkpt>
      <trkpt lat="45.56828" lon="4.7465">
        <ele>323</ele>
        <time>2011-04-09T06:38:36Z</time>
      </trkpt>
      <trkpt lat="45.56823" lon="4.74625">
        <ele>324</ele>
        <time>2011-04-09T06:38:45Z</time>
      </trkpt>
      <trkpt lat="45.56818" lon="4.74598">
        <ele>324</ele>
        <time>2011-04-09T06:38:54Z</time>
      </trkpt>
      <trkpt lat="45.56812" lon="4.74573">
        <ele>325</ele>
        <time>2011-04-09T06:39:03Z</time>
      </trkpt>
      <trkpt lat="45.56801" lon="4.7456">
        <ele>326</ele>
        <time>2011-04-09T06:39:09Z</time>
      </trkpt>
      <trkpt lat="45.56776" lon="4.7455">
        <ele>326</ele>
        <time>2011-04-09T06:39:19Z</time>
      </trkpt>
      <trkpt lat="45.56762" lon="4.74544">
        <ele>327</ele>
        <time>2011-04-09T06:39:25Z</time>
      </trkpt>
      <trkpt lat="45.5674" lon="4.74535">
        <ele>327</ele>
        <time>2011-04-09T06:39:33Z</time>
      </trkpt>
      <trkpt lat="45.56713" lon="4.74522">
        <ele>327</ele>
        <time>2011-04-09T06:39:42Z</time>
      </trkpt>
      <trkpt lat="45.56698" lon="4.74507">
        <ele>328</ele>
        <time>2011-04-09T06:39:48Z</time>
      </trkpt>
      <trkpt lat="45.56681" lon="4.74486">
        <ele>329</ele>
        <time>2011-04-09T06:39:56Z</time>
      </trkpt>
      <trkpt lat="45.56662" lon="4.74458">
        <ele>329</ele>
        <time>2011-04-09T06:40:06Z</time>
      </trkpt>
      <trkpt lat="45.56644" lon="4.74428">
        <ele>331</ele>
        <time>2011-04-09T06:40:16Z</time>
      </trkpt>
      <trkpt lat="45.56633" lon="4.74408">
        <ele>331</ele>
        <time>2011-04-09T06:40:23Z</time>
      </trkpt>
      <trkpt lat="45.56615" lon="4.74384">
        <ele>332</ele>
        <time>2011-04-09T06:40:32Z</time>
      </trkpt>
      <trkpt lat="45.56593" lon="4.74361">
        <ele>332</ele>
        <time>2011-04-09T06:40:42Z</time>
      </trkpt>
      <trkpt lat="45.56572" lon="4.74341">
        <ele>333</ele>
        <time>2011-04-09T06:40:51Z</time>
      </trkpt>
      <trkpt lat="45.56557" lon="4.74321">
        <ele>334</ele>
        <time>2011-04-09T06:40:59Z</time>
      </trkpt>
      <trkpt lat="45.56537" lon="4.74303">
        <ele>334</ele>
        <time>2011-04-09T06:41:08Z</time>
      </trkpt>
      <trkpt lat="45.56516" lon="4.74295">
        <ele>335</ele>
        <time>2011-04-09T06:41:17Z</time>
      </trkpt>
      <trkpt lat="45.56493" lon="4.74284">
        <ele>335</ele>
        <time>2011-04-09T06:41:26Z</time>
      </trkpt>
      <trkpt lat="45.56473" lon="4.74274">
        <ele>336</ele>
        <time>2011-04-09T06:41:34Z</time>
      </trkpt>
      <trkpt lat="45.56439" lon="4.74262">
        <ele>336</ele>
        <time>2011-04-09T06:41:47Z</time>
      </trkpt>
      <trkpt lat="45.56418" lon="4.7426">
        <ele>337</ele>
        <time>2011-04-09T06:41:55Z</time>
      </trkpt>
      <trkpt lat="45.5639" lon="4.7426">
        <ele>337</ele>
        <time>2011-04-09T06:42:05Z</time>
      </trkpt>
      <trkpt lat="45.56376" lon="4.7426">
        <ele>338</ele>
        <time>2011-04-09T06:42:13Z</time>
      </trkpt>
      <trkpt lat="45.56375" lon="4.74262">
        <ele>338</ele>
        <time>2011-04-09T06:42:19Z</time>
      </trkpt>
      <trkpt lat="45.56375" lon="4.74262">
        <ele>338</ele>
        <time>2011-04-09T06:42:28Z</time>
      </trkpt>
      <trkpt lat="45.56376" lon="4.74266">
        <ele>337</ele>
        <time>2011-04-09T06:42:37Z</time>
      </trkpt>
      <trkpt lat="45.56376" lon="4.74267">
        <ele>337</ele>
        <time>2011-04-09T06:42:44Z</time>
      </trkpt>
      <trkpt lat="45.56377" lon="4.74269">
        <ele>338</ele>
        <time>2011-04-09T06:42:49Z</time>
      </trkpt>
      <trkpt lat="45.56377" lon="4.74279">
        <ele>337</ele>
        <time>2011-04-09T06:42:59Z</time>
      </trkpt>
      <trkpt lat="45.56376" lon="4.74286">
        <ele>338</ele>
        <time>2011-04-09T06:43:06Z</time>
      </trkpt>
      <trkpt lat="45.56376" lon="4.74291">
        <ele>337</ele>
        <time>2011-04-09T06:43:10Z</time>
      </trkpt>
      <trkpt lat="45.56376" lon="4.74296">
        <ele>337</ele>
        <time>2011-04-09T06:43:18Z</time>
      </trkpt>
      <trkpt lat="45.56376" lon="4.74296">
        <ele>337</ele>
        <time>2011-04-09T06:43:39Z</time>
      </trkpt>
      <trkpt lat="45.56376" lon="4.74296">
        <ele>337</ele>
        <time>2011-04-09T06:43:47Z</time>
      </trkpt>
      <trkpt lat="45.56376" lon="4.74296">
        <ele>337</ele>
        <time>2011-04-09T06:43:49Z</time>
      </trkpt>
      <trkpt lat="45.56375" lon="4.74311">
        <ele>338</ele>
        <time>2011-04-09T06:43:55Z</time>
      </trkpt>
      <trkpt lat="45.56372" lon="4.74335">
        <ele>338</ele>
        <time>2011-04-09T06:44:03Z</time>
      </trkpt>
      <trkpt lat="45.56359" lon="4.74356">
        <ele>339</ele>
        <time>2011-04-09T06:44:12Z</time>
      </trkpt>
      <trkpt lat="45.5634" lon="4.74373">
        <ele>339</ele>
        <time>2011-04-09T06:44:22Z</time>
      </trkpt>
      <trkpt lat="45.56321" lon="4.74388">
        <ele>340</ele>
        <time>2011-04-09T06:44:31Z</time>
      </trkpt>
      <trkpt lat="45.56297" lon="4.74405">
        <ele>341</ele>
        <time>2011-04-09T06:44:42Z</time>
      </trkpt>
      <trkpt lat="45.56279" lon="4.74417">
        <ele>341</ele>
        <time>2011-04-09T06:44:51Z</time>
      </trkpt>
      <trkpt lat="45.56254" lon="4.74427">
        <ele>343</ele>
        <time>2011-04-09T06:45:02Z</time>
      </trkpt>
      <trkpt lat="45.56231" lon="4.74436">
        <ele>344</ele>
        <time>2011-04-09T06:45:12Z</time>
      </trkpt>
      <trkpt lat="45.56208" lon="4.74446">
        <ele>346</ele>
        <time>2011-04-09T06:45:23Z</time>
      </trkpt>
      <trkpt lat="45.562" lon="4.7445">
        <ele>346</ele>
        <time>2011-04-09T06:45:27Z</time>
      </trkpt>
      <trkpt lat="45.5618" lon="4.74465">
        <ele>347</ele>
        <time>2011-04-09T06:45:37Z</time>
      </trkpt>
      <trkpt lat="45.56155" lon="4.74479">
        <ele>348</ele>
        <time>2011-04-09T06:45:48Z</time>
      </trkpt>
      <trkpt lat="45.56129" lon="4.74493">
        <ele>349</ele>
        <time>2011-04-09T06:45:59Z</time>
      </trkpt>
      <trkpt lat="45.56107" lon="4.74507">
        <ele>351</ele>
        <time>2011-04-09T06:46:09Z</time>
      </trkpt>
      <trkpt lat="45.56087" lon="4.7453">
        <ele>351</ele>
        <time>2011-04-09T06:46:19Z</time>
      </trkpt>
      <trkpt lat="45.5607" lon="4.74554">
        <ele>352</ele>
        <time>2011-04-09T06:46:29Z</time>
      </trkpt>
      <trkpt lat="45.56052" lon="4.74579">
        <ele>352</ele>
        <time>2011-04-09T06:46:39Z</time>
      </trkpt>
      <trkpt lat="45.56035" lon="4.74602">
        <ele>353</ele>
        <time>2011-04-09T06:46:48Z</time>
      </trkpt>
      <trkpt lat="45.56017" lon="4.74629">
        <ele>353</ele>
        <time>2011-04-09T06:46:57Z</time>
      </trkpt>
      <trkpt lat="45.56003" lon="4.74645">
        <ele>352</ele>
        <time>2011-04-09T06:47:03Z</time>
      </trkpt>
      <trkpt lat="45.55994" lon="4.74685">
        <ele>351</ele>
        <time>2011-04-09T06:47:11Z</time>
      </trkpt>
      <trkpt lat="45.55992" lon="4.74707">
        <ele>351</ele>
        <time>2011-04-09T06:47:16Z</time>
      </trkpt>
      <trkpt lat="45.55978" lon="4.74705">
        <ele>352</ele>
        <time>2011-04-09T06:47:22Z</time>
      </trkpt>
      <trkpt lat="45.55976" lon="4.74702">
        <ele>352</ele>
        <time>2011-04-09T06:47:23Z</time>
      </trkpt>
      <trkpt lat="45.55967" lon="4.7467">
        <ele>354</ele>
        <time>2011-04-09T06:47:30Z</time>
      </trkpt>
      <trkpt lat="45.55962" lon="4.74636">
        <ele>356</ele>
        <time>2011-04-09T06:47:39Z</time>
      </trkpt>
      <trkpt lat="45.55957" lon="4.74602">
        <ele>357</ele>
        <time>2011-04-09T06:47:48Z</time>
      </trkpt>
      <trkpt lat="45.55951" lon="4.74568">
        <ele>359</ele>
        <time>2011-04-09T06:47:57Z</time>
      </trkpt>
      <trkpt lat="45.55947" lon="4.74534">
        <ele>360</ele>
        <time>2011-04-09T06:48:06Z</time>
      </trkpt>
      <trkpt lat="45.55942" lon="4.74505">
        <ele>361</ele>
        <time>2011-04-09T06:48:14Z</time>
      </trkpt>
      <trkpt lat="45.55935" lon="4.74468">
        <ele>363</ele>
        <time>2011-04-09T06:48:24Z</time>
      </trkpt>
      <trkpt lat="45.55928" lon="4.74443">
        <ele>364</ele>
        <time>2011-04-09T06:48:31Z</time>
      </trkpt>
      <trkpt lat="45.55918" lon="4.74408">
        <ele>366</ele>
        <time>2011-04-09T06:48:41Z</time>
      </trkpt>
      <trkpt lat="45.5591" lon="4.74371">
        <ele>367</ele>
        <time>2011-04-09T06:48:52Z</time>
      </trkpt>
      <trkpt lat="45.55904" lon="4.74333">
        <ele>369</ele>
        <time>2011-04-09T06:49:03Z</time>
      </trkpt>
      <trkpt lat="45.559" lon="4.74306">
        <ele>370</ele>
        <time>2011-04-09T06:49:11Z</time>
      </trkpt>
      <trkpt lat="45.55892" lon="4.74274">
        <ele>371</ele>
        <time>2011-04-09T06:49:20Z</time>
      </trkpt>
      <trkpt lat="45.55882" lon="4.74242">
        <ele>372</ele>
        <time>2011-04-09T06:49:29Z</time>
      </trkpt>
      <trkpt lat="45.55866" lon="4.74198">
        <ele>372</ele>
        <time>2011-04-09T06:49:41Z</time>
      </trkpt>
      <trkpt lat="45.55852" lon="4.74159">
        <ele>373</ele>
        <time>2011-04-09T06:49:51Z</time>
      </trkpt>
      <trkpt lat="45.5584" lon="4.74125">
        <ele>373</ele>
        <time>2011-04-09T06:50:00Z</time>
      </trkpt>
      <trkpt lat="45.55829" lon="4.74105">
        <ele>373</ele>
        <time>2011-04-09T06:50:06Z</time>
      </trkpt>
      <trkpt lat="45.55816" lon="4.74098">
        <ele>373</ele>
        <time>2011-04-09T06:50:12Z</time>
      </trkpt>
      <trkpt lat="45.55813" lon="4.74101">
        <ele>374</ele>
        <time>2011-04-09T06:50:13Z</time>
      </trkpt>
      <trkpt lat="45.55793" lon="4.74134">
        <ele>375</ele>
        <time>2011-04-09T06:50:23Z</time>
      </trkpt>
      <trkpt lat="45.55778" lon="4.74153">
        <ele>376</ele>
        <time>2011-04-09T06:50:31Z</time>
      </trkpt>
      <trkpt lat="45.5576" lon="4.74175">
        <ele>378</ele>
        <time>2011-04-09T06:50:41Z</time>
      </trkpt>
      <trkpt lat="45.55739" lon="4.74198">
        <ele>380</ele>
        <time>2011-04-09T06:50:52Z</time>
      </trkpt>
      <trkpt lat="45.55723" lon="4.74219">
        <ele>381</ele>
        <time>2011-04-09T06:51:01Z</time>
      </trkpt>
      <trkpt lat="45.55701" lon="4.74242">
        <ele>384</ele>
        <time>2011-04-09T06:51:12Z</time>
      </trkpt>
      <trkpt lat="45.55681" lon="4.74261">
        <ele>386</ele>
        <time>2011-04-09T06:51:22Z</time>
      </trkpt>
      <trkpt lat="45.55666" lon="4.74273">
        <ele>387</ele>
        <time>2011-04-09T06:51:29Z</time>
      </trkpt>
      <trkpt lat="45.55644" lon="4.74288">
        <ele>388</ele>
        <time>2011-04-09T06:51:39Z</time>
      </trkpt>
      <trkpt lat="45.55626" lon="4.74297">
        <ele>390</ele>
        <time>2011-04-09T06:51:47Z</time>
      </trkpt>
      <trkpt lat="45.55605" lon="4.74307">
        <ele>392</ele>
        <time>2011-04-09T06:51:56Z</time>
      </trkpt>
      <trkpt lat="45.55579" lon="4.74317">
        <ele>394</ele>
        <time>2011-04-09T06:52:07Z</time>
      </trkpt>
      <trkpt lat="45.5556" lon="4.74327">
        <ele>395</ele>
        <time>2011-04-09T06:52:15Z</time>
      </trkpt>
      <trkpt lat="45.55533" lon="4.74338">
        <ele>395</ele>
        <time>2011-04-09T06:52:25Z</time>
      </trkpt>
      <trkpt lat="45.555" lon="4.74345">
        <ele>395</ele>
        <time>2011-04-09T06:52:36Z</time>
      </trkpt>
      <trkpt lat="45.55465" lon="4.74348">
        <ele>395</ele>
        <time>2011-04-09T06:52:46Z</time>
      </trkpt>
      <trkpt lat="45.55433" lon="4.74351">
        <ele>395</ele>
        <time>2011-04-09T06:52:56Z</time>
      </trkpt>
      <trkpt lat="45.55405" lon="4.74352">
        <ele>395</ele>
        <time>2011-04-09T06:53:04Z</time>
      </trkpt>
      <trkpt lat="45.55367" lon="4.74354">
        <ele>396</ele>
        <time>2011-04-09T06:53:15Z</time>
      </trkpt>
      <trkpt lat="45.55328" lon="4.74361">
        <ele>398</ele>
        <time>2011-04-09T06:53:26Z</time>
      </trkpt>
      <trkpt lat="45.55295" lon="4.74372">
        <ele>398</ele>
        <time>2011-04-09T06:53:36Z</time>
      </trkpt>
      <trkpt lat="45.55264" lon="4.74387">
        <ele>400</ele>
        <time>2011-04-09T06:53:46Z</time>
      </trkpt>
      <trkpt lat="45.5524" lon="4.744">
        <ele>401</ele>
        <time>2011-04-09T06:53:55Z</time>
      </trkpt>
      <trkpt lat="45.55227" lon="4.74404">
        <ele>401</ele>
        <time>2011-04-09T06:54:00Z</time>
      </trkpt>
      <trkpt lat="45.55226" lon="4.74402">
        <ele>402</ele>
        <time>2011-04-09T06:54:01Z</time>
      </trkpt>
      <trkpt lat="45.55224" lon="4.74399">
        <ele>402</ele>
        <time>2011-04-09T06:54:02Z</time>
      </trkpt>
      <trkpt lat="45.55224" lon="4.74395">
        <ele>402</ele>
        <time>2011-04-09T06:54:03Z</time>
      </trkpt>
      <trkpt lat="45.55223" lon="4.74391">
        <ele>402</ele>
        <time>2011-04-09T06:54:04Z</time>
      </trkpt>
      <trkpt lat="45.55217" lon="4.74348">
        <ele>401</ele>
        <time>2011-04-09T06:54:14Z</time>
      </trkpt>
      <trkpt lat="45.55211" lon="4.74307">
        <ele>402</ele>
        <time>2011-04-09T06:54:22Z</time>
      </trkpt>
      <trkpt lat="45.55204" lon="4.74265">
        <ele>403</ele>
        <time>2011-04-09T06:54:31Z</time>
      </trkpt>
      <trkpt lat="45.5519" lon="4.74246">
        <ele>403</ele>
        <time>2011-04-09T06:54:37Z</time>
      </trkpt>
      <trkpt lat="45.55165" lon="4.74228">
        <ele>404</ele>
        <time>2011-04-09T06:54:46Z</time>
      </trkpt>
      <trkpt lat="45.55141" lon="4.74208">
        <ele>405</ele>
        <time>2011-04-09T06:54:55Z</time>
      </trkpt>
      <trkpt lat="45.55123" lon="4.74194">
        <ele>405</ele>
        <time>2011-04-09T06:55:02Z</time>
      </trkpt>
      <trkpt lat="45.55111" lon="4.74182">
        <ele>406</ele>
        <time>2011-04-09T06:55:08Z</time>
      </trkpt>
      <trkpt lat="45.55094" lon="4.74158">
        <ele>407</ele>
        <time>2011-04-09T06:55:18Z</time>
      </trkpt>
      <trkpt lat="45.55082" lon="4.74142">
        <ele>409</ele>
        <time>2011-04-09T06:55:26Z</time>
      </trkpt>
      <trkpt lat="45.55071" lon="4.74129">
        <ele>410</ele>
        <time>2011-04-09T06:55:33Z</time>
      </trkpt>
      <trkpt lat="45.55059" lon="4.74115">
        <ele>412</ele>
        <time>2011-04-09T06:55:41Z</time>
      </trkpt>
      <trkpt lat="45.55045" lon="4.74097">
        <ele>413</ele>
        <time>2011-04-09T06:55:50Z</time>
      </trkpt>
      <trkpt lat="45.55032" lon="4.74079">
        <ele>414</ele>
        <time>2011-04-09T06:55:59Z</time>
      </trkpt>
      <trkpt lat="45.5502" lon="4.74062">
        <ele>413</ele>
        <time>2011-04-09T06:56:06Z</time>
      </trkpt>
      <trkpt lat="45.55007" lon="4.74046">
        <ele>412</ele>
        <time>2011-04-09T06:56:11Z</time>
      </trkpt>
      <trkpt lat="45.55004" lon="4.74043">
        <ele>412</ele>
        <time>2011-04-09T06:56:12Z</time>
      </trkpt>
      <trkpt lat="45.55" lon="4.74039">
        <ele>412</ele>
        <time>2011-04-09T06:56:13Z</time>
      </trkpt>
      <trkpt lat="45.54996" lon="4.74037">
        <ele>412</ele>
        <time>2011-04-09T06:56:14Z</time>
      </trkpt>
      <trkpt lat="45.54992" lon="4.74035">
        <ele>412</ele>
        <time>2011-04-09T06:56:15Z</time>
      </trkpt>
      <trkpt lat="45.54988" lon="4.74034">
        <ele>411</ele>
        <time>2011-04-09T06:56:16Z</time>
      </trkpt>
      <trkpt lat="45.54984" lon="4.74035">
        <ele>411</ele>
        <time>2011-04-09T06:56:17Z</time>
      </trkpt>
      <trkpt lat="45.54979" lon="4.74036">
        <ele>411</ele>
        <time>2011-04-09T06:56:18Z</time>
      </trkpt>
      <trkpt lat="45.54976" lon="4.74037">
        <ele>411</ele>
        <time>2011-04-09T06:56:19Z</time>
      </trkpt>
      <trkpt lat="45.54963" lon="4.74041">
        <ele>411</ele>
        <time>2011-04-09T06:56:22Z</time>
      </trkpt>
      <trkpt lat="45.54934" lon="4.74052">
        <ele>411</ele>
        <time>2011-04-09T06:56:30Z</time>
      </trkpt>
      <trkpt lat="45.54913" lon="4.74058">
        <ele>412</ele>
        <time>2011-04-09T06:56:37Z</time>
      </trkpt>
      <trkpt lat="45.54895" lon="4.74049">
        <ele>412</ele>
        <time>2011-04-09T06:56:44Z</time>
      </trkpt>
      <trkpt lat="45.54885" lon="4.74028">
        <ele>413</ele>
        <time>2011-04-09T06:56:51Z</time>
      </trkpt>
      <trkpt lat="45.54885" lon="4.73993">
        <ele>412</ele>
        <time>2011-04-09T06:56:58Z</time>
      </trkpt>
      <trkpt lat="45.549" lon="4.73949">
        <ele>411</ele>
        <time>2011-04-09T06:57:06Z</time>
      </trkpt>
      <trkpt lat="45.54914" lon="4.73901">
        <ele>411</ele>
        <time>2011-04-09T06:57:14Z</time>
      </trkpt>
      <trkpt lat="45.54918" lon="4.73856">
        <ele>410</ele>
        <time>2011-04-09T06:57:22Z</time>
      </trkpt>
      <trkpt lat="45.5491" lon="4.7382">
        <ele>410</ele>
        <time>2011-04-09T06:57:30Z</time>
      </trkpt>
      <trkpt lat="45.54895" lon="4.73792">
        <ele>410</ele>
        <time>2011-04-09T06:57:37Z</time>
      </trkpt>
      <trkpt lat="45.54877" lon="4.73779">
        <ele>411</ele>
        <time>2011-04-09T06:57:44Z</time>
      </trkpt>
      <trkpt lat="45.54852" lon="4.73761">
        <ele>413</ele>
        <time>2011-04-09T06:57:53Z</time>
      </trkpt>
      <trkpt lat="45.54835" lon="4.73745">
        <ele>413</ele>
        <time>2011-04-09T06:58:00Z</time>
      </trkpt>
      <trkpt lat="45.54814" lon="4.73722">
        <ele>415</ele>
        <time>2011-04-09T06:58:10Z</time>
      </trkpt>
      <trkpt lat="45.54813" lon="4.73723">
        <ele>416</ele>
        <time>2011-04-09T06:58:11Z</time>
      </trkpt>
      <trkpt lat="45.54811" lon="4.73724">
        <ele>415</ele>
        <time>2011-04-09T06:58:12Z</time>
      </trkpt>
      <trkpt lat="45.54809" lon="4.73726">
        <ele>416</ele>
        <time>2011-04-09T06:58:13Z</time>
      </trkpt>
      <trkpt lat="45.54807" lon="4.73728">
        <ele>416</ele>
        <time>2011-04-09T06:58:14Z</time>
      </trkpt>
      <trkpt lat="45.54806" lon="4.7373">
        <ele>416</ele>
        <time>2011-04-09T06:58:15Z</time>
      </trkpt>
      <trkpt lat="45.54804" lon="4.73732">
        <ele>416</ele>
        <time>2011-04-09T06:58:16Z</time>
      </trkpt>
      <trkpt lat="45.54792" lon="4.73735">
        <ele>417</ele>
        <time>2011-04-09T06:58:22Z</time>
      </trkpt>
      <trkpt lat="45.5478" lon="4.73723">
        <ele>418</ele>
        <time>2011-04-09T06:58:30Z</time>
      </trkpt>
      <trkpt lat="45.54779" lon="4.73728">
        <ele>420</ele>
        <time>2011-04-09T06:58:34Z</time>
      </trkpt>
      <trkpt lat="45.5478" lon="4.7373">
        <ele>420</ele>
        <time>2011-04-09T06:58:35Z</time>
      </trkpt>
      <trkpt lat="45.54788" lon="4.7375">
        <ele>422</ele>
        <time>2011-04-09T06:58:43Z</time>
      </trkpt>
      <trkpt lat="45.54797" lon="4.73766">
        <ele>424</ele>
        <time>2011-04-09T06:58:51Z</time>
      </trkpt>
      <trkpt lat="45.54805" lon="4.73786">
        <ele>424</ele>
        <time>2011-04-09T06:58:59Z</time>
      </trkpt>
      <trkpt lat="45.54812" lon="4.73807">
        <ele>425</ele>
        <time>2011-04-09T06:59:06Z</time>
      </trkpt>
      <trkpt lat="45.54819" lon="4.73826">
        <ele>426</ele>
        <time>2011-04-09T06:59:12Z</time>
      </trkpt>
      <trkpt lat="45.54829" lon="4.73853">
        <ele>426</ele>
        <time>2011-04-09T06:59:21Z</time>
      </trkpt>
      <trkpt lat="45.54833" lon="4.73873">
        <ele>427</ele>
        <time>2011-04-09T06:59:28Z</time>
      </trkpt>
      <trkpt lat="45.54828" lon="4.739">
        <ele>428</ele>
        <time>2011-04-09T06:59:36Z</time>
      </trkpt>
      <trkpt lat="45.54818" lon="4.73914">
        <ele>428</ele>
        <time>2011-04-09T06:59:42Z</time>
      </trkpt>
      <trkpt lat="45.54805" lon="4.73932">
        <ele>430</ele>
        <time>2011-04-09T06:59:51Z</time>
      </trkpt>
      <trkpt lat="45.54794" lon="4.73947">
        <ele>432</ele>
        <time>2011-04-09T06:59:59Z</time>
      </trkpt>
      <trkpt lat="45.54785" lon="4.73962">
        <ele>433</ele>
        <time>2011-04-09T07:00:06Z</time>
      </trkpt>
      <trkpt lat="45.54779" lon="4.73974">
        <ele>435</ele>
        <time>2011-04-09T07:00:12Z</time>
      </trkpt>
      <trkpt lat="45.54773" lon="4.73988">
        <ele>436</ele>
        <time>2011-04-09T07:00:20Z</time>
      </trkpt>
      <trkpt lat="45.54769" lon="4.73995">
        <ele>437</ele>
        <time>2011-04-09T07:00:26Z</time>
      </trkpt>
      <trkpt lat="45.54767" lon="4.73998">
        <ele>437</ele>
        <time>2011-04-09T07:00:28Z</time>
      </trkpt>
      <trkpt lat="45.54766" lon="4.73999">
        <ele>437</ele>
        <time>2011-04-09T07:00:29Z</time>
      </trkpt>
      <trkpt lat="45.54765" lon="4.74001">
        <ele>438</ele>
        <time>2011-04-09T07:00:30Z</time>
      </trkpt>
      <trkpt lat="45.54763" lon="4.74005">
        <ele>438</ele>
        <time>2011-04-09T07:00:33Z</time>
      </trkpt>
      <trkpt lat="45.54763" lon="4.74007">
        <ele>438</ele>
        <time>2011-04-09T07:00:34Z</time>
      </trkpt>
      <trkpt lat="45.54763" lon="4.74009">
        <ele>438</ele>
        <time>2011-04-09T07:00:35Z</time>
      </trkpt>
      <trkpt lat="45.5476" lon="4.74018">
        <ele>439</ele>
        <time>2011-04-09T07:00:41Z</time>
      </trkpt>
      <trkpt lat="45.54754" lon="4.74033">
        <ele>440</ele>
        <time>2011-04-09T07:00:48Z</time>
      </trkpt>
      <trkpt lat="45.54747" lon="4.74046">
        <ele>442</ele>
        <time>2011-04-09T07:00:56Z</time>
      </trkpt>
      <trkpt lat="45.54745" lon="4.74056">
        <ele>443</ele>
        <time>2011-04-09T07:01:04Z</time>
      </trkpt>
      <trkpt lat="45.54736" lon="4.74068">
        <ele>445</ele>
        <time>2011-04-09T07:01:13Z</time>
      </trkpt>
      <trkpt lat="45.54727" lon="4.74082">
        <ele>447</ele>
        <time>2011-04-09T07:01:21Z</time>
      </trkpt>
      <trkpt lat="45.54723" lon="4.74091">
        <ele>449</ele>
        <time>2011-04-09T07:01:28Z</time>
      </trkpt>
      <trkpt lat="45.54718" lon="4.74103">
        <ele>450</ele>
        <time>2011-04-09T07:01:37Z</time>
      </trkpt>
      <trkpt lat="45.54715" lon="4.74111">
        <ele>451</ele>
        <time>2011-04-09T07:01:43Z</time>
      </trkpt>
      <trkpt lat="45.54709" lon="4.74122">
        <ele>451</ele>
        <time>2011-04-09T07:01:50Z</time>
      </trkpt>
      <trkpt lat="45.54703" lon="4.74135">
        <ele>452</ele>
        <time>2011-04-09T07:01:57Z</time>
      </trkpt>
      <trkpt lat="45.54698" lon="4.74147">
        <ele>452</ele>
        <time>2011-04-09T07:02:03Z</time>
      </trkpt>
      <trkpt lat="45.54694" lon="4.74167">
        <ele>453</ele>
        <time>2011-04-09T07:02:10Z</time>
      </trkpt>
      <trkpt lat="45.54692" lon="4.74185">
        <ele>455</ele>
        <time>2011-04-09T07:02:18Z</time>
      </trkpt>
      <trkpt lat="45.54696" lon="4.74199">
        <ele>457</ele>
        <time>2011-04-09T07:02:26Z</time>
      </trkpt>
      <trkpt lat="45.54702" lon="4.74215">
        <ele>459</ele>
        <time>2011-04-09T07:02:35Z</time>
      </trkpt>
      <trkpt lat="45.54704" lon="4.74224">
        <ele>460</ele>
        <time>2011-04-09T07:02:41Z</time>
      </trkpt>
      <trkpt lat="45.54707" lon="4.74242">
        <ele>462</ele>
        <time>2011-04-09T07:02:49Z</time>
      </trkpt>
      <trkpt lat="45.54707" lon="4.74255">
        <ele>463</ele>
        <time>2011-04-09T07:02:55Z</time>
      </trkpt>
      <trkpt lat="45.54707" lon="4.74257">
        <ele>463</ele>
        <time>2011-04-09T07:02:56Z</time>
      </trkpt>
      <trkpt lat="45.54705" lon="4.74274">
        <ele>464</ele>
        <time>2011-04-09T07:03:05Z</time>
      </trkpt>
      <trkpt lat="45.54705" lon="4.74279">
        <ele>465</ele>
        <time>2011-04-09T07:03:07Z</time>
      </trkpt>
      <trkpt lat="45.54705" lon="4.74282">
        <ele>465</ele>
        <time>2011-04-09T07:03:08Z</time>
      </trkpt>
      <trkpt lat="45.54705" lon="4.74297">
        <ele>467</ele>
        <time>2011-04-09T07:03:16Z</time>
      </trkpt>
      <trkpt lat="45.54704" lon="4.74303">
        <ele>467</ele>
        <time>2011-04-09T07:03:19Z</time>
      </trkpt>
      <trkpt lat="45.54703" lon="4.74318">
        <ele>468</ele>
        <time>2011-04-09T07:03:27Z</time>
      </trkpt>
      <trkpt lat="45.54701" lon="4.74322">
        <ele>468</ele>
        <time>2011-04-09T07:03:33Z</time>
      </trkpt>
      <trkpt lat="45.547" lon="4.7432">
        <ele>468</ele>
        <time>2011-04-09T07:03:34Z</time>
      </trkpt>
      <trkpt lat="45.54695" lon="4.74314">
        <ele>468</ele>
        <time>2011-04-09T07:03:41Z</time>
      </trkpt>
      <trkpt lat="45.54693" lon="4.74309">
        <ele>468</ele>
        <time>2011-04-09T07:03:49Z</time>
      </trkpt>
      <trkpt lat="45.54693" lon="4.74309">
        <ele>468</ele>
        <time>2011-04-09T07:04:02Z</time>
      </trkpt>
      <trkpt lat="45.54693" lon="4.74309">
        <ele>468</ele>
        <time>2011-04-09T07:04:17Z</time>
      </trkpt>
      <trkpt lat="45.54693" lon="4.7431">
        <ele>468</ele>
        <time>2011-04-09T07:04:36Z</time>
      </trkpt>
      <trkpt lat="45.54691" lon="4.74307">
        <ele>468</ele>
        <time>2011-04-09T07:04:46Z</time>
      </trkpt>
      <trkpt lat="45.54691" lon="4.74307">
        <ele>467</ele>
        <time>2011-04-09T07:05:05Z</time>
      </trkpt>
      <trkpt lat="45.54691" lon="4.74307">
        <ele>468</ele>
        <time>2011-04-09T07:05:24Z</time>
      </trkpt>
      <trkpt lat="45.54691" lon="4.74308">
        <ele>468</ele>
        <time>2011-04-09T07:05:46Z</time>
      </trkpt>
      <trkpt lat="45.5469" lon="4.74306">
        <ele>468</ele>
        <time>2011-04-09T07:06:07Z</time>
      </trkpt>
      <trkpt lat="45.5469" lon="4.74306">
        <ele>468</ele>
        <time>2011-04-09T07:06:18Z</time>
      </trkpt>
      <trkpt lat="45.5469" lon="4.74306">
        <ele>468</ele>
        <time>2011-04-09T07:06:32Z</time>
      </trkpt>
      <trkpt lat="45.5469" lon="4.74306">
        <ele>468</ele>
        <time>2011-04-09T07:06:49Z</time>
      </trkpt>
      <trkpt lat="45.5469" lon="4.74306">
        <ele>469</ele>
        <time>2011-04-09T07:07:02Z</time>
      </trkpt>
      <trkpt lat="45.5469" lon="4.74306">
        <ele>468</ele>
        <time>2011-04-09T07:07:17Z</time>
      </trkpt>
      <trkpt lat="45.5469" lon="4.74305">
        <ele>468</ele>
        <time>2011-04-09T07:07:21Z</time>
      </trkpt>
      <trkpt lat="45.54683" lon="4.74282">
        <ele>468</ele>
        <time>2011-04-09T07:07:29Z</time>
      </trkpt>
      <trkpt lat="45.54673" lon="4.74265">
        <ele>467</ele>
        <time>2011-04-09T07:07:35Z</time>
      </trkpt>
      <trkpt lat="45.54659" lon="4.74251">
        <ele>468</ele>
        <time>2011-04-09T07:07:43Z</time>
      </trkpt>
      <trkpt lat="45.54645" lon="4.74243">
        <ele>468</ele>
        <time>2011-04-09T07:07:50Z</time>
      </trkpt>
      <trkpt lat="45.54632" lon="4.74233">
        <ele>469</ele>
        <time>2011-04-09T07:07:56Z</time>
      </trkpt>
      <trkpt lat="45.5461" lon="4.74216">
        <ele>471</ele>
        <time>2011-04-09T07:08:04Z</time>
      </trkpt>
      <trkpt lat="45.54596" lon="4.74198">
        <ele>471</ele>
        <time>2011-04-09T07:08:11Z</time>
      </trkpt>
      <trkpt lat="45.5458" lon="4.74165">
        <ele>471</ele>
        <time>2011-04-09T07:08:18Z</time>
      </trkpt>
      <trkpt lat="45.54562" lon="4.74127">
        <ele>472</ele>
        <time>2011-04-09T07:08:26Z</time>
      </trkpt>
      <trkpt lat="45.54548" lon="4.74098">
        <ele>471</ele>
        <time>2011-04-09T07:08:33Z</time>
      </trkpt>
      <trkpt lat="45.54535" lon="4.74079">
        <ele>470</ele>
        <time>2011-04-09T07:08:37Z</time>
      </trkpt>
      <trkpt lat="45.54519" lon="4.74033">
        <ele>468</ele>
        <time>2011-04-09T07:08:42Z</time>
      </trkpt>
      <trkpt lat="45.54502" lon="4.7399">
        <ele>466</ele>
        <time>2011-04-09T07:08:47Z</time>
      </trkpt>
      <trkpt lat="45.54477" lon="4.73928">
        <ele>465</ele>
        <time>2011-04-09T07:08:54Z</time>
      </trkpt>
      <trkpt lat="45.54458" lon="4.73877">
        <ele>464</ele>
        <time>2011-04-09T07:09:01Z</time>
      </trkpt>
      <trkpt lat="45.54442" lon="4.73814">
        <ele>462</ele>
        <time>2011-04-09T07:09:09Z</time>
      </trkpt>
      <trkpt lat="45.54433" lon="4.73787">
        <ele>460</ele>
        <time>2011-04-09T07:09:12Z</time>
      </trkpt>
      <trkpt lat="45.54424" lon="4.73757">
        <ele>458</ele>
        <time>2011-04-09T07:09:15Z</time>
      </trkpt>
      <trkpt lat="45.54409" lon="4.73707">
        <ele>456</ele>
        <time>2011-04-09T07:09:20Z</time>
      </trkpt>
      <trkpt lat="45.54406" lon="4.73699">
        <ele>456</ele>
        <time>2011-04-09T07:09:21Z</time>
      </trkpt>
      <trkpt lat="45.54402" lon="4.73691">
        <ele>456</ele>
        <time>2011-04-09T07:09:22Z</time>
      </trkpt>
      <trkpt lat="45.54397" lon="4.73684">
        <ele>455</ele>
        <time>2011-04-09T07:09:23Z</time>
      </trkpt>
      <trkpt lat="45.54391" lon="4.73679">
        <ele>455</ele>
        <time>2011-04-09T07:09:24Z</time>
      </trkpt>
      <trkpt lat="45.54385" lon="4.73676">
        <ele>455</ele>
        <time>2011-04-09T07:09:25Z</time>
      </trkpt>
      <trkpt lat="45.54379" lon="4.73673">
        <ele>455</ele>
        <time>2011-04-09T07:09:26Z</time>
      </trkpt>
      <trkpt lat="45.54373" lon="4.7367">
        <ele>455</ele>
        <time>2011-04-09T07:09:27Z</time>
      </trkpt>
      <trkpt lat="45.54368" lon="4.73666">
        <ele>455</ele>
        <time>2011-04-09T07:09:28Z</time>
      </trkpt>
      <trkpt lat="45.54364" lon="4.73662">
        <ele>455</ele>
        <time>2011-04-09T07:09:29Z</time>
      </trkpt>
      <trkpt lat="45.54359" lon="4.73657">
        <ele>455</ele>
        <time>2011-04-09T07:09:30Z</time>
      </trkpt>
      <trkpt lat="45.54356" lon="4.73652">
        <ele>455</ele>
        <time>2011-04-09T07:09:31Z</time>
      </trkpt>
      <trkpt lat="45.54353" lon="4.73648">
        <ele>455</ele>
        <time>2011-04-09T07:09:32Z</time>
      </trkpt>
      <trkpt lat="45.54337" lon="4.73628">
        <ele>457</ele>
        <time>2011-04-09T07:09:38Z</time>
      </trkpt>
      <trkpt lat="45.54325" lon="4.73612">
        <ele>459</ele>
        <time>2011-04-09T07:09:43Z</time>
      </trkpt>
      <trkpt lat="45.54308" lon="4.73581">
        <ele>460</ele>
        <time>2011-04-09T07:09:50Z</time>
      </trkpt>
      <trkpt lat="45.54297" lon="4.73556">
        <ele>461</ele>
        <time>2011-04-09T07:09:55Z</time>
      </trkpt>
      <trkpt lat="45.54295" lon="4.7355">
        <ele>461</ele>
        <time>2011-04-09T07:09:56Z</time>
      </trkpt>
      <trkpt lat="45.54282" lon="4.73519">
        <ele>461</ele>
        <time>2011-04-09T07:10:02Z</time>
      </trkpt>
      <trkpt lat="45.54277" lon="4.73507">
        <ele>461</ele>
        <time>2011-04-09T07:10:04Z</time>
      </trkpt>
      <trkpt lat="45.54271" lon="4.73477">
        <ele>460</ele>
        <time>2011-04-09T07:10:08Z</time>
      </trkpt>
      <trkpt lat="45.54268" lon="4.7347">
        <ele>460</ele>
        <time>2011-04-09T07:10:09Z</time>
      </trkpt>
      <trkpt lat="45.54256" lon="4.73433">
        <ele>458</ele>
        <time>2011-04-09T07:10:14Z</time>
      </trkpt>
      <trkpt lat="45.54241" lon="4.73378">
        <ele>455</ele>
        <time>2011-04-09T07:10:20Z</time>
      </trkpt>
      <trkpt lat="45.54235" lon="4.73357">
        <ele>454</ele>
        <time>2011-04-09T07:10:22Z</time>
      </trkpt>
      <trkpt lat="45.5423" lon="4.73337">
        <ele>453</ele>
        <time>2011-04-09T07:10:24Z</time>
      </trkpt>
      <trkpt lat="45.54227" lon="4.73317">
        <ele>451</ele>
        <time>2011-04-09T07:10:26Z</time>
      </trkpt>
      <trkpt lat="45.54219" lon="4.73289">
        <ele>450</ele>
        <time>2011-04-09T07:10:29Z</time>
      </trkpt>
      <trkpt lat="45.54205" lon="4.73249">
        <ele>446</ele>
        <time>2011-04-09T07:10:33Z</time>
      </trkpt>
      <trkpt lat="45.542" lon="4.73228">
        <ele>445</ele>
        <time>2011-04-09T07:10:35Z</time>
      </trkpt>
      <trkpt lat="45.54197" lon="4.73204">
        <ele>443</ele>
        <time>2011-04-09T07:10:37Z</time>
      </trkpt>
      <trkpt lat="45.54197" lon="4.73192">
        <ele>442</ele>
        <time>2011-04-09T07:10:38Z</time>
      </trkpt>
      <trkpt lat="45.54197" lon="4.73178">
        <ele>441</ele>
        <time>2011-04-09T07:10:39Z</time>
      </trkpt>
      <trkpt lat="45.54197" lon="4.73136">
        <ele>437</ele>
        <time>2011-04-09T07:10:42Z</time>
      </trkpt>
      <trkpt lat="45.54191" lon="4.73085">
        <ele>434</ele>
        <time>2011-04-09T07:10:46Z</time>
      </trkpt>
      <trkpt lat="45.54185" lon="4.73039">
        <ele>431</ele>
        <time>2011-04-09T07:10:51Z</time>
      </trkpt>
      <trkpt lat="45.54186" lon="4.73016">
        <ele>431</ele>
        <time>2011-04-09T07:10:55Z</time>
      </trkpt>
      <trkpt lat="45.54194" lon="4.73003">
        <ele>430</ele>
        <time>2011-04-09T07:10:58Z</time>
      </trkpt>
      <trkpt lat="45.54197" lon="4.72977">
        <ele>430</ele>
        <time>2011-04-09T07:11:03Z</time>
      </trkpt>
      <trkpt lat="45.54195" lon="4.72972">
        <ele>430</ele>
        <time>2011-04-09T07:11:04Z</time>
      </trkpt>
      <trkpt lat="45.54176" lon="4.7294">
        <ele>431</ele>
        <time>2011-04-09T07:11:11Z</time>
      </trkpt>
      <trkpt lat="45.54162" lon="4.72923">
        <ele>430</ele>
        <time>2011-04-09T07:11:15Z</time>
      </trkpt>
      <trkpt lat="45.54137" lon="4.72888">
        <ele>431</ele>
        <time>2011-04-09T07:11:23Z</time>
      </trkpt>
      <trkpt lat="45.54121" lon="4.72852">
        <ele>434</ele>
        <time>2011-04-09T07:11:31Z</time>
      </trkpt>
      <trkpt lat="45.54103" lon="4.72804">
        <ele>435</ele>
        <time>2011-04-09T07:11:41Z</time>
      </trkpt>
      <trkpt lat="45.54085" lon="4.72755">
        <ele>436</ele>
        <time>2011-04-09T07:11:51Z</time>
      </trkpt>
      <trkpt lat="45.54066" lon="4.72704">
        <ele>435</ele>
        <time>2011-04-09T07:12:01Z</time>
      </trkpt>
      <trkpt lat="45.54059" lon="4.72686">
        <ele>435</ele>
        <time>2011-04-09T07:12:04Z</time>
      </trkpt>
      <trkpt lat="45.54057" lon="4.7268">
        <ele>434</ele>
        <time>2011-04-09T07:12:05Z</time>
      </trkpt>
      <trkpt lat="45.54047" lon="4.72652">
        <ele>433</ele>
        <time>2011-04-09T07:12:11Z</time>
      </trkpt>
      <trkpt lat="45.54045" lon="4.7265">
        <ele>433</ele>
        <time>2011-04-09T07:12:12Z</time>
      </trkpt>
      <trkpt lat="45.54043" lon="4.7265">
        <ele>433</ele>
        <time>2011-04-09T07:12:13Z</time>
      </trkpt>
      <trkpt lat="45.54041" lon="4.72651">
        <ele>433</ele>
        <time>2011-04-09T07:12:14Z</time>
      </trkpt>
      <trkpt lat="45.54039" lon="4.72653">
        <ele>432</ele>
        <time>2011-04-09T07:12:15Z</time>
      </trkpt>
      <trkpt lat="45.54037" lon="4.72655">
        <ele>432</ele>
        <time>2011-04-09T07:12:16Z</time>
      </trkpt>
      <trkpt lat="45.54034" lon="4.72658">
        <ele>432</ele>
        <time>2011-04-09T07:12:17Z</time>
      </trkpt>
      <trkpt lat="45.54031" lon="4.72661">
        <ele>432</ele>
        <time>2011-04-09T07:12:18Z</time>
      </trkpt>
      <trkpt lat="45.54015" lon="4.7268">
        <ele>431</ele>
        <time>2011-04-09T07:12:25Z</time>
      </trkpt>
      <trkpt lat="45.54006" lon="4.72689">
        <ele>430</ele>
        <time>2011-04-09T07:12:31Z</time>
      </trkpt>
      <trkpt lat="45.54007" lon="4.72688">
        <ele>430</ele>
        <time>2011-04-09T07:12:39Z</time>
      </trkpt>
      <trkpt lat="45.54008" lon="4.72688">
        <ele>430</ele>
        <time>2011-04-09T07:12:44Z</time>
      </trkpt>
      <trkpt lat="45.54016" lon="4.7268">
        <ele>431</ele>
        <time>2011-04-09T07:12:49Z</time>
      </trkpt>
      <trkpt lat="45.5403" lon="4.72661">
        <ele>431</ele>
        <time>2011-04-09T07:12:55Z</time>
      </trkpt>
      <trkpt lat="45.54038" lon="4.72645">
        <ele>432</ele>
        <time>2011-04-09T07:13:00Z</time>
      </trkpt>
      <trkpt lat="45.54037" lon="4.72642">
        <ele>432</ele>
        <time>2011-04-09T07:13:01Z</time>
      </trkpt>
      <trkpt lat="45.54035" lon="4.72638">
        <ele>432</ele>
        <time>2011-04-09T07:13:02Z</time>
      </trkpt>
      <trkpt lat="45.54032" lon="4.72634">
        <ele>432</ele>
        <time>2011-04-09T07:13:03Z</time>
      </trkpt>
      <trkpt lat="45.54028" lon="4.72631">
        <ele>432</ele>
        <time>2011-04-09T07:13:04Z</time>
      </trkpt>
      <trkpt lat="45.54023" lon="4.72629">
        <ele>431</ele>
        <time>2011-04-09T07:13:05Z</time>
      </trkpt>
      <trkpt lat="45.54019" lon="4.72626">
        <ele>431</ele>
        <time>2011-04-09T07:13:06Z</time>
      </trkpt>
      <trkpt lat="45.54013" lon="4.72625">
        <ele>430</ele>
        <time>2011-04-09T07:13:07Z</time>
      </trkpt>
      <trkpt lat="45.54008" lon="4.72624">
        <ele>430</ele>
        <time>2011-04-09T07:13:08Z</time>
      </trkpt>
      <trkpt lat="45.54002" lon="4.72624">
        <ele>430</ele>
        <time>2011-04-09T07:13:09Z</time>
      </trkpt>
      <trkpt lat="45.53947" lon="4.72614">
        <ele>427</ele>
        <time>2011-04-09T07:13:18Z</time>
      </trkpt>
      <trkpt lat="45.5388" lon="4.72607">
        <ele>424</ele>
        <time>2011-04-09T07:13:28Z</time>
      </trkpt>
      <trkpt lat="45.53832" lon="4.72603">
        <ele>422</ele>
        <time>2011-04-09T07:13:36Z</time>
      </trkpt>
      <trkpt lat="45.53773" lon="4.72601">
        <ele>421</ele>
        <time>2011-04-09T07:13:46Z</time>
      </trkpt>
      <trkpt lat="45.53767" lon="4.72602">
        <ele>420</ele>
        <time>2011-04-09T07:13:47Z</time>
      </trkpt>
      <trkpt lat="45.53719" lon="4.72616">
        <ele>419</ele>
        <time>2011-04-09T07:13:56Z</time>
      </trkpt>
      <trkpt lat="45.53679" lon="4.7263">
        <ele>419</ele>
        <time>2011-04-09T07:14:04Z</time>
      </trkpt>
      <trkpt lat="45.5367" lon="4.72634">
        <ele>419</ele>
        <time>2011-04-09T07:14:06Z</time>
      </trkpt>
      <trkpt lat="45.53665" lon="4.72637">
        <ele>419</ele>
        <time>2011-04-09T07:14:07Z</time>
      </trkpt>
      <trkpt lat="45.53635" lon="4.72652">
        <ele>419</ele>
        <time>2011-04-09T07:14:14Z</time>
      </trkpt>
      <trkpt lat="45.5363" lon="4.72653">
        <ele>419</ele>
        <time>2011-04-09T07:14:15Z</time>
      </trkpt>
      <trkpt lat="45.53626" lon="4.72655">
        <ele>419</ele>
        <time>2011-04-09T07:14:16Z</time>
      </trkpt>
      <trkpt lat="45.53621" lon="4.72656">
        <ele>419</ele>
        <time>2011-04-09T07:14:17Z</time>
      </trkpt>
      <trkpt lat="45.53617" lon="4.72658">
        <ele>419</ele>
        <time>2011-04-09T07:14:18Z</time>
      </trkpt>
      <trkpt lat="45.53592" lon="4.72673">
        <ele>418</ele>
        <time>2011-04-09T07:14:24Z</time>
      </trkpt>
      <trkpt lat="45.53576" lon="4.72685">
        <ele>418</ele>
        <time>2011-04-09T07:14:28Z</time>
      </trkpt>
      <trkpt lat="45.53564" lon="4.72696">
        <ele>417</ele>
        <time>2011-04-09T07:14:31Z</time>
      </trkpt>
      <trkpt lat="45.5356" lon="4.727">
        <ele>417</ele>
        <time>2011-04-09T07:14:32Z</time>
      </trkpt>
      <trkpt lat="45.53534" lon="4.72733">
        <ele>417</ele>
        <time>2011-04-09T07:14:39Z</time>
      </trkpt>
      <trkpt lat="45.5353" lon="4.72737">
        <ele>416</ele>
        <time>2011-04-09T07:14:40Z</time>
      </trkpt>
      <trkpt lat="45.53526" lon="4.7274">
        <ele>416</ele>
        <time>2011-04-09T07:14:41Z</time>
      </trkpt>
      <trkpt lat="45.5352" lon="4.72741">
        <ele>415</ele>
        <time>2011-04-09T07:14:42Z</time>
      </trkpt>
      <trkpt lat="45.53515" lon="4.72743">
        <ele>415</ele>
        <time>2011-04-09T07:14:43Z</time>
      </trkpt>
      <trkpt lat="45.53509" lon="4.72745">
        <ele>415</ele>
        <time>2011-04-09T07:14:44Z</time>
      </trkpt>
      <trkpt lat="45.53499" lon="4.7275">
        <ele>415</ele>
        <time>2011-04-09T07:14:46Z</time>
      </trkpt>
      <trkpt lat="45.53483" lon="4.72758">
        <ele>413</ele>
        <time>2011-04-09T07:14:49Z</time>
      </trkpt>
      <trkpt lat="45.53474" lon="4.72762">
        <ele>412</ele>
        <time>2011-04-09T07:14:53Z</time>
      </trkpt>
      <trkpt lat="45.53459" lon="4.72766">
        <ele>411</ele>
        <time>2011-04-09T07:15:01Z</time>
      </trkpt>
      <trkpt lat="45.53446" lon="4.72772">
        <ele>410</ele>
        <time>2011-04-09T07:15:06Z</time>
      </trkpt>
      <trkpt lat="45.53442" lon="4.72775">
        <ele>409</ele>
        <time>2011-04-09T07:15:07Z</time>
      </trkpt>
      <trkpt lat="45.53438" lon="4.72777">
        <ele>409</ele>
        <time>2011-04-09T07:15:08Z</time>
      </trkpt>
      <trkpt lat="45.53434" lon="4.72779">
        <ele>408</ele>
        <time>2011-04-09T07:15:09Z</time>
      </trkpt>
      <trkpt lat="45.53431" lon="4.72782">
        <ele>408</ele>
        <time>2011-04-09T07:15:10Z</time>
      </trkpt>
      <trkpt lat="45.53428" lon="4.72784">
        <ele>407</ele>
        <time>2011-04-09T07:15:11Z</time>
      </trkpt>
      <trkpt lat="45.53424" lon="4.72785">
        <ele>407</ele>
        <time>2011-04-09T07:15:12Z</time>
      </trkpt>
      <trkpt lat="45.5342" lon="4.72785">
        <ele>406</ele>
        <time>2011-04-09T07:15:13Z</time>
      </trkpt>
      <trkpt lat="45.53415" lon="4.72784">
        <ele>405</ele>
        <time>2011-04-09T07:15:14Z</time>
      </trkpt>
      <trkpt lat="45.53412" lon="4.72781">
        <ele>404</ele>
        <time>2011-04-09T07:15:15Z</time>
      </trkpt>
      <trkpt lat="45.53408" lon="4.72776">
        <ele>403</ele>
        <time>2011-04-09T07:15:16Z</time>
      </trkpt>
      <trkpt lat="45.53405" lon="4.7277">
        <ele>403</ele>
        <time>2011-04-09T07:15:17Z</time>
      </trkpt>
      <trkpt lat="45.53402" lon="4.72765">
        <ele>402</ele>
        <time>2011-04-09T07:15:18Z</time>
      </trkpt>
      <trkpt lat="45.53388" lon="4.72741">
        <ele>399</ele>
        <time>2011-04-09T07:15:22Z</time>
      </trkpt>
      <trkpt lat="45.53385" lon="4.72733">
        <ele>398</ele>
        <time>2011-04-09T07:15:23Z</time>
      </trkpt>
      <trkpt lat="45.53382" lon="4.72727">
        <ele>398</ele>
        <time>2011-04-09T07:15:24Z</time>
      </trkpt>
      <trkpt lat="45.53368" lon="4.72704">
        <ele>395</ele>
        <time>2011-04-09T07:15:28Z</time>
      </trkpt>
      <trkpt lat="45.53364" lon="4.72699">
        <ele>394</ele>
        <time>2011-04-09T07:15:29Z</time>
      </trkpt>
      <trkpt lat="45.53359" lon="4.72696">
        <ele>393</ele>
        <time>2011-04-09T07:15:30Z</time>
      </trkpt>
      <trkpt lat="45.53349" lon="4.72694">
        <ele>391</ele>
        <time>2011-04-09T07:15:32Z</time>
      </trkpt>
      <trkpt lat="45.53346" lon="4.72692">
        <ele>390</ele>
        <time>2011-04-09T07:15:33Z</time>
      </trkpt>
      <trkpt lat="45.53344" lon="4.7269">
        <ele>390</ele>
        <time>2011-04-09T07:15:34Z</time>
      </trkpt>
      <trkpt lat="45.53343" lon="4.72687">
        <ele>389</ele>
        <time>2011-04-09T07:15:35Z</time>
      </trkpt>
      <trkpt lat="45.53343" lon="4.72683">
        <ele>389</ele>
        <time>2011-04-09T07:15:36Z</time>
      </trkpt>
      <trkpt lat="45.53343" lon="4.72679">
        <ele>388</ele>
        <time>2011-04-09T07:15:37Z</time>
      </trkpt>
      <trkpt lat="45.53344" lon="4.72675">
        <ele>388</ele>
        <time>2011-04-09T07:15:38Z</time>
      </trkpt>
      <trkpt lat="45.53346" lon="4.72672">
        <ele>388</ele>
        <time>2011-04-09T07:15:39Z</time>
      </trkpt>
      <trkpt lat="45.53348" lon="4.72669">
        <ele>388</ele>
        <time>2011-04-09T07:15:40Z</time>
      </trkpt>
      <trkpt lat="45.5335" lon="4.72666">
        <ele>388</ele>
        <time>2011-04-09T07:15:41Z</time>
      </trkpt>
      <trkpt lat="45.53353" lon="4.72662">
        <ele>388</ele>
        <time>2011-04-09T07:15:42Z</time>
      </trkpt>
      <trkpt lat="45.53363" lon="4.7265">
        <ele>386</ele>
        <time>2011-04-09T07:15:45Z</time>
      </trkpt>
      <trkpt lat="45.53368" lon="4.72648">
        <ele>386</ele>
        <time>2011-04-09T07:15:46Z</time>
      </trkpt>
      <trkpt lat="45.53386" lon="4.72633">
        <ele>385</ele>
        <time>2011-04-09T07:15:52Z</time>
      </trkpt>
      <trkpt lat="45.53382" lon="4.72617">
        <ele>382</ele>
        <time>2011-04-09T07:15:55Z</time>
      </trkpt>
      <trkpt lat="45.53378" lon="4.72606">
        <ele>379</ele>
        <time>2011-04-09T07:15:57Z</time>
      </trkpt>
      <trkpt lat="45.53373" lon="4.72601">
        <ele>376</ele>
        <time>2011-04-09T07:15:59Z</time>
      </trkpt>
      <trkpt lat="45.53369" lon="4.72598">
        <ele>375</ele>
        <time>2011-04-09T07:16:00Z</time>
      </trkpt>
      <trkpt lat="45.53364" lon="4.72596">
        <ele>374</ele>
        <time>2011-04-09T07:16:01Z</time>
      </trkpt>
      <trkpt lat="45.53357" lon="4.72594">
        <ele>372</ele>
        <time>2011-04-09T07:16:02Z</time>
      </trkpt>
      <trkpt lat="45.53337" lon="4.72592">
        <ele>368</ele>
        <time>2011-04-09T07:16:05Z</time>
      </trkpt>
      <trkpt lat="45.53306" lon="4.72592">
        <ele>364</ele>
        <time>2011-04-09T07:16:09Z</time>
      </trkpt>
      <trkpt lat="45.5328" lon="4.72596">
        <ele>361</ele>
        <time>2011-04-09T07:16:13Z</time>
      </trkpt>
      <trkpt lat="45.53275" lon="4.72598">
        <ele>361</ele>
        <time>2011-04-09T07:16:14Z</time>
      </trkpt>
      <trkpt lat="45.5327" lon="4.72601">
        <ele>360</ele>
        <time>2011-04-09T07:16:15Z</time>
      </trkpt>
      <trkpt lat="45.53266" lon="4.72603">
        <ele>359</ele>
        <time>2011-04-09T07:16:16Z</time>
      </trkpt>
      <trkpt lat="45.53261" lon="4.72605">
        <ele>358</ele>
        <time>2011-04-09T07:16:17Z</time>
      </trkpt>
      <trkpt lat="45.53256" lon="4.72607">
        <ele>358</ele>
        <time>2011-04-09T07:16:18Z</time>
      </trkpt>
      <trkpt lat="45.53252" lon="4.7261">
        <ele>356</ele>
        <time>2011-04-09T07:16:19Z</time>
      </trkpt>
      <trkpt lat="45.53249" lon="4.72614">
        <ele>356</ele>
        <time>2011-04-09T07:16:20Z</time>
      </trkpt>
      <trkpt lat="45.53241" lon="4.72629">
        <ele>354</ele>
        <time>2011-04-09T07:16:24Z</time>
      </trkpt>
      <trkpt lat="45.53234" lon="4.72636">
        <ele>353</ele>
        <time>2011-04-09T07:16:26Z</time>
      </trkpt>
      <trkpt lat="45.53225" lon="4.72641">
        <ele>351</ele>
        <time>2011-04-09T07:16:29Z</time>
      </trkpt>
      <trkpt lat="45.53221" lon="4.72643">
        <ele>350</ele>
        <time>2011-04-09T07:16:30Z</time>
      </trkpt>
      <trkpt lat="45.53218" lon="4.72646">
        <ele>349</ele>
        <time>2011-04-09T07:16:31Z</time>
      </trkpt>
      <trkpt lat="45.53215" lon="4.72649">
        <ele>349</ele>
        <time>2011-04-09T07:16:32Z</time>
      </trkpt>
      <trkpt lat="45.53214" lon="4.72653">
        <ele>348</ele>
        <time>2011-04-09T07:16:33Z</time>
      </trkpt>
      <trkpt lat="45.53213" lon="4.72657">
        <ele>348</ele>
        <time>2011-04-09T07:16:34Z</time>
      </trkpt>
      <trkpt lat="45.53212" lon="4.72662">
        <ele>348</ele>
        <time>2011-04-09T07:16:35Z</time>
      </trkpt>
      <trkpt lat="45.53212" lon="4.72666">
        <ele>348</ele>
        <time>2011-04-09T07:16:36Z</time>
      </trkpt>
      <trkpt lat="45.53212" lon="4.72671">
        <ele>347</ele>
        <time>2011-04-09T07:16:37Z</time>
      </trkpt>
      <trkpt lat="45.53211" lon="4.72676">
        <ele>347</ele>
        <time>2011-04-09T07:16:38Z</time>
      </trkpt>
      <trkpt lat="45.53211" lon="4.7268">
        <ele>346</ele>
        <time>2011-04-09T07:16:39Z</time>
      </trkpt>
      <trkpt lat="45.53212" lon="4.72701">
        <ele>345</ele>
        <time>2011-04-09T07:16:44Z</time>
      </trkpt>
      <trkpt lat="45.53213" lon="4.7272">
        <ele>343</ele>
        <time>2011-04-09T07:16:48Z</time>
      </trkpt>
      <trkpt lat="45.53212" lon="4.72733">
        <ele>341</ele>
        <time>2011-04-09T07:16:50Z</time>
      </trkpt>
      <trkpt lat="45.53209" lon="4.72753">
        <ele>340</ele>
        <time>2011-04-09T07:16:53Z</time>
      </trkpt>
      <trkpt lat="45.53209" lon="4.72765">
        <ele>339</ele>
        <time>2011-04-09T07:16:56Z</time>
      </trkpt>
      <trkpt lat="45.53208" lon="4.72765">
        <ele>338</ele>
        <time>2011-04-09T07:16:57Z</time>
      </trkpt>
      <trkpt lat="45.53207" lon="4.72763">
        <ele>338</ele>
        <time>2011-04-09T07:16:58Z</time>
      </trkpt>
      <trkpt lat="45.53206" lon="4.7276">
        <ele>338</ele>
        <time>2011-04-09T07:16:59Z</time>
      </trkpt>
      <trkpt lat="45.53205" lon="4.72756">
        <ele>338</ele>
        <time>2011-04-09T07:17:00Z</time>
      </trkpt>
      <trkpt lat="45.53204" lon="4.72753">
        <ele>338</ele>
        <time>2011-04-09T07:17:01Z</time>
      </trkpt>
      <trkpt lat="45.53205" lon="4.72749">
        <ele>338</ele>
        <time>2011-04-09T07:17:02Z</time>
      </trkpt>
      <trkpt lat="45.53205" lon="4.72745">
        <ele>338</ele>
        <time>2011-04-09T07:17:03Z</time>
      </trkpt>
      <trkpt lat="45.53206" lon="4.72741">
        <ele>338</ele>
        <time>2011-04-09T07:17:04Z</time>
      </trkpt>
      <trkpt lat="45.53206" lon="4.72738">
        <ele>338</ele>
        <time>2011-04-09T07:17:05Z</time>
      </trkpt>
      <trkpt lat="45.53205" lon="4.72734">
        <ele>338</ele>
        <time>2011-04-09T07:17:06Z</time>
      </trkpt>
      <trkpt lat="45.53205" lon="4.72731">
        <ele>338</ele>
        <time>2011-04-09T07:17:07Z</time>
      </trkpt>
      <trkpt lat="45.53204" lon="4.72727">
        <ele>338</ele>
        <time>2011-04-09T07:17:08Z</time>
      </trkpt>
      <trkpt lat="45.53202" lon="4.72723">
        <ele>338</ele>
        <time>2011-04-09T07:17:09Z</time>
      </trkpt>
      <trkpt lat="45.53201" lon="4.72719">
        <ele>338</ele>
        <time>2011-04-09T07:17:10Z</time>
      </trkpt>
      <trkpt lat="45.532" lon="4.72715">
        <ele>338</ele>
        <time>2011-04-09T07:17:11Z</time>
      </trkpt>
      <trkpt lat="45.53199" lon="4.72711">
        <ele>338</ele>
        <time>2011-04-09T07:17:12Z</time>
      </trkpt>
      <trkpt lat="45.53185" lon="4.7268">
        <ele>338</ele>
        <time>2011-04-09T07:17:21Z</time>
      </trkpt>
      <trkpt lat="45.53174" lon="4.72661">
        <ele>338</ele>
        <time>2011-04-09T07:17:27Z</time>
      </trkpt>
      <trkpt lat="45.53162" lon="4.7264">
        <ele>338</ele>
        <time>2011-04-09T07:17:33Z</time>
      </trkpt>
      <trkpt lat="45.53149" lon="4.72616">
        <ele>334</ele>
        <time>2011-04-09T07:17:38Z</time>
      </trkpt>
      <trkpt lat="45.53143" lon="4.72603">
        <ele>333</ele>
        <time>2011-04-09T07:17:40Z</time>
      </trkpt>
      <trkpt lat="45.53141" lon="4.72595">
        <ele>332</ele>
        <time>2011-04-09T07:17:41Z</time>
      </trkpt>
      <trkpt lat="45.5314" lon="4.72587">
        <ele>332</ele>
        <time>2011-04-09T07:17:42Z</time>
      </trkpt>
      <trkpt lat="45.5313" lon="4.72542">
        <ele>331</ele>
        <time>2011-04-09T07:17:49Z</time>
      </trkpt>
      <trkpt lat="45.53127" lon="4.72533">
        <ele>331</ele>
        <time>2011-04-09T07:17:54Z</time>
      </trkpt>
      <trkpt lat="45.53123" lon="4.72529">
        <ele>331</ele>
        <time>2011-04-09T07:18:00Z</time>
      </trkpt>
      <trkpt lat="45.53123" lon="4.72529">
        <ele>331</ele>
        <time>2011-04-09T07:18:09Z</time>
      </trkpt>
      <trkpt lat="45.53121" lon="4.72529">
        <ele>330</ele>
        <time>2011-04-09T07:18:19Z</time>
      </trkpt>
      <trkpt lat="45.53121" lon="4.72529">
        <ele>330</ele>
        <time>2011-04-09T07:18:29Z</time>
      </trkpt>
      <trkpt lat="45.53117" lon="4.72528">
        <ele>330</ele>
        <time>2011-04-09T07:18:38Z</time>
      </trkpt>
      <trkpt lat="45.53116" lon="4.72527">
        <ele>331</ele>
        <time>2011-04-09T07:18:41Z</time>
      </trkpt>
      <trkpt lat="45.53113" lon="4.72524">
        <ele>331</ele>
        <time>2011-04-09T07:18:47Z</time>
      </trkpt>
      <trkpt lat="45.53112" lon="4.72524">
        <ele>331</ele>
        <time>2011-04-09T07:18:56Z</time>
      </trkpt>
      <trkpt lat="45.53112" lon="4.72524">
        <ele>331</ele>
        <time>2011-04-09T07:19:06Z</time>
      </trkpt>
      <trkpt lat="45.5311" lon="4.72518">
        <ele>331</ele>
        <time>2011-04-09T07:19:16Z</time>
      </trkpt>
      <trkpt lat="45.53105" lon="4.72501">
        <ele>331</ele>
        <time>2011-04-09T07:19:23Z</time>
      </trkpt>
      <trkpt lat="45.53099" lon="4.72487">
        <ele>332</ele>
        <time>2011-04-09T07:19:30Z</time>
      </trkpt>
      <trkpt lat="45.53093" lon="4.72466">
        <ele>331</ele>
        <time>2011-04-09T07:19:39Z</time>
      </trkpt>
      <trkpt lat="45.53089" lon="4.72447">
        <ele>330</ele>
        <time>2011-04-09T07:19:46Z</time>
      </trkpt>
      <trkpt lat="45.53085" lon="4.72429">
        <ele>329</ele>
        <time>2011-04-09T07:19:52Z</time>
      </trkpt>
      <trkpt lat="45.5308" lon="4.72413">
        <ele>329</ele>
        <time>2011-04-09T07:19:58Z</time>
      </trkpt>
      <trkpt lat="45.53075" lon="4.72393">
        <ele>329</ele>
        <time>2011-04-09T07:20:04Z</time>
      </trkpt>
      <trkpt lat="45.53062" lon="4.72366">
        <ele>327</ele>
        <time>2011-04-09T07:20:10Z</time>
      </trkpt>
      <trkpt lat="45.53055" lon="4.72348">
        <ele>328</ele>
        <time>2011-04-09T07:20:16Z</time>
      </trkpt>
      <trkpt lat="45.53043" lon="4.72332">
        <ele>329</ele>
        <time>2011-04-09T07:20:24Z</time>
      </trkpt>
      <trkpt lat="45.53032" lon="4.72325">
        <ele>330</ele>
        <time>2011-04-09T07:20:30Z</time>
      </trkpt>
      <trkpt lat="45.53024" lon="4.72319">
        <ele>332</ele>
        <time>2011-04-09T07:20:37Z</time>
      </trkpt>
      <trkpt lat="45.53013" lon="4.72309">
        <ele>334</ele>
        <time>2011-04-09T07:20:45Z</time>
      </trkpt>
      <trkpt lat="45.53006" lon="4.72305">
        <ele>336</ele>
        <time>2011-04-09T07:20:50Z</time>
      </trkpt>
      <trkpt lat="45.53005" lon="4.72303">
        <ele>336</ele>
        <time>2011-04-09T07:20:51Z</time>
      </trkpt>
      <trkpt lat="45.53004" lon="4.72302">
        <ele>336</ele>
        <time>2011-04-09T07:20:52Z</time>
      </trkpt>
      <trkpt lat="45.52995" lon="4.72293">
        <ele>339</ele>
        <time>2011-04-09T07:21:00Z</time>
      </trkpt>
      <trkpt lat="45.52992" lon="4.72291">
        <ele>339</ele>
        <time>2011-04-09T07:21:02Z</time>
      </trkpt>
      <trkpt lat="45.52988" lon="4.72285">
        <ele>341</ele>
        <time>2011-04-09T07:21:06Z</time>
      </trkpt>
      <trkpt lat="45.52987" lon="4.72283">
        <ele>342</ele>
        <time>2011-04-09T07:21:13Z</time>
      </trkpt>
      <trkpt lat="45.52984" lon="4.72278">
        <ele>344</ele>
        <time>2011-04-09T07:21:21Z</time>
      </trkpt>
      <trkpt lat="45.52981" lon="4.72273">
        <ele>345</ele>
        <time>2011-04-09T07:21:28Z</time>
      </trkpt>
      <trkpt lat="45.52976" lon="4.72269">
        <ele>346</ele>
        <time>2011-04-09T07:21:35Z</time>
      </trkpt>
      <trkpt lat="45.52974" lon="4.72262">
        <ele>348</ele>
        <time>2011-04-09T07:21:43Z</time>
      </trkpt>
      <trkpt lat="45.5297" lon="4.72259">
        <ele>349</ele>
        <time>2011-04-09T07:21:50Z</time>
      </trkpt>
      <trkpt lat="45.52969" lon="4.72258">
        <ele>349</ele>
        <time>2011-04-09T07:21:59Z</time>
      </trkpt>
      <trkpt lat="45.52965" lon="4.72254">
        <ele>350</ele>
        <time>2011-04-09T07:22:08Z</time>
      </trkpt>
      <trkpt lat="45.52958" lon="4.7225">
        <ele>351</ele>
        <time>2011-04-09T07:22:13Z</time>
      </trkpt>
      <trkpt lat="45.52948" lon="4.72256">
        <ele>353</ele>
        <time>2011-04-09T07:22:20Z</time>
      </trkpt>
      <trkpt lat="45.52948" lon="4.72268">
        <ele>355</ele>
        <time>2011-04-09T07:22:26Z</time>
      </trkpt>
      <trkpt lat="45.52948" lon="4.72273">
        <ele>355</ele>
        <time>2011-04-09T07:22:31Z</time>
      </trkpt>
      <trkpt lat="45.52948" lon="4.72278">
        <ele>357</ele>
        <time>2011-04-09T07:22:37Z</time>
      </trkpt>
      <trkpt lat="45.52947" lon="4.72285">
        <ele>358</ele>
        <time>2011-04-09T07:22:44Z</time>
      </trkpt>
      <trkpt lat="45.52946" lon="4.72292">
        <ele>359</ele>
        <time>2011-04-09T07:22:52Z</time>
      </trkpt>
      <trkpt lat="45.52946" lon="4.72295">
        <ele>360</ele>
        <time>2011-04-09T07:22:55Z</time>
      </trkpt>
      <trkpt lat="45.52945" lon="4.72306">
        <ele>362</ele>
        <time>2011-04-09T07:23:04Z</time>
      </trkpt>
      <trkpt lat="45.52943" lon="4.72314">
        <ele>364</ele>
        <time>2011-04-09T07:23:12Z</time>
      </trkpt>
      <trkpt lat="45.52943" lon="4.72315">
        <ele>364</ele>
        <time>2011-04-09T07:23:21Z</time>
      </trkpt>
      <trkpt lat="45.52942" lon="4.72318">
        <ele>364</ele>
        <time>2011-04-09T07:23:24Z</time>
      </trkpt>
      <trkpt lat="45.52936" lon="4.72329">
        <ele>365</ele>
        <time>2011-04-09T07:23:31Z</time>
      </trkpt>
      <trkpt lat="45.52934" lon="4.72347">
        <ele>367</ele>
        <time>2011-04-09T07:23:41Z</time>
      </trkpt>
      <trkpt lat="45.52931" lon="4.72366">
        <ele>369</ele>
        <time>2011-04-09T07:23:51Z</time>
      </trkpt>
      <trkpt lat="45.52924" lon="4.72381">
        <ele>371</ele>
        <time>2011-04-09T07:24:00Z</time>
      </trkpt>
      <trkpt lat="45.52919" lon="4.72395">
        <ele>372</ele>
        <time>2011-04-09T07:24:08Z</time>
      </trkpt>
      <trkpt lat="45.52916" lon="4.72409">
        <ele>374</ele>
        <time>2011-04-09T07:24:16Z</time>
      </trkpt>
      <trkpt lat="45.52909" lon="4.72421">
        <ele>374</ele>
        <time>2011-04-09T07:24:24Z</time>
      </trkpt>
      <trkpt lat="45.529" lon="4.72436">
        <ele>376</ele>
        <time>2011-04-09T07:24:33Z</time>
      </trkpt>
      <trkpt lat="45.52893" lon="4.72445">
        <ele>375</ele>
        <time>2011-04-09T07:24:39Z</time>
      </trkpt>
      <trkpt lat="45.5288" lon="4.72457">
        <ele>375</ele>
        <time>2011-04-09T07:24:48Z</time>
      </trkpt>
      <trkpt lat="45.52868" lon="4.72463">
        <ele>375</ele>
        <time>2011-04-09T07:24:55Z</time>
      </trkpt>
      <trkpt lat="45.5286" lon="4.72469">
        <ele>374</ele>
        <time>2011-04-09T07:25:00Z</time>
      </trkpt>
      <trkpt lat="45.52847" lon="4.72472">
        <ele>373</ele>
        <time>2011-04-09T07:25:08Z</time>
      </trkpt>
      <trkpt lat="45.52834" lon="4.72478">
        <ele>372</ele>
        <time>2011-04-09T07:25:13Z</time>
      </trkpt>
      <trkpt lat="45.52822" lon="4.72488">
        <ele>371</ele>
        <time>2011-04-09T07:25:20Z</time>
      </trkpt>
      <trkpt lat="45.5281" lon="4.72499">
        <ele>370</ele>
        <time>2011-04-09T07:25:26Z</time>
      </trkpt>
      <trkpt lat="45.52803" lon="4.72521">
        <ele>369</ele>
        <time>2011-04-09T07:25:32Z</time>
      </trkpt>
      <trkpt lat="45.52804" lon="4.72541">
        <ele>367</ele>
        <time>2011-04-09T07:25:38Z</time>
      </trkpt>
      <trkpt lat="45.52803" lon="4.72569">
        <ele>367</ele>
        <time>2011-04-09T07:25:45Z</time>
      </trkpt>
      <trkpt lat="45.528" lon="4.72612">
        <ele>365</ele>
        <time>2011-04-09T07:25:54Z</time>
      </trkpt>
      <trkpt lat="45.52799" lon="4.72614">
        <ele>364</ele>
        <time>2011-04-09T07:25:55Z</time>
      </trkpt>
      <trkpt lat="45.52784" lon="4.72607">
        <ele>365</ele>
        <time>2011-04-09T07:26:01Z</time>
      </trkpt>
      <trkpt lat="45.52762" lon="4.72577">
        <ele>365</ele>
        <time>2011-04-09T07:26:08Z</time>
      </trkpt>
      <trkpt lat="45.52744" lon="4.72544">
        <ele>365</ele>
        <time>2011-04-09T07:26:15Z</time>
      </trkpt>
      <trkpt lat="45.52731" lon="4.72527">
        <ele>365</ele>
        <time>2011-04-09T07:26:22Z</time>
      </trkpt>
      <trkpt lat="45.52715" lon="4.72508">
        <ele>365</ele>
        <time>2011-04-09T07:26:29Z</time>
      </trkpt>
      <trkpt lat="45.5269" lon="4.725">
        <ele>364</ele>
        <time>2011-04-09T07:26:35Z</time>
      </trkpt>
      <trkpt lat="45.52685" lon="4.72499">
        <ele>363</ele>
        <time>2011-04-09T07:26:36Z</time>
      </trkpt>
      <trkpt lat="45.52674" lon="4.725">
        <ele>363</ele>
        <time>2011-04-09T07:26:38Z</time>
      </trkpt>
      <trkpt lat="45.52669" lon="4.72503">
        <ele>363</ele>
        <time>2011-04-09T07:26:39Z</time>
      </trkpt>
      <trkpt lat="45.52648" lon="4.72515">
        <ele>361</ele>
        <time>2011-04-09T07:26:43Z</time>
      </trkpt>
      <trkpt lat="45.52642" lon="4.72518">
        <ele>360</ele>
        <time>2011-04-09T07:26:44Z</time>
      </trkpt>
      <trkpt lat="45.52637" lon="4.7252">
        <ele>360</ele>
        <time>2011-04-09T07:26:45Z</time>
      </trkpt>
      <trkpt lat="45.52626" lon="4.72526">
        <ele>358</ele>
        <time>2011-04-09T07:26:47Z</time>
      </trkpt>
      <trkpt lat="45.526" lon="4.72535">
        <ele>356</ele>
        <time>2011-04-09T07:26:51Z</time>
      </trkpt>
      <trkpt lat="45.52594" lon="4.72532">
        <ele>355</ele>
        <time>2011-04-09T07:26:52Z</time>
      </trkpt>
      <trkpt lat="45.52589" lon="4.72526">
        <ele>355</ele>
        <time>2011-04-09T07:26:53Z</time>
      </trkpt>
      <trkpt lat="45.52581" lon="4.72513">
        <ele>355</ele>
        <time>2011-04-09T07:26:55Z</time>
      </trkpt>
      <trkpt lat="45.5258" lon="4.72507">
        <ele>355</ele>
        <time>2011-04-09T07:26:56Z</time>
      </trkpt>
      <trkpt lat="45.52578" lon="4.7248">
        <ele>356</ele>
        <time>2011-04-09T07:27:02Z</time>
      </trkpt>
      <trkpt lat="45.52585" lon="4.72469">
        <ele>356</ele>
        <time>2011-04-09T07:27:05Z</time>
      </trkpt>
      <trkpt lat="45.52602" lon="4.72455">
        <ele>357</ele>
        <time>2011-04-09T07:27:10Z</time>
      </trkpt>
      <trkpt lat="45.52626" lon="4.7243">
        <ele>357</ele>
        <time>2011-04-09T07:27:19Z</time>
      </trkpt>
      <trkpt lat="45.52646" lon="4.72412">
        <ele>357</ele>
        <time>2011-04-09T07:27:26Z</time>
      </trkpt>
      <trkpt lat="45.5267" lon="4.72391">
        <ele>358</ele>
        <time>2011-04-09T07:27:34Z</time>
      </trkpt>
      <trkpt lat="45.52687" lon="4.72369">
        <ele>359</ele>
        <time>2011-04-09T07:27:41Z</time>
      </trkpt>
      <trkpt lat="45.52714" lon="4.72332">
        <ele>361</ele>
        <time>2011-04-09T07:27:53Z</time>
      </trkpt>
      <trkpt lat="45.52728" lon="4.72313">
        <ele>362</ele>
        <time>2011-04-09T07:28:00Z</time>
      </trkpt>
      <trkpt lat="45.52745" lon="4.72287">
        <ele>364</ele>
        <time>2011-04-09T07:28:09Z</time>
      </trkpt>
      <trkpt lat="45.52752" lon="4.72258">
        <ele>366</ele>
        <time>2011-04-09T07:28:17Z</time>
      </trkpt>
      <trkpt lat="45.52752" lon="4.72239">
        <ele>367</ele>
        <time>2011-04-09T07:28:23Z</time>
      </trkpt>
      <trkpt lat="45.52754" lon="4.72204">
        <ele>368</ele>
        <time>2011-04-09T07:28:33Z</time>
      </trkpt>
      <trkpt lat="45.52762" lon="4.72171">
        <ele>371</ele>
        <time>2011-04-09T07:28:44Z</time>
      </trkpt>
      <trkpt lat="45.52765" lon="4.72159">
        <ele>372</ele>
        <time>2011-04-09T07:28:50Z</time>
      </trkpt>
      <trkpt lat="45.52771" lon="4.72132">
        <ele>374</ele>
        <time>2011-04-09T07:29:01Z</time>
      </trkpt>
      <trkpt lat="45.52773" lon="4.72114">
        <ele>376</ele>
        <time>2011-04-09T07:29:09Z</time>
      </trkpt>
      <trkpt lat="45.52768" lon="4.72104">
        <ele>376</ele>
        <time>2011-04-09T07:29:16Z</time>
      </trkpt>
      <trkpt lat="45.52767" lon="4.72104">
        <ele>376</ele>
        <time>2011-04-09T07:29:17Z</time>
      </trkpt>
      <trkpt lat="45.52765" lon="4.72105">
        <ele>376</ele>
        <time>2011-04-09T07:29:18Z</time>
      </trkpt>
      <trkpt lat="45.52764" lon="4.72105">
        <ele>376</ele>
        <time>2011-04-09T07:29:19Z</time>
      </trkpt>
      <trkpt lat="45.52762" lon="4.72106">
        <ele>376</ele>
        <time>2011-04-09T07:29:20Z</time>
      </trkpt>
      <trkpt lat="45.52761" lon="4.72107">
        <ele>376</ele>
        <time>2011-04-09T07:29:21Z</time>
      </trkpt>
      <trkpt lat="45.52759" lon="4.72108">
        <ele>377</ele>
        <time>2011-04-09T07:29:22Z</time>
      </trkpt>
      <trkpt lat="45.52744" lon="4.72113">
        <ele>378</ele>
        <time>2011-04-09T07:29:31Z</time>
      </trkpt>
      <trkpt lat="45.52728" lon="4.72119">
        <ele>379</ele>
        <time>2011-04-09T07:29:40Z</time>
      </trkpt>
      <trkpt lat="45.52713" lon="4.72124">
        <ele>381</ele>
        <time>2011-04-09T07:29:49Z</time>
      </trkpt>
      <trkpt lat="45.52695" lon="4.7213">
        <ele>382</ele>
        <time>2011-04-09T07:29:59Z</time>
      </trkpt>
      <trkpt lat="45.52681" lon="4.72134">
        <ele>383</ele>
        <time>2011-04-09T07:30:06Z</time>
      </trkpt>
      <trkpt lat="45.52652" lon="4.72143">
        <ele>385</ele>
        <time>2011-04-09T07:30:17Z</time>
      </trkpt>
      <trkpt lat="45.52629" lon="4.72152">
        <ele>386</ele>
        <time>2011-04-09T07:30:26Z</time>
      </trkpt>
      <trkpt lat="45.52605" lon="4.72167">
        <ele>387</ele>
        <time>2011-04-09T07:30:35Z</time>
      </trkpt>
      <trkpt lat="45.52583" lon="4.72184">
        <ele>386</ele>
        <time>2011-04-09T07:30:43Z</time>
      </trkpt>
      <trkpt lat="45.52546" lon="4.72212">
        <ele>385</ele>
        <time>2011-04-09T07:30:53Z</time>
      </trkpt>
      <trkpt lat="45.52541" lon="4.72215">
        <ele>385</ele>
        <time>2011-04-09T07:30:54Z</time>
      </trkpt>
      <trkpt lat="45.52533" lon="4.72221">
        <ele>384</ele>
        <time>2011-04-09T07:30:56Z</time>
      </trkpt>
      <trkpt lat="45.52528" lon="4.72224">
        <ele>385</ele>
        <time>2011-04-09T07:30:57Z</time>
      </trkpt>
      <trkpt lat="45.52497" lon="4.72244">
        <ele>384</ele>
        <time>2011-04-09T07:31:05Z</time>
      </trkpt>
      <trkpt lat="45.52479" lon="4.72249">
        <ele>385</ele>
        <time>2011-04-09T07:31:11Z</time>
      </trkpt>
      <trkpt lat="45.52448" lon="4.72255">
        <ele>386</ele>
        <time>2011-04-09T07:31:20Z</time>
      </trkpt>
      <trkpt lat="45.52417" lon="4.7226">
        <ele>387</ele>
        <time>2011-04-09T07:31:29Z</time>
      </trkpt>
      <trkpt lat="45.52386" lon="4.72264">
        <ele>389</ele>
        <time>2011-04-09T07:31:39Z</time>
      </trkpt>
      <trkpt lat="45.52359" lon="4.72268">
        <ele>392</ele>
        <time>2011-04-09T07:31:48Z</time>
      </trkpt>
      <trkpt lat="45.52329" lon="4.72274">
        <ele>395</ele>
        <time>2011-04-09T07:31:58Z</time>
      </trkpt>
      <trkpt lat="45.52295" lon="4.72281">
        <ele>398</ele>
        <time>2011-04-09T07:32:09Z</time>
      </trkpt>
      <trkpt lat="45.52269" lon="4.72287">
        <ele>401</ele>
        <time>2011-04-09T07:32:18Z</time>
      </trkpt>
      <trkpt lat="45.52242" lon="4.72295">
        <ele>402</ele>
        <time>2011-04-09T07:32:27Z</time>
      </trkpt>
      <trkpt lat="45.52213" lon="4.72308">
        <ele>402</ele>
        <time>2011-04-09T07:32:37Z</time>
      </trkpt>
      <trkpt lat="45.52183" lon="4.72319">
        <ele>403</ele>
        <time>2011-04-09T07:32:47Z</time>
      </trkpt>
      <trkpt lat="45.52149" lon="4.72318">
        <ele>404</ele>
        <time>2011-04-09T07:32:56Z</time>
      </trkpt>
      <trkpt lat="45.52107" lon="4.72315">
        <ele>404</ele>
        <time>2011-04-09T07:33:07Z</time>
      </trkpt>
      <trkpt lat="45.5206" lon="4.72305">
        <ele>406</ele>
        <time>2011-04-09T07:33:20Z</time>
      </trkpt>
      <trkpt lat="45.52021" lon="4.7229">
        <ele>407</ele>
        <time>2011-04-09T07:33:31Z</time>
      </trkpt>
      <trkpt lat="45.51989" lon="4.7228">
        <ele>408</ele>
        <time>2011-04-09T07:33:40Z</time>
      </trkpt>
      <trkpt lat="45.51949" lon="4.72269">
        <ele>409</ele>
        <time>2011-04-09T07:33:51Z</time>
      </trkpt>
      <trkpt lat="45.51915" lon="4.72258">
        <ele>409</ele>
        <time>2011-04-09T07:34:00Z</time>
      </trkpt>
      <trkpt lat="45.51875" lon="4.72242">
        <ele>409</ele>
        <time>2011-04-09T07:34:09Z</time>
      </trkpt>
      <trkpt lat="45.51823" lon="4.72221">
        <ele>409</ele>
        <time>2011-04-09T07:34:20Z</time>
      </trkpt>
      <trkpt lat="45.51772" lon="4.72202">
        <ele>409</ele>
        <time>2011-04-09T07:34:30Z</time>
      </trkpt>
      <trkpt lat="45.51719" lon="4.72183">
        <ele>409</ele>
        <time>2011-04-09T07:34:40Z</time>
      </trkpt>
      <trkpt lat="45.51708" lon="4.72181">
        <ele>409</ele>
        <time>2011-04-09T07:34:42Z</time>
      </trkpt>
      <trkpt lat="45.51662" lon="4.72178">
        <ele>409</ele>
        <time>2011-04-09T07:34:50Z</time>
      </trkpt>
      <trkpt lat="45.51605" lon="4.72179">
        <ele>411</ele>
        <time>2011-04-09T07:35:01Z</time>
      </trkpt>
      <trkpt lat="45.51596" lon="4.7218">
        <ele>412</ele>
        <time>2011-04-09T07:35:03Z</time>
      </trkpt>
      <trkpt lat="45.51592" lon="4.72182">
        <ele>411</ele>
        <time>2011-04-09T07:35:04Z</time>
      </trkpt>
      <trkpt lat="45.51568" lon="4.72198">
        <ele>413</ele>
        <time>2011-04-09T07:35:11Z</time>
      </trkpt>
      <trkpt lat="45.51567" lon="4.72201">
        <ele>413</ele>
        <time>2011-04-09T07:35:12Z</time>
      </trkpt>
      <trkpt lat="45.51567" lon="4.72204">
        <ele>413</ele>
        <time>2011-04-09T07:35:13Z</time>
      </trkpt>
      <trkpt lat="45.51567" lon="4.72208">
        <ele>413</ele>
        <time>2011-04-09T07:35:14Z</time>
      </trkpt>
      <trkpt lat="45.51568" lon="4.72212">
        <ele>413</ele>
        <time>2011-04-09T07:35:15Z</time>
      </trkpt>
      <trkpt lat="45.5157" lon="4.72215">
        <ele>413</ele>
        <time>2011-04-09T07:35:16Z</time>
      </trkpt>
      <trkpt lat="45.51572" lon="4.72218">
        <ele>414</ele>
        <time>2011-04-09T07:35:17Z</time>
      </trkpt>
      <trkpt lat="45.51593" lon="4.72252">
        <ele>414</ele>
        <time>2011-04-09T07:35:25Z</time>
      </trkpt>
      <trkpt lat="45.51598" lon="4.72284">
        <ele>416</ele>
        <time>2011-04-09T07:35:32Z</time>
      </trkpt>
      <trkpt lat="45.51588" lon="4.72312">
        <ele>419</ele>
        <time>2011-04-09T07:35:39Z</time>
      </trkpt>
      <trkpt lat="45.51566" lon="4.72349">
        <ele>420</ele>
        <time>2011-04-09T07:35:50Z</time>
      </trkpt>
      <trkpt lat="45.5155" lon="4.72385">
        <ele>421</ele>
        <time>2011-04-09T07:36:00Z</time>
      </trkpt>
      <trkpt lat="45.51535" lon="4.72419">
        <ele>423</ele>
        <time>2011-04-09T07:36:09Z</time>
      </trkpt>
      <trkpt lat="45.5152" lon="4.72461">
        <ele>425</ele>
        <time>2011-04-09T07:36:20Z</time>
      </trkpt>
      <trkpt lat="45.51516" lon="4.72498">
        <ele>426</ele>
        <time>2011-04-09T07:36:29Z</time>
      </trkpt>
      <trkpt lat="45.51524" lon="4.7253">
        <ele>428</ele>
        <time>2011-04-09T07:36:37Z</time>
      </trkpt>
      <trkpt lat="45.51545" lon="4.72549">
        <ele>429</ele>
        <time>2011-04-09T07:36:45Z</time>
      </trkpt>
      <trkpt lat="45.51582" lon="4.72564">
        <ele>430</ele>
        <time>2011-04-09T07:36:57Z</time>
      </trkpt>
      <trkpt lat="45.51608" lon="4.7258">
        <ele>431</ele>
        <time>2011-04-09T07:37:06Z</time>
      </trkpt>
      <trkpt lat="45.51627" lon="4.7261">
        <ele>433</ele>
        <time>2011-04-09T07:37:15Z</time>
      </trkpt>
      <trkpt lat="45.51634" lon="4.72652">
        <ele>433</ele>
        <time>2011-04-09T07:37:24Z</time>
      </trkpt>
      <trkpt lat="45.51633" lon="4.72708">
        <ele>433</ele>
        <time>2011-04-09T07:37:36Z</time>
      </trkpt>
      <trkpt lat="45.5163" lon="4.72763">
        <ele>435</ele>
        <time>2011-04-09T07:37:46Z</time>
      </trkpt>
      <trkpt lat="45.51628" lon="4.72827">
        <ele>436</ele>
        <time>2011-04-09T07:37:58Z</time>
      </trkpt>
      <trkpt lat="45.51626" lon="4.72892">
        <ele>438</ele>
        <time>2011-04-09T07:38:10Z</time>
      </trkpt>
      <trkpt lat="45.51624" lon="4.72956">
        <ele>439</ele>
        <time>2011-04-09T07:38:22Z</time>
      </trkpt>
      <trkpt lat="45.51623" lon="4.72999">
        <ele>440</ele>
        <time>2011-04-09T07:38:31Z</time>
      </trkpt>
      <trkpt lat="45.51621" lon="4.73063">
        <ele>442</ele>
        <time>2011-04-09T07:38:45Z</time>
      </trkpt>
      <trkpt lat="45.51619" lon="4.7311">
        <ele>443</ele>
        <time>2011-04-09T07:38:55Z</time>
      </trkpt>
      <trkpt lat="45.51617" lon="4.73164">
        <ele>446</ele>
        <time>2011-04-09T07:39:07Z</time>
      </trkpt>
      <trkpt lat="45.51617" lon="4.73208">
        <ele>448</ele>
        <time>2011-04-09T07:39:17Z</time>
      </trkpt>
      <trkpt lat="45.51626" lon="4.7324">
        <ele>449</ele>
        <time>2011-04-09T07:39:25Z</time>
      </trkpt>
      <trkpt lat="45.51643" lon="4.73258">
        <ele>450</ele>
        <time>2011-04-09T07:39:32Z</time>
      </trkpt>
      <trkpt lat="45.51669" lon="4.73281">
        <ele>451</ele>
        <time>2011-04-09T07:39:43Z</time>
      </trkpt>
      <trkpt lat="45.51689" lon="4.733">
        <ele>453</ele>
        <time>2011-04-09T07:39:52Z</time>
      </trkpt>
      <trkpt lat="45.51694" lon="4.73313">
        <ele>453</ele>
        <time>2011-04-09T07:39:57Z</time>
      </trkpt>
      <trkpt lat="45.51695" lon="4.73337">
        <ele>456</ele>
        <time>2011-04-09T07:40:07Z</time>
      </trkpt>
      <trkpt lat="45.51697" lon="4.73362">
        <ele>459</ele>
        <time>2011-04-09T07:40:18Z</time>
      </trkpt>
      <trkpt lat="45.51696" lon="4.73388">
        <ele>462</ele>
        <time>2011-04-09T07:40:29Z</time>
      </trkpt>
      <trkpt lat="45.51691" lon="4.73411">
        <ele>463</ele>
        <time>2011-04-09T07:40:39Z</time>
      </trkpt>
      <trkpt lat="45.51683" lon="4.73428">
        <ele>464</ele>
        <time>2011-04-09T07:40:48Z</time>
      </trkpt>
      <trkpt lat="45.51671" lon="4.73438">
        <ele>465</ele>
        <time>2011-04-09T07:40:56Z</time>
      </trkpt>
      <trkpt lat="45.51656" lon="4.73454">
        <ele>465</ele>
        <time>2011-04-09T07:41:05Z</time>
      </trkpt>
      <trkpt lat="45.51639" lon="4.73475">
        <ele>466</ele>
        <time>2011-04-09T07:41:15Z</time>
      </trkpt>
      <trkpt lat="45.51627" lon="4.73496">
        <ele>468</ele>
        <time>2011-04-09T07:41:23Z</time>
      </trkpt>
      <trkpt lat="45.51613" lon="4.73518">
        <ele>469</ele>
        <time>2011-04-09T07:41:32Z</time>
      </trkpt>
      <trkpt lat="45.516" lon="4.73539">
        <ele>471</ele>
        <time>2011-04-09T07:41:41Z</time>
      </trkpt>
      <trkpt lat="45.51587" lon="4.73556">
        <ele>472</ele>
        <time>2011-04-09T07:41:49Z</time>
      </trkpt>
      <trkpt lat="45.51572" lon="4.73581">
        <ele>473</ele>
        <time>2011-04-09T07:41:59Z</time>
      </trkpt>
      <trkpt lat="45.5156" lon="4.73606">
        <ele>475</ele>
        <time>2011-04-09T07:42:09Z</time>
      </trkpt>
      <trkpt lat="45.51551" lon="4.73633">
        <ele>476</ele>
        <time>2011-04-09T07:42:19Z</time>
      </trkpt>
      <trkpt lat="45.51547" lon="4.73658">
        <ele>477</ele>
        <time>2011-04-09T07:42:27Z</time>
      </trkpt>
      <trkpt lat="45.5155" lon="4.73689">
        <ele>479</ele>
        <time>2011-04-09T07:42:37Z</time>
      </trkpt>
      <trkpt lat="45.51561" lon="4.73713">
        <ele>480</ele>
        <time>2011-04-09T07:42:46Z</time>
      </trkpt>
      <trkpt lat="45.51577" lon="4.73742">
        <ele>481</ele>
        <time>2011-04-09T07:42:56Z</time>
      </trkpt>
      <trkpt lat="45.51588" lon="4.73769">
        <ele>482</ele>
        <time>2011-04-09T07:43:04Z</time>
      </trkpt>
      <trkpt lat="45.51593" lon="4.73805">
        <ele>482</ele>
        <time>2011-04-09T07:43:12Z</time>
      </trkpt>
      <trkpt lat="45.51586" lon="4.73828">
        <ele>481</ele>
        <time>2011-04-09T07:43:17Z</time>
      </trkpt>
      <trkpt lat="45.51582" lon="4.73831">
        <ele>481</ele>
        <time>2011-04-09T07:43:18Z</time>
      </trkpt>
      <trkpt lat="45.51578" lon="4.73833">
        <ele>481</ele>
        <time>2011-04-09T07:43:19Z</time>
      </trkpt>
      <trkpt lat="45.51543" lon="4.7384">
        <ele>479</ele>
        <time>2011-04-09T07:43:27Z</time>
      </trkpt>
      <trkpt lat="45.51524" lon="4.73849">
        <ele>479</ele>
        <time>2011-04-09T07:43:31Z</time>
      </trkpt>
      <trkpt lat="45.5152" lon="4.73853">
        <ele>479</ele>
        <time>2011-04-09T07:43:32Z</time>
      </trkpt>
      <trkpt lat="45.51517" lon="4.73857">
        <ele>479</ele>
        <time>2011-04-09T07:43:33Z</time>
      </trkpt>
      <trkpt lat="45.51514" lon="4.73862">
        <ele>479</ele>
        <time>2011-04-09T07:43:34Z</time>
      </trkpt>
      <trkpt lat="45.51511" lon="4.73866">
        <ele>479</ele>
        <time>2011-04-09T07:43:35Z</time>
      </trkpt>
      <trkpt lat="45.51508" lon="4.7387">
        <ele>480</ele>
        <time>2011-04-09T07:43:36Z</time>
      </trkpt>
      <trkpt lat="45.51505" lon="4.73874">
        <ele>480</ele>
        <time>2011-04-09T07:43:37Z</time>
      </trkpt>
      <trkpt lat="45.51502" lon="4.73877">
        <ele>480</ele>
        <time>2011-04-09T07:43:38Z</time>
      </trkpt>
      <trkpt lat="45.51498" lon="4.7388">
        <ele>481</ele>
        <time>2011-04-09T07:43:39Z</time>
      </trkpt>
      <trkpt lat="45.51494" lon="4.73883">
        <ele>480</ele>
        <time>2011-04-09T07:43:40Z</time>
      </trkpt>
      <trkpt lat="45.5149" lon="4.73885">
        <ele>480</ele>
        <time>2011-04-09T07:43:41Z</time>
      </trkpt>
      <trkpt lat="45.51455" lon="4.73913">
        <ele>479</ele>
        <time>2011-04-09T07:43:49Z</time>
      </trkpt>
      <trkpt lat="45.51435" lon="4.73933">
        <ele>478</ele>
        <time>2011-04-09T07:43:55Z</time>
      </trkpt>
      <trkpt lat="45.51435" lon="4.73937">
        <ele>479</ele>
        <time>2011-04-09T07:43:56Z</time>
      </trkpt>
      <trkpt lat="45.51436" lon="4.7394">
        <ele>479</ele>
        <time>2011-04-09T07:43:57Z</time>
      </trkpt>
      <trkpt lat="45.51437" lon="4.73942">
        <ele>479</ele>
        <time>2011-04-09T07:43:58Z</time>
      </trkpt>
      <trkpt lat="45.51438" lon="4.73944">
        <ele>480</ele>
        <time>2011-04-09T07:43:59Z</time>
      </trkpt>
      <trkpt lat="45.51449" lon="4.73955">
        <ele>481</ele>
        <time>2011-04-09T07:44:09Z</time>
      </trkpt>
      <trkpt lat="45.51463" lon="4.73972">
        <ele>483</ele>
        <time>2011-04-09T07:44:18Z</time>
      </trkpt>
      <trkpt lat="45.51474" lon="4.73992">
        <ele>485</ele>
        <time>2011-04-09T07:44:27Z</time>
      </trkpt>
      <trkpt lat="45.51481" lon="4.73999">
        <ele>487</ele>
        <time>2011-04-09T07:44:32Z</time>
      </trkpt>
      <trkpt lat="45.51494" lon="4.74004">
        <ele>489</ele>
        <time>2011-04-09T07:44:42Z</time>
      </trkpt>
      <trkpt lat="45.51495" lon="4.74005">
        <ele>489</ele>
        <time>2011-04-09T07:44:43Z</time>
      </trkpt>
      <trkpt lat="45.51506" lon="4.74005">
        <ele>492</ele>
        <time>2011-04-09T07:44:51Z</time>
      </trkpt>
      <trkpt lat="45.51517" lon="4.74007">
        <ele>494</ele>
        <time>2011-04-09T07:45:00Z</time>
      </trkpt>
      <trkpt lat="45.51531" lon="4.74011">
        <ele>496</ele>
        <time>2011-04-09T07:45:12Z</time>
      </trkpt>
      <trkpt lat="45.51545" lon="4.74014">
        <ele>499</ele>
        <time>2011-04-09T07:45:24Z</time>
      </trkpt>
      <trkpt lat="45.51559" lon="4.74022">
        <ele>501</ele>
        <time>2011-04-09T07:45:36Z</time>
      </trkpt>
      <trkpt lat="45.51569" lon="4.7403">
        <ele>504</ele>
        <time>2011-04-09T07:45:45Z</time>
      </trkpt>
      <trkpt lat="45.51578" lon="4.74039">
        <ele>506</ele>
        <time>2011-04-09T07:45:54Z</time>
      </trkpt>
      <trkpt lat="45.51585" lon="4.74048">
        <ele>507</ele>
        <time>2011-04-09T07:46:02Z</time>
      </trkpt>
      <trkpt lat="45.51593" lon="4.74062">
        <ele>510</ele>
        <time>2011-04-09T07:46:12Z</time>
      </trkpt>
      <trkpt lat="45.516" lon="4.74073">
        <ele>511</ele>
        <time>2011-04-09T07:46:20Z</time>
      </trkpt>
      <trkpt lat="45.51602" lon="4.74077">
        <ele>512</ele>
        <time>2011-04-09T07:46:23Z</time>
      </trkpt>
      <trkpt lat="45.5161" lon="4.74076">
        <ele>513</ele>
        <time>2011-04-09T07:46:30Z</time>
      </trkpt>
      <trkpt lat="45.51612" lon="4.74067">
        <ele>513</ele>
        <time>2011-04-09T07:46:35Z</time>
      </trkpt>
      <trkpt lat="45.51619" lon="4.74047">
        <ele>515</ele>
        <time>2011-04-09T07:46:45Z</time>
      </trkpt>
      <trkpt lat="45.51633" lon="4.74043">
        <ele>517</ele>
        <time>2011-04-09T07:46:55Z</time>
      </trkpt>
      <trkpt lat="45.51646" lon="4.74044">
        <ele>519</ele>
        <time>2011-04-09T07:47:05Z</time>
      </trkpt>
      <trkpt lat="45.51658" lon="4.74058">
        <ele>520</ele>
        <time>2011-04-09T07:47:16Z</time>
      </trkpt>
      <trkpt lat="45.51667" lon="4.74075">
        <ele>521</ele>
        <time>2011-04-09T07:47:25Z</time>
      </trkpt>
      <trkpt lat="45.51674" lon="4.74089">
        <ele>523</ele>
        <time>2011-04-09T07:47:33Z</time>
      </trkpt>
      <trkpt lat="45.51679" lon="4.74106">
        <ele>524</ele>
        <time>2011-04-09T07:47:42Z</time>
      </trkpt>
      <trkpt lat="45.51685" lon="4.74124">
        <ele>524</ele>
        <time>2011-04-09T07:47:51Z</time>
      </trkpt>
      <trkpt lat="45.51686" lon="4.74126">
        <ele>524</ele>
        <time>2011-04-09T07:47:57Z</time>
      </trkpt>
      <trkpt lat="45.51686" lon="4.74126">
        <ele>524</ele>
        <time>2011-04-09T07:48:07Z</time>
      </trkpt>
      <trkpt lat="45.51686" lon="4.74126">
        <ele>524</ele>
        <time>2011-04-09T07:48:27Z</time>
      </trkpt>
      <trkpt lat="45.51686" lon="4.74126">
        <ele>524</ele>
        <time>2011-04-09T07:48:52Z</time>
      </trkpt>
      <trkpt lat="45.51686" lon="4.74126">
        <ele>524</ele>
        <time>2011-04-09T07:49:14Z</time>
      </trkpt>
      <trkpt lat="45.51686" lon="4.74126">
        <ele>524</ele>
        <time>2011-04-09T07:49:44Z</time>
      </trkpt>
      <trkpt lat="45.51685" lon="4.74125">
        <ele>524</ele>
        <time>2011-04-09T07:50:10Z</time>
      </trkpt>
      <trkpt lat="45.51685" lon="4.74125">
        <ele>524</ele>
        <time>2011-04-09T07:50:36Z</time>
      </trkpt>
      <trkpt lat="45.51685" lon="4.74125">
        <ele>524</ele>
        <time>2011-04-09T07:51:04Z</time>
      </trkpt>
      <trkpt lat="45.51685" lon="4.74127">
        <ele>524</ele>
        <time>2011-04-09T07:51:28Z</time>
      </trkpt>
      <trkpt lat="45.51685" lon="4.74127">
        <ele>524</ele>
        <time>2011-04-09T07:51:50Z</time>
      </trkpt>
      <trkpt lat="45.51685" lon="4.74126">
        <ele>524</ele>
        <time>2011-04-09T07:52:13Z</time>
      </trkpt>
      <trkpt lat="45.51685" lon="4.74126">
        <ele>523</ele>
        <time>2011-04-09T07:52:37Z</time>
      </trkpt>
      <trkpt lat="45.51685" lon="4.74126">
        <ele>524</ele>
        <time>2011-04-09T07:53:03Z</time>
      </trkpt>
      <trkpt lat="45.51685" lon="4.74126">
        <ele>523</ele>
        <time>2011-04-09T07:53:29Z</time>
      </trkpt>
      <trkpt lat="45.51685" lon="4.74126">
        <ele>523</ele>
        <time>2011-04-09T07:53:53Z</time>
      </trkpt>
      <trkpt lat="45.51684" lon="4.74126">
        <ele>524</ele>
        <time>2011-04-09T07:54:17Z</time>
      </trkpt>
      <trkpt lat="45.51684" lon="4.74126">
        <ele>523</ele>
        <time>2011-04-09T07:54:36Z</time>
      </trkpt>
      <trkpt lat="45.51684" lon="4.74126">
        <ele>524</ele>
        <time>2011-04-09T07:54:56Z</time>
      </trkpt>
      <trkpt lat="45.51684" lon="4.74125">
        <ele>523</ele>
        <time>2011-04-09T07:55:22Z</time>
      </trkpt>
      <trkpt lat="45.51684" lon="4.74125">
        <ele>524</ele>
        <time>2011-04-09T07:55:47Z</time>
      </trkpt>
      <trkpt lat="45.51684" lon="4.74125">
        <ele>524</ele>
        <time>2011-04-09T07:56:10Z</time>
      </trkpt>
      <trkpt lat="45.51684" lon="4.74125">
        <ele>524</ele>
        <time>2011-04-09T07:56:33Z</time>
      </trkpt>
      <trkpt lat="45.51684" lon="4.74126">
        <ele>524</ele>
        <time>2011-04-09T07:57:06Z</time>
      </trkpt>
      <trkpt lat="45.51685" lon="4.74126">
        <ele>524</ele>
        <time>2011-04-09T07:57:31Z</time>
      </trkpt>
      <trkpt lat="45.51685" lon="4.74126">
        <ele>523</ele>
        <time>2011-04-09T07:57:54Z</time>
      </trkpt>
      <trkpt lat="45.51685" lon="4.74126">
        <ele>524</ele>
        <time>2011-04-09T07:58:20Z</time>
      </trkpt>
      <trkpt lat="45.51685" lon="4.74126">
        <ele>524</ele>
        <time>2011-04-09T07:58:49Z</time>
      </trkpt>
      <trkpt lat="45.51685" lon="4.74126">
        <ele>524</ele>
        <time>2011-04-09T07:59:13Z</time>
      </trkpt>
      <trkpt lat="45.51685" lon="4.74126">
        <ele>524</ele>
        <time>2011-04-09T07:59:42Z</time>
      </trkpt>
      <trkpt lat="45.51685" lon="4.74126">
        <ele>523</ele>
        <time>2011-04-09T08:00:09Z</time>
      </trkpt>
      <trkpt lat="45.51685" lon="4.74126">
        <ele>524</ele>
        <time>2011-04-09T08:00:30Z</time>
      </trkpt>
      <trkpt lat="45.51685" lon="4.74126">
        <ele>524</ele>
        <time>2011-04-09T08:00:57Z</time>
      </trkpt>
      <trkpt lat="45.51685" lon="4.74126">
        <ele>524</ele>
        <time>2011-04-09T08:01:21Z</time>
      </trkpt>
      <trkpt lat="45.51685" lon="4.74126">
        <ele>524</ele>
        <time>2011-04-09T08:01:48Z</time>
      </trkpt>
      <trkpt lat="45.51685" lon="4.74126">
        <ele>524</ele>
        <time>2011-04-09T08:02:14Z</time>
      </trkpt>
      <trkpt lat="45.51685" lon="4.74126">
        <ele>524</ele>
        <time>2011-04-09T08:02:38Z</time>
      </trkpt>
      <trkpt lat="45.51685" lon="4.74126">
        <ele>524</ele>
        <time>2011-04-09T08:03:05Z</time>
      </trkpt>
      <trkpt lat="45.51684" lon="4.74126">
        <ele>524</ele>
        <time>2011-04-09T08:03:28Z</time>
      </trkpt>
      <trkpt lat="45.51685" lon="4.74125">
        <ele>524</ele>
        <time>2011-04-09T08:03:49Z</time>
      </trkpt>
      <trkpt lat="45.51686" lon="4.74126">
        <ele>524</ele>
        <time>2011-04-09T08:03:54Z</time>
      </trkpt>
      <trkpt lat="45.51698" lon="4.74118">
        <ele>525</ele>
        <time>2011-04-09T08:04:02Z</time>
      </trkpt>
      <trkpt lat="45.51713" lon="4.74099">
        <ele>525</ele>
        <time>2011-04-09T08:04:11Z</time>
      </trkpt>
      <trkpt lat="45.51727" lon="4.74093">
        <ele>526</ele>
        <time>2011-04-09T08:04:18Z</time>
      </trkpt>
      <trkpt lat="45.51739" lon="4.7409">
        <ele>527</ele>
        <time>2011-04-09T08:04:24Z</time>
      </trkpt>
      <trkpt lat="45.51759" lon="4.74088">
        <ele>527</ele>
        <time>2011-04-09T08:04:32Z</time>
      </trkpt>
      <trkpt lat="45.51774" lon="4.7409">
        <ele>527</ele>
        <time>2011-04-09T08:04:38Z</time>
      </trkpt>
      <trkpt lat="45.51802" lon="4.74097">
        <ele>525</ele>
        <time>2011-04-09T08:04:47Z</time>
      </trkpt>
      <trkpt lat="45.51827" lon="4.74103">
        <ele>524</ele>
        <time>2011-04-09T08:04:54Z</time>
      </trkpt>
      <trkpt lat="45.5186" lon="4.74106">
        <ele>522</ele>
        <time>2011-04-09T08:05:02Z</time>
      </trkpt>
      <trkpt lat="45.51873" lon="4.74107">
        <ele>522</ele>
        <time>2011-04-09T08:05:05Z</time>
      </trkpt>
      <trkpt lat="45.51893" lon="4.74111">
        <ele>520</ele>
        <time>2011-04-09T08:05:09Z</time>
      </trkpt>
      <trkpt lat="45.51924" lon="4.74117">
        <ele>518</ele>
        <time>2011-04-09T08:05:14Z</time>
      </trkpt>
      <trkpt lat="45.51969" lon="4.7413">
        <ele>517</ele>
        <time>2011-04-09T08:05:21Z</time>
      </trkpt>
      <trkpt lat="45.51974" lon="4.74133">
        <ele>517</ele>
        <time>2011-04-09T08:05:22Z</time>
      </trkpt>
      <trkpt lat="45.51978" lon="4.74135">
        <ele>516</ele>
        <time>2011-04-09T08:05:23Z</time>
      </trkpt>
      <trkpt lat="45.51982" lon="4.74138">
        <ele>516</ele>
        <time>2011-04-09T08:05:24Z</time>
      </trkpt>
      <trkpt lat="45.51986" lon="4.74142">
        <ele>516</ele>
        <time>2011-04-09T08:05:25Z</time>
      </trkpt>
      <trkpt lat="45.5199" lon="4.74146">
        <ele>516</ele>
        <time>2011-04-09T08:05:26Z</time>
      </trkpt>
      <trkpt lat="45.51994" lon="4.7415">
        <ele>516</ele>
        <time>2011-04-09T08:05:27Z</time>
      </trkpt>
      <trkpt lat="45.51997" lon="4.74154">
        <ele>516</ele>
        <time>2011-04-09T08:05:28Z</time>
      </trkpt>
      <trkpt lat="45.52024" lon="4.74184">
        <ele>514</ele>
        <time>2011-04-09T08:05:35Z</time>
      </trkpt>
      <trkpt lat="45.52027" lon="4.74188">
        <ele>514</ele>
        <time>2011-04-09T08:05:36Z</time>
      </trkpt>
      <trkpt lat="45.52036" lon="4.74195">
        <ele>514</ele>
        <time>2011-04-09T08:05:38Z</time>
      </trkpt>
      <trkpt lat="45.5204" lon="4.74199">
        <ele>514</ele>
        <time>2011-04-09T08:05:39Z</time>
      </trkpt>
      <trkpt lat="45.52057" lon="4.74212">
        <ele>513</ele>
        <time>2011-04-09T08:05:43Z</time>
      </trkpt>
      <trkpt lat="45.52092" lon="4.74239">
        <ele>511</ele>
        <time>2011-04-09T08:05:49Z</time>
      </trkpt>
      <trkpt lat="45.52137" lon="4.74283">
        <ele>507</ele>
        <time>2011-04-09T08:05:57Z</time>
      </trkpt>
      <trkpt lat="45.52144" lon="4.74287">
        <ele>507</ele>
        <time>2011-04-09T08:05:58Z</time>
      </trkpt>
      <trkpt lat="45.52176" lon="4.74308">
        <ele>506</ele>
        <time>2011-04-09T08:06:03Z</time>
      </trkpt>
      <trkpt lat="45.5218" lon="4.74314">
        <ele>506</ele>
        <time>2011-04-09T08:06:04Z</time>
      </trkpt>
      <trkpt lat="45.52183" lon="4.74321">
        <ele>506</ele>
        <time>2011-04-09T08:06:05Z</time>
      </trkpt>
      <trkpt lat="45.52184" lon="4.74329">
        <ele>506</ele>
        <time>2011-04-09T08:06:06Z</time>
      </trkpt>
      <trkpt lat="45.52185" lon="4.74336">
        <ele>505</ele>
        <time>2011-04-09T08:06:07Z</time>
      </trkpt>
      <trkpt lat="45.52187" lon="4.74343">
        <ele>506</ele>
        <time>2011-04-09T08:06:08Z</time>
      </trkpt>
      <trkpt lat="45.5219" lon="4.74348">
        <ele>506</ele>
        <time>2011-04-09T08:06:09Z</time>
      </trkpt>
      <trkpt lat="45.52195" lon="4.74351">
        <ele>505</ele>
        <time>2011-04-09T08:06:10Z</time>
      </trkpt>
      <trkpt lat="45.522" lon="4.74352">
        <ele>505</ele>
        <time>2011-04-09T08:06:11Z</time>
      </trkpt>
      <trkpt lat="45.52204" lon="4.74352">
        <ele>505</ele>
        <time>2011-04-09T08:06:12Z</time>
      </trkpt>
      <trkpt lat="45.52225" lon="4.74359">
        <ele>505</ele>
        <time>2011-04-09T08:06:18Z</time>
      </trkpt>
      <trkpt lat="45.52233" lon="4.74373">
        <ele>505</ele>
        <time>2011-04-09T08:06:24Z</time>
      </trkpt>
      <trkpt lat="45.5224" lon="4.74406">
        <ele>506</ele>
        <time>2011-04-09T08:06:32Z</time>
      </trkpt>
      <trkpt lat="45.52248" lon="4.74453">
        <ele>507</ele>
        <time>2011-04-09T08:06:43Z</time>
      </trkpt>
      <trkpt lat="45.52261" lon="4.74486">
        <ele>509</ele>
        <time>2011-04-09T08:06:52Z</time>
      </trkpt>
      <trkpt lat="45.52269" lon="4.74495">
        <ele>510</ele>
        <time>2011-04-09T08:06:57Z</time>
      </trkpt>
      <trkpt lat="45.52284" lon="4.74512">
        <ele>512</ele>
        <time>2011-04-09T08:07:06Z</time>
      </trkpt>
      <trkpt lat="45.52299" lon="4.74526">
        <ele>514</ele>
        <time>2011-04-09T08:07:14Z</time>
      </trkpt>
      <trkpt lat="45.52317" lon="4.7454">
        <ele>516</ele>
        <time>2011-04-09T08:07:23Z</time>
      </trkpt>
      <trkpt lat="45.52335" lon="4.74553">
        <ele>517</ele>
        <time>2011-04-09T08:07:32Z</time>
      </trkpt>
      <trkpt lat="45.52339" lon="4.74554">
        <ele>518</ele>
        <time>2011-04-09T08:07:34Z</time>
      </trkpt>
      <trkpt lat="45.52351" lon="4.74558">
        <ele>520</ele>
        <time>2011-04-09T08:07:40Z</time>
      </trkpt>
      <trkpt lat="45.52369" lon="4.74562">
        <ele>521</ele>
        <time>2011-04-09T08:07:49Z</time>
      </trkpt>
      <trkpt lat="45.52376" lon="4.74563">
        <ele>522</ele>
        <time>2011-04-09T08:07:53Z</time>
      </trkpt>
      <trkpt lat="45.5239" lon="4.74566">
        <ele>523</ele>
        <time>2011-04-09T08:08:01Z</time>
      </trkpt>
      <trkpt lat="45.52407" lon="4.74569">
        <ele>525</ele>
        <time>2011-04-09T08:08:10Z</time>
      </trkpt>
      <trkpt lat="45.52426" lon="4.7457">
        <ele>527</ele>
        <time>2011-04-09T08:08:21Z</time>
      </trkpt>
      <trkpt lat="45.52439" lon="4.74566">
        <ele>529</ele>
        <time>2011-04-09T08:08:29Z</time>
      </trkpt>
      <trkpt lat="45.52452" lon="4.74565">
        <ele>530</ele>
        <time>2011-04-09T08:08:37Z</time>
      </trkpt>
      <trkpt lat="45.52463" lon="4.7456">
        <ele>531</ele>
        <time>2011-04-09T08:08:45Z</time>
      </trkpt>
      <trkpt lat="45.52475" lon="4.74557">
        <ele>533</ele>
        <time>2011-04-09T08:08:52Z</time>
      </trkpt>
      <trkpt lat="45.52485" lon="4.74555">
        <ele>535</ele>
        <time>2011-04-09T08:08:59Z</time>
      </trkpt>
      <trkpt lat="45.52486" lon="4.74554">
        <ele>535</ele>
        <time>2011-04-09T08:09:00Z</time>
      </trkpt>
      <trkpt lat="45.52497" lon="4.74549">
        <ele>537</ele>
        <time>2011-04-09T08:09:09Z</time>
      </trkpt>
      <trkpt lat="45.52507" lon="4.74542">
        <ele>538</ele>
        <time>2011-04-09T08:09:16Z</time>
      </trkpt>
      <trkpt lat="45.52519" lon="4.74534">
        <ele>540</ele>
        <time>2011-04-09T08:09:24Z</time>
      </trkpt>
      <trkpt lat="45.52536" lon="4.74535">
        <ele>542</ele>
        <time>2011-04-09T08:09:34Z</time>
      </trkpt>
      <trkpt lat="45.52548" lon="4.74542">
        <ele>542</ele>
        <time>2011-04-09T08:09:41Z</time>
      </trkpt>
      <trkpt lat="45.52562" lon="4.74553">
        <ele>545</ele>
        <time>2011-04-09T08:09:51Z</time>
      </trkpt>
      <trkpt lat="45.52572" lon="4.74561">
        <ele>545</ele>
        <time>2011-04-09T08:09:59Z</time>
      </trkpt>
      <trkpt lat="45.52582" lon="4.74566">
        <ele>547</ele>
        <time>2011-04-09T08:10:06Z</time>
      </trkpt>
      <trkpt lat="45.52596" lon="4.74572">
        <ele>548</ele>
        <time>2011-04-09T08:10:15Z</time>
      </trkpt>
      <trkpt lat="45.52609" lon="4.74577">
        <ele>550</ele>
        <time>2011-04-09T08:10:24Z</time>
      </trkpt>
      <trkpt lat="45.5262" lon="4.74582">
        <ele>551</ele>
        <time>2011-04-09T08:10:32Z</time>
      </trkpt>
      <trkpt lat="45.52627" lon="4.74587">
        <ele>553</ele>
        <time>2011-04-09T08:10:38Z</time>
      </trkpt>
      <trkpt lat="45.52636" lon="4.74594">
        <ele>554</ele>
        <time>2011-04-09T08:10:46Z</time>
      </trkpt>
      <trkpt lat="45.52639" lon="4.74596">
        <ele>555</ele>
        <time>2011-04-09T08:10:49Z</time>
      </trkpt>
      <trkpt lat="45.5264" lon="4.74597">
        <ele>556</ele>
        <time>2011-04-09T08:10:50Z</time>
      </trkpt>
      <trkpt lat="45.52652" lon="4.74602">
        <ele>557</ele>
        <time>2011-04-09T08:10:58Z</time>
      </trkpt>
      <trkpt lat="45.52665" lon="4.74606">
        <ele>558</ele>
        <time>2011-04-09T08:11:07Z</time>
      </trkpt>
      <trkpt lat="45.52676" lon="4.74613">
        <ele>560</ele>
        <time>2011-04-09T08:11:15Z</time>
      </trkpt>
      <trkpt lat="45.52689" lon="4.74622">
        <ele>561</ele>
        <time>2011-04-09T08:11:24Z</time>
      </trkpt>
      <trkpt lat="45.52698" lon="4.7464">
        <ele>562</ele>
        <time>2011-04-09T08:11:32Z</time>
      </trkpt>
      <trkpt lat="45.52714" lon="4.74657">
        <ele>562</ele>
        <time>2011-04-09T08:11:41Z</time>
      </trkpt>
      <trkpt lat="45.52721" lon="4.74662">
        <ele>563</ele>
        <time>2011-04-09T08:11:48Z</time>
      </trkpt>
      <trkpt lat="45.52733" lon="4.74669">
        <ele>563</ele>
        <time>2011-04-09T08:11:57Z</time>
      </trkpt>
      <trkpt lat="45.52734" lon="4.74671">
        <ele>563</ele>
        <time>2011-04-09T08:11:59Z</time>
      </trkpt>
      <trkpt lat="45.52735" lon="4.74672">
        <ele>562</ele>
        <time>2011-04-09T08:12:00Z</time>
      </trkpt>
      <trkpt lat="45.52736" lon="4.74673">
        <ele>562</ele>
        <time>2011-04-09T08:12:01Z</time>
      </trkpt>
      <trkpt lat="45.52751" lon="4.74692">
        <ele>561</ele>
        <time>2011-04-09T08:12:08Z</time>
      </trkpt>
      <trkpt lat="45.52753" lon="4.74697">
        <ele>561</ele>
        <time>2011-04-09T08:12:09Z</time>
      </trkpt>
      <trkpt lat="45.52758" lon="4.7471">
        <ele>560</ele>
        <time>2011-04-09T08:12:11Z</time>
      </trkpt>
      <trkpt lat="45.52762" lon="4.74716">
        <ele>560</ele>
        <time>2011-04-09T08:12:12Z</time>
      </trkpt>
      <trkpt lat="45.52774" lon="4.74735">
        <ele>559</ele>
        <time>2011-04-09T08:12:15Z</time>
      </trkpt>
      <trkpt lat="45.52779" lon="4.74741">
        <ele>559</ele>
        <time>2011-04-09T08:12:16Z</time>
      </trkpt>
      <trkpt lat="45.52784" lon="4.74744">
        <ele>559</ele>
        <time>2011-04-09T08:12:17Z</time>
      </trkpt>
      <trkpt lat="45.52789" lon="4.74748">
        <ele>558</ele>
        <time>2011-04-09T08:12:18Z</time>
      </trkpt>
      <trkpt lat="45.52793" lon="4.74754">
        <ele>558</ele>
        <time>2011-04-09T08:12:19Z</time>
      </trkpt>
      <trkpt lat="45.52795" lon="4.7476">
        <ele>558</ele>
        <time>2011-04-09T08:12:20Z</time>
      </trkpt>
      <trkpt lat="45.52804" lon="4.74783">
        <ele>558</ele>
        <time>2011-04-09T08:12:24Z</time>
      </trkpt>
      <trkpt lat="45.52807" lon="4.74789">
        <ele>559</ele>
        <time>2011-04-09T08:12:25Z</time>
      </trkpt>
      <trkpt lat="45.52811" lon="4.748">
        <ele>559</ele>
        <time>2011-04-09T08:12:27Z</time>
      </trkpt>
      <trkpt lat="45.52813" lon="4.74805">
        <ele>559</ele>
        <time>2011-04-09T08:12:28Z</time>
      </trkpt>
      <trkpt lat="45.52835" lon="4.74838">
        <ele>559</ele>
        <time>2011-04-09T08:12:35Z</time>
      </trkpt>
      <trkpt lat="45.52837" lon="4.74845">
        <ele>559</ele>
        <time>2011-04-09T08:12:36Z</time>
      </trkpt>
      <trkpt lat="45.52847" lon="4.74877">
        <ele>559</ele>
        <time>2011-04-09T08:12:40Z</time>
      </trkpt>
      <trkpt lat="45.5285" lon="4.74884">
        <ele>559</ele>
        <time>2011-04-09T08:12:41Z</time>
      </trkpt>
      <trkpt lat="45.52853" lon="4.7489">
        <ele>559</ele>
        <time>2011-04-09T08:12:42Z</time>
      </trkpt>
      <trkpt lat="45.52856" lon="4.74896">
        <ele>559</ele>
        <time>2011-04-09T08:12:43Z</time>
      </trkpt>
      <trkpt lat="45.5286" lon="4.74901">
        <ele>559</ele>
        <time>2011-04-09T08:12:44Z</time>
      </trkpt>
      <trkpt lat="45.52864" lon="4.74905">
        <ele>559</ele>
        <time>2011-04-09T08:12:45Z</time>
      </trkpt>
      <trkpt lat="45.52869" lon="4.74909">
        <ele>559</ele>
        <time>2011-04-09T08:12:46Z</time>
      </trkpt>
      <trkpt lat="45.52897" lon="4.74932">
        <ele>559</ele>
        <time>2011-04-09T08:12:53Z</time>
      </trkpt>
      <trkpt lat="45.52902" lon="4.74934">
        <ele>559</ele>
        <time>2011-04-09T08:12:54Z</time>
      </trkpt>
      <trkpt lat="45.52905" lon="4.74936">
        <ele>559</ele>
        <time>2011-04-09T08:12:55Z</time>
      </trkpt>
      <trkpt lat="45.52909" lon="4.74938">
        <ele>558</ele>
        <time>2011-04-09T08:12:56Z</time>
      </trkpt>
      <trkpt lat="45.52913" lon="4.7494">
        <ele>558</ele>
        <time>2011-04-09T08:12:57Z</time>
      </trkpt>
      <trkpt lat="45.52918" lon="4.74942">
        <ele>558</ele>
        <time>2011-04-09T08:12:58Z</time>
      </trkpt>
      <trkpt lat="45.52921" lon="4.74944">
        <ele>558</ele>
        <time>2011-04-09T08:12:59Z</time>
      </trkpt>
      <trkpt lat="45.52926" lon="4.74947">
        <ele>558</ele>
        <time>2011-04-09T08:13:00Z</time>
      </trkpt>
      <trkpt lat="45.52942" lon="4.74954">
        <ele>556</ele>
        <time>2011-04-09T08:13:04Z</time>
      </trkpt>
      <trkpt lat="45.52969" lon="4.7497">
        <ele>554</ele>
        <time>2011-04-09T08:13:11Z</time>
      </trkpt>
      <trkpt lat="45.52988" lon="4.74981">
        <ele>552</ele>
        <time>2011-04-09T08:13:15Z</time>
      </trkpt>
      <trkpt lat="45.52993" lon="4.74984">
        <ele>552</ele>
        <time>2011-04-09T08:13:16Z</time>
      </trkpt>
      <trkpt lat="45.53009" lon="4.74997">
        <ele>550</ele>
        <time>2011-04-09T08:13:19Z</time>
      </trkpt>
      <trkpt lat="45.53021" lon="4.75006">
        <ele>549</ele>
        <time>2011-04-09T08:13:21Z</time>
      </trkpt>
      <trkpt lat="45.53027" lon="4.75009">
        <ele>548</ele>
        <time>2011-04-09T08:13:22Z</time>
      </trkpt>
      <trkpt lat="45.53034" lon="4.7501">
        <ele>548</ele>
        <time>2011-04-09T08:13:23Z</time>
      </trkpt>
      <trkpt lat="45.53043" lon="4.75011">
        <ele>546</ele>
        <time>2011-04-09T08:13:24Z</time>
      </trkpt>
      <trkpt lat="45.53052" lon="4.7501">
        <ele>545</ele>
        <time>2011-04-09T08:13:25Z</time>
      </trkpt>
      <trkpt lat="45.53061" lon="4.75008">
        <ele>544</ele>
        <time>2011-04-09T08:13:26Z</time>
      </trkpt>
      <trkpt lat="45.53069" lon="4.75008">
        <ele>543</ele>
        <time>2011-04-09T08:13:27Z</time>
      </trkpt>
      <trkpt lat="45.53077" lon="4.75009">
        <ele>542</ele>
        <time>2011-04-09T08:13:28Z</time>
      </trkpt>
      <trkpt lat="45.53106" lon="4.75015">
        <ele>539</ele>
        <time>2011-04-09T08:13:32Z</time>
      </trkpt>
      <trkpt lat="45.53114" lon="4.75018">
        <ele>538</ele>
        <time>2011-04-09T08:13:33Z</time>
      </trkpt>
      <trkpt lat="45.53121" lon="4.75023">
        <ele>537</ele>
        <time>2011-04-09T08:13:34Z</time>
      </trkpt>
      <trkpt lat="45.53133" lon="4.75036">
        <ele>535</ele>
        <time>2011-04-09T08:13:36Z</time>
      </trkpt>
      <trkpt lat="45.5315" lon="4.75052">
        <ele>532</ele>
        <time>2011-04-09T08:13:39Z</time>
      </trkpt>
      <trkpt lat="45.53157" lon="4.75057">
        <ele>532</ele>
        <time>2011-04-09T08:13:40Z</time>
      </trkpt>
      <trkpt lat="45.53177" lon="4.75068">
        <ele>528</ele>
        <time>2011-04-09T08:13:43Z</time>
      </trkpt>
      <trkpt lat="45.53184" lon="4.75073">
        <ele>527</ele>
        <time>2011-04-09T08:13:44Z</time>
      </trkpt>
      <trkpt lat="45.53191" lon="4.75075">
        <ele>526</ele>
        <time>2011-04-09T08:13:45Z</time>
      </trkpt>
      <trkpt lat="45.53209" lon="4.75077">
        <ele>524</ele>
        <time>2011-04-09T08:13:47Z</time>
      </trkpt>
      <trkpt lat="45.53218" lon="4.75081">
        <ele>524</ele>
        <time>2011-04-09T08:13:48Z</time>
      </trkpt>
      <trkpt lat="45.53234" lon="4.7509">
        <ele>522</ele>
        <time>2011-04-09T08:13:50Z</time>
      </trkpt>
      <trkpt lat="45.53241" lon="4.75097">
        <ele>521</ele>
        <time>2011-04-09T08:13:51Z</time>
      </trkpt>
      <trkpt lat="45.53245" lon="4.75104">
        <ele>521</ele>
        <time>2011-04-09T08:13:52Z</time>
      </trkpt>
      <trkpt lat="45.53248" lon="4.75113">
        <ele>520</ele>
        <time>2011-04-09T08:13:53Z</time>
      </trkpt>
      <trkpt lat="45.5325" lon="4.75121">
        <ele>519</ele>
        <time>2011-04-09T08:13:54Z</time>
      </trkpt>
      <trkpt lat="45.53254" lon="4.75136">
        <ele>519</ele>
        <time>2011-04-09T08:13:56Z</time>
      </trkpt>
      <trkpt lat="45.53259" lon="4.75161">
        <ele>516</ele>
        <time>2011-04-09T08:13:59Z</time>
      </trkpt>
      <trkpt lat="45.5326" lon="4.75168">
        <ele>515</ele>
        <time>2011-04-09T08:14:00Z</time>
      </trkpt>
      <trkpt lat="45.53262" lon="4.75176">
        <ele>514</ele>
        <time>2011-04-09T08:14:01Z</time>
      </trkpt>
      <trkpt lat="45.53267" lon="4.75181">
        <ele>513</ele>
        <time>2011-04-09T08:14:02Z</time>
      </trkpt>
      <trkpt lat="45.53272" lon="4.75185">
        <ele>513</ele>
        <time>2011-04-09T08:14:03Z</time>
      </trkpt>
      <trkpt lat="45.53278" lon="4.7519">
        <ele>512</ele>
        <time>2011-04-09T08:14:04Z</time>
      </trkpt>
      <trkpt lat="45.53284" lon="4.75196">
        <ele>511</ele>
        <time>2011-04-09T08:14:05Z</time>
      </trkpt>
      <trkpt lat="45.5329" lon="4.75202">
        <ele>510</ele>
        <time>2011-04-09T08:14:06Z</time>
      </trkpt>
      <trkpt lat="45.53298" lon="4.75207">
        <ele>509</ele>
        <time>2011-04-09T08:14:07Z</time>
      </trkpt>
      <trkpt lat="45.53305" lon="4.75213">
        <ele>508</ele>
        <time>2011-04-09T08:14:08Z</time>
      </trkpt>
      <trkpt lat="45.53326" lon="4.75236">
        <ele>505</ele>
        <time>2011-04-09T08:14:11Z</time>
      </trkpt>
      <trkpt lat="45.53331" lon="4.75243">
        <ele>503</ele>
        <time>2011-04-09T08:14:12Z</time>
      </trkpt>
      <trkpt lat="45.53337" lon="4.7525">
        <ele>503</ele>
        <time>2011-04-09T08:14:13Z</time>
      </trkpt>
      <trkpt lat="45.5336" lon="4.75274">
        <ele>500</ele>
        <time>2011-04-09T08:14:17Z</time>
      </trkpt>
      <trkpt lat="45.53366" lon="4.75282">
        <ele>500</ele>
        <time>2011-04-09T08:14:18Z</time>
      </trkpt>
      <trkpt lat="45.53389" lon="4.75314">
        <ele>496</ele>
        <time>2011-04-09T08:14:22Z</time>
      </trkpt>
      <trkpt lat="45.53428" lon="4.75353">
        <ele>493</ele>
        <time>2011-04-09T08:14:28Z</time>
      </trkpt>
      <trkpt lat="45.53478" lon="4.7539">
        <ele>491</ele>
        <time>2011-04-09T08:14:36Z</time>
      </trkpt>
      <trkpt lat="45.53527" lon="4.75416">
        <ele>488</ele>
        <time>2011-04-09T08:14:44Z</time>
      </trkpt>
      <trkpt lat="45.53534" lon="4.75418">
        <ele>488</ele>
        <time>2011-04-09T08:14:45Z</time>
      </trkpt>
      <trkpt lat="45.53541" lon="4.75421">
        <ele>487</ele>
        <time>2011-04-09T08:14:46Z</time>
      </trkpt>
      <trkpt lat="45.53548" lon="4.75427">
        <ele>485</ele>
        <time>2011-04-09T08:14:47Z</time>
      </trkpt>
      <trkpt lat="45.53555" lon="4.75433">
        <ele>485</ele>
        <time>2011-04-09T08:14:48Z</time>
      </trkpt>
      <trkpt lat="45.53562" lon="4.75441">
        <ele>483</ele>
        <time>2011-04-09T08:14:49Z</time>
      </trkpt>
      <trkpt lat="45.53569" lon="4.7545">
        <ele>483</ele>
        <time>2011-04-09T08:14:50Z</time>
      </trkpt>
      <trkpt lat="45.53575" lon="4.75459">
        <ele>482</ele>
        <time>2011-04-09T08:14:51Z</time>
      </trkpt>
      <trkpt lat="45.53581" lon="4.75469">
        <ele>482</ele>
        <time>2011-04-09T08:14:52Z</time>
      </trkpt>
      <trkpt lat="45.5361" lon="4.75518">
        <ele>478</ele>
        <time>2011-04-09T08:14:58Z</time>
      </trkpt>
      <trkpt lat="45.53614" lon="4.75524">
        <ele>478</ele>
        <time>2011-04-09T08:14:59Z</time>
      </trkpt>
      <trkpt lat="45.53631" lon="4.75548">
        <ele>475</ele>
        <time>2011-04-09T08:15:04Z</time>
      </trkpt>
      <trkpt lat="45.53646" lon="4.75565">
        <ele>473</ele>
        <time>2011-04-09T08:15:10Z</time>
      </trkpt>
      <trkpt lat="45.53658" lon="4.75579">
        <ele>471</ele>
        <time>2011-04-09T08:15:15Z</time>
      </trkpt>
      <trkpt lat="45.53664" lon="4.75582">
        <ele>472</ele>
        <time>2011-04-09T08:15:20Z</time>
      </trkpt>
      <trkpt lat="45.53682" lon="4.75576">
        <ele>471</ele>
        <time>2011-04-09T08:15:25Z</time>
      </trkpt>
      <trkpt lat="45.53695" lon="4.7557">
        <ele>470</ele>
        <time>2011-04-09T08:15:28Z</time>
      </trkpt>
      <trkpt lat="45.5374" lon="4.7556">
        <ele>469</ele>
        <time>2011-04-09T08:15:38Z</time>
      </trkpt>
      <trkpt lat="45.53754" lon="4.75557">
        <ele>469</ele>
        <time>2011-04-09T08:15:41Z</time>
      </trkpt>
      <trkpt lat="45.53758" lon="4.75556">
        <ele>469</ele>
        <time>2011-04-09T08:15:42Z</time>
      </trkpt>
      <trkpt lat="45.53782" lon="4.75551">
        <ele>468</ele>
        <time>2011-04-09T08:15:48Z</time>
      </trkpt>
      <trkpt lat="45.53804" lon="4.75541">
        <ele>468</ele>
        <time>2011-04-09T08:15:55Z</time>
      </trkpt>
      <trkpt lat="45.53806" lon="4.75538">
        <ele>468</ele>
        <time>2011-04-09T08:16:00Z</time>
      </trkpt>
      <trkpt lat="45.53806" lon="4.75538">
        <ele>468</ele>
        <time>2011-04-09T08:16:08Z</time>
      </trkpt>
      <trkpt lat="45.53807" lon="4.75538">
        <ele>467</ele>
        <time>2011-04-09T08:16:15Z</time>
      </trkpt>
      <trkpt lat="45.53808" lon="4.75537">
        <ele>468</ele>
        <time>2011-04-09T08:16:16Z</time>
      </trkpt>
      <trkpt lat="45.53809" lon="4.75538">
        <ele>467</ele>
        <time>2011-04-09T08:16:17Z</time>
      </trkpt>
      <trkpt lat="45.53811" lon="4.75539">
        <ele>467</ele>
        <time>2011-04-09T08:16:18Z</time>
      </trkpt>
      <trkpt lat="45.53812" lon="4.7554">
        <ele>468</ele>
        <time>2011-04-09T08:16:19Z</time>
      </trkpt>
      <trkpt lat="45.53825" lon="4.75548">
        <ele>467</ele>
        <time>2011-04-09T08:16:25Z</time>
      </trkpt>
      <trkpt lat="45.53844" lon="4.7556">
        <ele>467</ele>
        <time>2011-04-09T08:16:31Z</time>
      </trkpt>
      <trkpt lat="45.53854" lon="4.75567">
        <ele>467</ele>
        <time>2011-04-09T08:16:33Z</time>
      </trkpt>
      <trkpt lat="45.53893" lon="4.75599">
        <ele>466</ele>
        <time>2011-04-09T08:16:41Z</time>
      </trkpt>
      <trkpt lat="45.53902" lon="4.75609">
        <ele>465</ele>
        <time>2011-04-09T08:16:43Z</time>
      </trkpt>
      <trkpt lat="45.53941" lon="4.75654">
        <ele>465</ele>
        <time>2011-04-09T08:16:52Z</time>
      </trkpt>
      <trkpt lat="45.53972" lon="4.75697">
        <ele>464</ele>
        <time>2011-04-09T08:17:00Z</time>
      </trkpt>
      <trkpt lat="45.53996" lon="4.75744">
        <ele>464</ele>
        <time>2011-04-09T08:17:08Z</time>
      </trkpt>
      <trkpt lat="45.54" lon="4.75748">
        <ele>464</ele>
        <time>2011-04-09T08:17:09Z</time>
      </trkpt>
      <trkpt lat="45.54018" lon="4.75769">
        <ele>464</ele>
        <time>2011-04-09T08:17:15Z</time>
      </trkpt>
      <trkpt lat="45.54037" lon="4.75808">
        <ele>465</ele>
        <time>2011-04-09T08:17:23Z</time>
      </trkpt>
      <trkpt lat="45.54039" lon="4.75813">
        <ele>465</ele>
        <time>2011-04-09T08:17:24Z</time>
      </trkpt>
      <trkpt lat="45.54042" lon="4.75818">
        <ele>465</ele>
        <time>2011-04-09T08:17:25Z</time>
      </trkpt>
      <trkpt lat="45.54044" lon="4.75822">
        <ele>465</ele>
        <time>2011-04-09T08:17:26Z</time>
      </trkpt>
      <trkpt lat="45.54046" lon="4.75827">
        <ele>465</ele>
        <time>2011-04-09T08:17:27Z</time>
      </trkpt>
      <trkpt lat="45.5406" lon="4.75858">
        <ele>468</ele>
        <time>2011-04-09T08:17:35Z</time>
      </trkpt>
      <trkpt lat="45.54072" lon="4.75879">
        <ele>470</ele>
        <time>2011-04-09T08:17:42Z</time>
      </trkpt>
      <trkpt lat="45.54087" lon="4.75894">
        <ele>470</ele>
        <time>2011-04-09T08:17:49Z</time>
      </trkpt>
      <trkpt lat="45.54097" lon="4.75907">
        <ele>469</ele>
        <time>2011-04-09T08:17:55Z</time>
      </trkpt>
      <trkpt lat="45.54097" lon="4.75907">
        <ele>470</ele>
        <time>2011-04-09T08:18:09Z</time>
      </trkpt>
      <trkpt lat="45.54097" lon="4.75907">
        <ele>471</ele>
        <time>2011-04-09T08:18:33Z</time>
      </trkpt>
      <trkpt lat="45.54098" lon="4.75908">
        <ele>470</ele>
        <time>2011-04-09T08:18:53Z</time>
      </trkpt>
      <trkpt lat="45.54111" lon="4.7593">
        <ele>468</ele>
        <time>2011-04-09T08:18:59Z</time>
      </trkpt>
      <trkpt lat="45.54132" lon="4.75961">
        <ele>465</ele>
        <time>2011-04-09T08:19:04Z</time>
      </trkpt>
      <trkpt lat="45.54136" lon="4.75968">
        <ele>465</ele>
        <time>2011-04-09T08:19:05Z</time>
      </trkpt>
      <trkpt lat="45.54141" lon="4.75973">
        <ele>464</ele>
        <time>2011-04-09T08:19:06Z</time>
      </trkpt>
      <trkpt lat="45.54171" lon="4.76005">
        <ele>462</ele>
        <time>2011-04-09T08:19:12Z</time>
      </trkpt>
      <trkpt lat="45.54176" lon="4.76009">
        <ele>461</ele>
        <time>2011-04-09T08:19:13Z</time>
      </trkpt>
      <trkpt lat="45.54188" lon="4.76019">
        <ele>459</ele>
        <time>2011-04-09T08:19:15Z</time>
      </trkpt>
      <trkpt lat="45.54194" lon="4.76024">
        <ele>458</ele>
        <time>2011-04-09T08:19:16Z</time>
      </trkpt>
      <trkpt lat="45.54202" lon="4.76027">
        <ele>458</ele>
        <time>2011-04-09T08:19:17Z</time>
      </trkpt>
      <trkpt lat="45.54208" lon="4.76027">
        <ele>457</ele>
        <time>2011-04-09T08:19:18Z</time>
      </trkpt>
      <trkpt lat="45.54215" lon="4.76026">
        <ele>457</ele>
        <time>2011-04-09T08:19:19Z</time>
      </trkpt>
      <trkpt lat="45.54221" lon="4.76027">
        <ele>456</ele>
        <time>2011-04-09T08:19:20Z</time>
      </trkpt>
      <trkpt lat="45.54226" lon="4.7603">
        <ele>455</ele>
        <time>2011-04-09T08:19:21Z</time>
      </trkpt>
      <trkpt lat="45.54229" lon="4.76036">
        <ele>454</ele>
        <time>2011-04-09T08:19:22Z</time>
      </trkpt>
      <trkpt lat="45.54232" lon="4.76044">
        <ele>454</ele>
        <time>2011-04-09T08:19:23Z</time>
      </trkpt>
      <trkpt lat="45.54235" lon="4.76053">
        <ele>453</ele>
        <time>2011-04-09T08:19:24Z</time>
      </trkpt>
      <trkpt lat="45.54248" lon="4.7608">
        <ele>451</ele>
        <time>2011-04-09T08:19:27Z</time>
      </trkpt>
      <trkpt lat="45.54253" lon="4.76089">
        <ele>450</ele>
        <time>2011-04-09T08:19:28Z</time>
      </trkpt>
      <trkpt lat="45.54262" lon="4.76107">
        <ele>448</ele>
        <time>2011-04-09T08:19:30Z</time>
      </trkpt>
      <trkpt lat="45.54271" lon="4.76122">
        <ele>447</ele>
        <time>2011-04-09T08:19:32Z</time>
      </trkpt>
      <trkpt lat="45.54275" lon="4.76123">
        <ele>447</ele>
        <time>2011-04-09T08:19:33Z</time>
      </trkpt>
      <trkpt lat="45.54278" lon="4.7612">
        <ele>446</ele>
        <time>2011-04-09T08:19:34Z</time>
      </trkpt>
      <trkpt lat="45.54281" lon="4.76115">
        <ele>447</ele>
        <time>2011-04-09T08:19:35Z</time>
      </trkpt>
      <trkpt lat="45.54283" lon="4.76109">
        <ele>446</ele>
        <time>2011-04-09T08:19:36Z</time>
      </trkpt>
      <trkpt lat="45.54289" lon="4.76095">
        <ele>446</ele>
        <time>2011-04-09T08:19:38Z</time>
      </trkpt>
      <trkpt lat="45.54292" lon="4.76089">
        <ele>446</ele>
        <time>2011-04-09T08:19:39Z</time>
      </trkpt>
      <trkpt lat="45.54297" lon="4.76074">
        <ele>445</ele>
        <time>2011-04-09T08:19:41Z</time>
      </trkpt>
      <trkpt lat="45.54299" lon="4.76057">
        <ele>444</ele>
        <time>2011-04-09T08:19:43Z</time>
      </trkpt>
      <trkpt lat="45.543" lon="4.76048">
        <ele>444</ele>
        <time>2011-04-09T08:19:44Z</time>
      </trkpt>
      <trkpt lat="45.543" lon="4.76039">
        <ele>443</ele>
        <time>2011-04-09T08:19:45Z</time>
      </trkpt>
      <trkpt lat="45.54299" lon="4.7603">
        <ele>443</ele>
        <time>2011-04-09T08:19:46Z</time>
      </trkpt>
      <trkpt lat="45.54299" lon="4.7602">
        <ele>443</ele>
        <time>2011-04-09T08:19:47Z</time>
      </trkpt>
      <trkpt lat="45.543" lon="4.7601">
        <ele>441</ele>
        <time>2011-04-09T08:19:48Z</time>
      </trkpt>
      <trkpt lat="45.54299" lon="4.76">
        <ele>440</ele>
        <time>2011-04-09T08:19:49Z</time>
      </trkpt>
      <trkpt lat="45.54298" lon="4.75989">
        <ele>439</ele>
        <time>2011-04-09T08:19:50Z</time>
      </trkpt>
      <trkpt lat="45.54298" lon="4.75978">
        <ele>439</ele>
        <time>2011-04-09T08:19:51Z</time>
      </trkpt>
      <trkpt lat="45.54297" lon="4.75955">
        <ele>436</ele>
        <time>2011-04-09T08:19:53Z</time>
      </trkpt>
      <trkpt lat="45.54297" lon="4.75919">
        <ele>433</ele>
        <time>2011-04-09T08:19:56Z</time>
      </trkpt>
      <trkpt lat="45.54299" lon="4.75894">
        <ele>430</ele>
        <time>2011-04-09T08:19:58Z</time>
      </trkpt>
      <trkpt lat="45.54302" lon="4.75882">
        <ele>429</ele>
        <time>2011-04-09T08:19:59Z</time>
      </trkpt>
      <trkpt lat="45.54305" lon="4.7587">
        <ele>429</ele>
        <time>2011-04-09T08:20:00Z</time>
      </trkpt>
      <trkpt lat="45.54312" lon="4.75847">
        <ele>428</ele>
        <time>2011-04-09T08:20:02Z</time>
      </trkpt>
      <trkpt lat="45.54322" lon="4.75819">
        <ele>425</ele>
        <time>2011-04-09T08:20:05Z</time>
      </trkpt>
      <trkpt lat="45.54326" lon="4.75812">
        <ele>425</ele>
        <time>2011-04-09T08:20:06Z</time>
      </trkpt>
      <trkpt lat="45.54334" lon="4.75796">
        <ele>422</ele>
        <time>2011-04-09T08:20:08Z</time>
      </trkpt>
      <trkpt lat="45.54337" lon="4.7579">
        <ele>421</ele>
        <time>2011-04-09T08:20:09Z</time>
      </trkpt>
      <trkpt lat="45.5434" lon="4.75787">
        <ele>420</ele>
        <time>2011-04-09T08:20:10Z</time>
      </trkpt>
      <trkpt lat="45.54348" lon="4.75783">
        <ele>418</ele>
        <time>2011-04-09T08:20:12Z</time>
      </trkpt>
      <trkpt lat="45.54351" lon="4.75783">
        <ele>417</ele>
        <time>2011-04-09T08:20:13Z</time>
      </trkpt>
      <trkpt lat="45.54356" lon="4.75784">
        <ele>415</ele>
        <time>2011-04-09T08:20:14Z</time>
      </trkpt>
      <trkpt lat="45.54371" lon="4.75789">
        <ele>411</ele>
        <time>2011-04-09T08:20:17Z</time>
      </trkpt>
      <trkpt lat="45.54376" lon="4.75795">
        <ele>411</ele>
        <time>2011-04-09T08:20:18Z</time>
      </trkpt>
      <trkpt lat="45.54378" lon="4.75803">
        <ele>410</ele>
        <time>2011-04-09T08:20:19Z</time>
      </trkpt>
      <trkpt lat="45.54382" lon="4.75819">
        <ele>408</ele>
        <time>2011-04-09T08:20:21Z</time>
      </trkpt>
      <trkpt lat="45.54382" lon="4.75826">
        <ele>407</ele>
        <time>2011-04-09T08:20:22Z</time>
      </trkpt>
      <trkpt lat="45.54383" lon="4.75832">
        <ele>406</ele>
        <time>2011-04-09T08:20:23Z</time>
      </trkpt>
      <trkpt lat="45.54383" lon="4.75836">
        <ele>405</ele>
        <time>2011-04-09T08:20:24Z</time>
      </trkpt>
      <trkpt lat="45.54384" lon="4.75838">
        <ele>405</ele>
        <time>2011-04-09T08:20:25Z</time>
      </trkpt>
      <trkpt lat="45.54385" lon="4.75839">
        <ele>404</ele>
        <time>2011-04-09T08:20:27Z</time>
      </trkpt>
      <trkpt lat="45.54398" lon="4.7583">
        <ele>402</ele>
        <time>2011-04-09T08:20:31Z</time>
      </trkpt>
      <trkpt lat="45.54425" lon="4.75794">
        <ele>399</ele>
        <time>2011-04-09T08:20:37Z</time>
      </trkpt>
      <trkpt lat="45.54429" lon="4.75786">
        <ele>399</ele>
        <time>2011-04-09T08:20:38Z</time>
      </trkpt>
      <trkpt lat="45.54431" lon="4.75778">
        <ele>398</ele>
        <time>2011-04-09T08:20:39Z</time>
      </trkpt>
      <trkpt lat="45.54432" lon="4.7577">
        <ele>397</ele>
        <time>2011-04-09T08:20:40Z</time>
      </trkpt>
      <trkpt lat="45.54432" lon="4.75762">
        <ele>396</ele>
        <time>2011-04-09T08:20:41Z</time>
      </trkpt>
      <trkpt lat="45.5443" lon="4.75753">
        <ele>396</ele>
        <time>2011-04-09T08:20:42Z</time>
      </trkpt>
      <trkpt lat="45.54428" lon="4.75746">
        <ele>396</ele>
        <time>2011-04-09T08:20:43Z</time>
      </trkpt>
      <trkpt lat="45.54424" lon="4.7574">
        <ele>395</ele>
        <time>2011-04-09T08:20:44Z</time>
      </trkpt>
      <trkpt lat="45.54421" lon="4.75736">
        <ele>395</ele>
        <time>2011-04-09T08:20:45Z</time>
      </trkpt>
      <trkpt lat="45.5441" lon="4.7572">
        <ele>395</ele>
        <time>2011-04-09T08:20:50Z</time>
      </trkpt>
      <trkpt lat="45.54398" lon="4.75686">
        <ele>394</ele>
        <time>2011-04-09T08:20:56Z</time>
      </trkpt>
      <trkpt lat="45.54395" lon="4.7568">
        <ele>394</ele>
        <time>2011-04-09T08:20:57Z</time>
      </trkpt>
      <trkpt lat="45.54392" lon="4.75674">
        <ele>393</ele>
        <time>2011-04-09T08:20:58Z</time>
      </trkpt>
      <trkpt lat="45.54388" lon="4.75669">
        <ele>393</ele>
        <time>2011-04-09T08:20:59Z</time>
      </trkpt>
      <trkpt lat="45.5438" lon="4.75661">
        <ele>393</ele>
        <time>2011-04-09T08:21:01Z</time>
      </trkpt>
      <trkpt lat="45.54376" lon="4.75659">
        <ele>392</ele>
        <time>2011-04-09T08:21:02Z</time>
      </trkpt>
      <trkpt lat="45.54371" lon="4.75654">
        <ele>392</ele>
        <time>2011-04-09T08:21:03Z</time>
      </trkpt>
      <trkpt lat="45.54365" lon="4.75649">
        <ele>391</ele>
        <time>2011-04-09T08:21:04Z</time>
      </trkpt>
      <trkpt lat="45.5436" lon="4.75645">
        <ele>391</ele>
        <time>2011-04-09T08:21:05Z</time>
      </trkpt>
      <trkpt lat="45.54356" lon="4.7564">
        <ele>391</ele>
        <time>2011-04-09T08:21:06Z</time>
      </trkpt>
      <trkpt lat="45.54354" lon="4.75634">
        <ele>391</ele>
        <time>2011-04-09T08:21:07Z</time>
      </trkpt>
      <trkpt lat="45.54353" lon="4.75628">
        <ele>390</ele>
        <time>2011-04-09T08:21:08Z</time>
      </trkpt>
      <trkpt lat="45.54354" lon="4.75615">
        <ele>389</ele>
        <time>2011-04-09T08:21:10Z</time>
      </trkpt>
      <trkpt lat="45.54362" lon="4.75582">
        <ele>386</ele>
        <time>2011-04-09T08:21:14Z</time>
      </trkpt>
      <trkpt lat="45.54366" lon="4.75563">
        <ele>384</ele>
        <time>2011-04-09T08:21:16Z</time>
      </trkpt>
      <trkpt lat="45.54367" lon="4.75554">
        <ele>383</ele>
        <time>2011-04-09T08:21:17Z</time>
      </trkpt>
      <trkpt lat="45.54369" lon="4.75545">
        <ele>382</ele>
        <time>2011-04-09T08:21:18Z</time>
      </trkpt>
      <trkpt lat="45.54372" lon="4.75525">
        <ele>380</ele>
        <time>2011-04-09T08:21:20Z</time>
      </trkpt>
      <trkpt lat="45.54371" lon="4.75517">
        <ele>379</ele>
        <time>2011-04-09T08:21:21Z</time>
      </trkpt>
      <trkpt lat="45.54368" lon="4.75508">
        <ele>378</ele>
        <time>2011-04-09T08:21:22Z</time>
      </trkpt>
      <trkpt lat="45.54364" lon="4.75501">
        <ele>377</ele>
        <time>2011-04-09T08:21:23Z</time>
      </trkpt>
      <trkpt lat="45.54358" lon="4.75496">
        <ele>377</ele>
        <time>2011-04-09T08:21:24Z</time>
      </trkpt>
      <trkpt lat="45.54352" lon="4.75491">
        <ele>377</ele>
        <time>2011-04-09T08:21:25Z</time>
      </trkpt>
      <trkpt lat="45.54346" lon="4.75485">
        <ele>376</ele>
        <time>2011-04-09T08:21:26Z</time>
      </trkpt>
      <trkpt lat="45.54339" lon="4.75478">
        <ele>375</ele>
        <time>2011-04-09T08:21:27Z</time>
      </trkpt>
      <trkpt lat="45.54334" lon="4.7547">
        <ele>375</ele>
        <time>2011-04-09T08:21:28Z</time>
      </trkpt>
      <trkpt lat="45.54331" lon="4.75461">
        <ele>374</ele>
        <time>2011-04-09T08:21:29Z</time>
      </trkpt>
      <trkpt lat="45.54329" lon="4.75451">
        <ele>374</ele>
        <time>2011-04-09T08:21:30Z</time>
      </trkpt>
      <trkpt lat="45.54328" lon="4.75443">
        <ele>374</ele>
        <time>2011-04-09T08:21:31Z</time>
      </trkpt>
      <trkpt lat="45.54325" lon="4.75434">
        <ele>374</ele>
        <time>2011-04-09T08:21:32Z</time>
      </trkpt>
      <trkpt lat="45.54322" lon="4.75426">
        <ele>374</ele>
        <time>2011-04-09T08:21:33Z</time>
      </trkpt>
      <trkpt lat="45.54319" lon="4.75418">
        <ele>373</ele>
        <time>2011-04-09T08:21:34Z</time>
      </trkpt>
      <trkpt lat="45.54315" lon="4.7541">
        <ele>372</ele>
        <time>2011-04-09T08:21:35Z</time>
      </trkpt>
      <trkpt lat="45.54305" lon="4.75384">
        <ele>373</ele>
        <time>2011-04-09T08:21:40Z</time>
      </trkpt>
      <trkpt lat="45.54302" lon="4.75363">
        <ele>372</ele>
        <time>2011-04-09T08:21:47Z</time>
      </trkpt>
      <trkpt lat="45.543" lon="4.7536">
        <ele>372</ele>
        <time>2011-04-09T08:21:54Z</time>
      </trkpt>
      <trkpt lat="45.54297" lon="4.7535">
        <ele>371</ele>
        <time>2011-04-09T08:21:59Z</time>
      </trkpt>
      <trkpt lat="45.54297" lon="4.75347">
        <ele>371</ele>
        <time>2011-04-09T08:22:00Z</time>
      </trkpt>
      <trkpt lat="45.54296" lon="4.75344">
        <ele>370</ele>
        <time>2011-04-09T08:22:01Z</time>
      </trkpt>
      <trkpt lat="45.54294" lon="4.75336">
        <ele>370</ele>
        <time>2011-04-09T08:22:03Z</time>
      </trkpt>
      <trkpt lat="45.54292" lon="4.7533">
        <ele>369</ele>
        <time>2011-04-09T08:22:05Z</time>
      </trkpt>
      <trkpt lat="45.5429" lon="4.75306">
        <ele>366</ele>
        <time>2011-04-09T08:22:12Z</time>
      </trkpt>
      <trkpt lat="45.54289" lon="4.75291">
        <ele>364</ele>
        <time>2011-04-09T08:22:17Z</time>
      </trkpt>
      <trkpt lat="45.54289" lon="4.7529">
        <ele>364</ele>
        <time>2011-04-09T08:22:18Z</time>
      </trkpt>
      <trkpt lat="45.54289" lon="4.75282">
        <ele>364</ele>
        <time>2011-04-09T08:22:22Z</time>
      </trkpt>
      <trkpt lat="45.54287" lon="4.75269">
        <ele>363</ele>
        <time>2011-04-09T08:22:30Z</time>
      </trkpt>
      <trkpt lat="45.54285" lon="4.75261">
        <ele>362</ele>
        <time>2011-04-09T08:22:36Z</time>
      </trkpt>
      <trkpt lat="45.54286" lon="4.75251">
        <ele>362</ele>
        <time>2011-04-09T08:22:42Z</time>
      </trkpt>
      <trkpt lat="45.54286" lon="4.75248">
        <ele>362</ele>
        <time>2011-04-09T08:22:43Z</time>
      </trkpt>
      <trkpt lat="45.54285" lon="4.75245">
        <ele>362</ele>
        <time>2011-04-09T08:22:44Z</time>
      </trkpt>
      <trkpt lat="45.54285" lon="4.75242">
        <ele>361</ele>
        <time>2011-04-09T08:22:45Z</time>
      </trkpt>
      <trkpt lat="45.54284" lon="4.7524">
        <ele>361</ele>
        <time>2011-04-09T08:22:46Z</time>
      </trkpt>
      <trkpt lat="45.54284" lon="4.75237">
        <ele>361</ele>
        <time>2011-04-09T08:22:47Z</time>
      </trkpt>
      <trkpt lat="45.54284" lon="4.75234">
        <ele>361</ele>
        <time>2011-04-09T08:22:48Z</time>
      </trkpt>
      <trkpt lat="45.5428" lon="4.752">
        <ele>359</ele>
        <time>2011-04-09T08:22:55Z</time>
      </trkpt>
      <trkpt lat="45.54278" lon="4.75178">
        <ele>359</ele>
        <time>2011-04-09T08:23:02Z</time>
      </trkpt>
      <trkpt lat="45.5429" lon="4.75167">
        <ele>360</ele>
        <time>2011-04-09T08:23:09Z</time>
      </trkpt>
      <trkpt lat="45.5429" lon="4.75167">
        <ele>359</ele>
        <time>2011-04-09T08:23:20Z</time>
      </trkpt>
      <trkpt lat="45.54294" lon="4.75161">
        <ele>361</ele>
        <time>2011-04-09T08:23:27Z</time>
      </trkpt>
      <trkpt lat="45.54297" lon="4.75158">
        <ele>362</ele>
        <time>2011-04-09T08:23:35Z</time>
      </trkpt>
      <trkpt lat="45.54298" lon="4.75158">
        <ele>364</ele>
        <time>2011-04-09T08:23:46Z</time>
      </trkpt>
      <trkpt lat="45.54306" lon="4.75153">
        <ele>365</ele>
        <time>2011-04-09T08:23:56Z</time>
      </trkpt>
      <trkpt lat="45.54315" lon="4.75149">
        <ele>367</ele>
        <time>2011-04-09T08:24:04Z</time>
      </trkpt>
      <trkpt lat="45.5432" lon="4.75146">
        <ele>369</ele>
        <time>2011-04-09T08:24:12Z</time>
      </trkpt>
      <trkpt lat="45.54323" lon="4.75147">
        <ele>369</ele>
        <time>2011-04-09T08:24:25Z</time>
      </trkpt>
      <trkpt lat="45.54334" lon="4.75139">
        <ele>370</ele>
        <time>2011-04-09T08:24:32Z</time>
      </trkpt>
      <trkpt lat="45.54347" lon="4.75125">
        <ele>369</ele>
        <time>2011-04-09T08:24:39Z</time>
      </trkpt>
      <trkpt lat="45.54355" lon="4.75108">
        <ele>370</ele>
        <time>2011-04-09T08:24:46Z</time>
      </trkpt>
      <trkpt lat="45.54364" lon="4.75084">
        <ele>372</ele>
        <time>2011-04-09T08:24:54Z</time>
      </trkpt>
      <trkpt lat="45.5437" lon="4.7507">
        <ele>372</ele>
        <time>2011-04-09T08:25:01Z</time>
      </trkpt>
      <trkpt lat="45.54382" lon="4.75056">
        <ele>372</ele>
        <time>2011-04-09T08:25:09Z</time>
      </trkpt>
      <trkpt lat="45.54388" lon="4.75058">
        <ele>372</ele>
        <time>2011-04-09T08:25:14Z</time>
      </trkpt>
      <trkpt lat="45.54391" lon="4.75083">
        <ele>371</ele>
        <time>2011-04-09T08:25:21Z</time>
      </trkpt>
      <trkpt lat="45.54386" lon="4.75118">
        <ele>370</ele>
        <time>2011-04-09T08:25:29Z</time>
      </trkpt>
      <trkpt lat="45.54393" lon="4.75155">
        <ele>371</ele>
        <time>2011-04-09T08:25:36Z</time>
      </trkpt>
      <trkpt lat="45.54408" lon="4.75183">
        <ele>372</ele>
        <time>2011-04-09T08:25:44Z</time>
      </trkpt>
      <trkpt lat="45.54423" lon="4.75199">
        <ele>373</ele>
        <time>2011-04-09T08:25:51Z</time>
      </trkpt>
      <trkpt lat="45.54436" lon="4.75207">
        <ele>375</ele>
        <time>2011-04-09T08:25:58Z</time>
      </trkpt>
      <trkpt lat="45.5445" lon="4.75216">
        <ele>376</ele>
        <time>2011-04-09T08:26:06Z</time>
      </trkpt>
      <trkpt lat="45.54463" lon="4.75224">
        <ele>377</ele>
        <time>2011-04-09T08:26:14Z</time>
      </trkpt>
      <trkpt lat="45.54477" lon="4.75233">
        <ele>378</ele>
        <time>2011-04-09T08:26:23Z</time>
      </trkpt>
      <trkpt lat="45.54488" lon="4.75236">
        <ele>378</ele>
        <time>2011-04-09T08:26:30Z</time>
      </trkpt>
      <trkpt lat="45.545" lon="4.75239">
        <ele>380</ele>
        <time>2011-04-09T08:26:37Z</time>
      </trkpt>
      <trkpt lat="45.54514" lon="4.7524">
        <ele>381</ele>
        <time>2011-04-09T08:26:46Z</time>
      </trkpt>
      <trkpt lat="45.54524" lon="4.75239">
        <ele>382</ele>
        <time>2011-04-09T08:26:52Z</time>
      </trkpt>
      <trkpt lat="45.5453" lon="4.7524">
        <ele>381</ele>
        <time>2011-04-09T08:26:55Z</time>
      </trkpt>
      <trkpt lat="45.54542" lon="4.7524">
        <ele>382</ele>
        <time>2011-04-09T08:27:02Z</time>
      </trkpt>
      <trkpt lat="45.54552" lon="4.75242">
        <ele>383</ele>
        <time>2011-04-09T08:27:07Z</time>
      </trkpt>
      <trkpt lat="45.54567" lon="4.75245">
        <ele>384</ele>
        <time>2011-04-09T08:27:16Z</time>
      </trkpt>
      <trkpt lat="45.54582" lon="4.75242">
        <ele>384</ele>
        <time>2011-04-09T08:27:23Z</time>
      </trkpt>
      <trkpt lat="45.54595" lon="4.75247">
        <ele>385</ele>
        <time>2011-04-09T08:27:31Z</time>
      </trkpt>
      <trkpt lat="45.54606" lon="4.75261">
        <ele>387</ele>
        <time>2011-04-09T08:27:40Z</time>
      </trkpt>
      <trkpt lat="45.54614" lon="4.75273">
        <ele>387</ele>
        <time>2011-04-09T08:27:48Z</time>
      </trkpt>
      <trkpt lat="45.54623" lon="4.75285">
        <ele>388</ele>
        <time>2011-04-09T08:27:55Z</time>
      </trkpt>
      <trkpt lat="45.54633" lon="4.75299">
        <ele>388</ele>
        <time>2011-04-09T08:28:02Z</time>
      </trkpt>
      <trkpt lat="45.54645" lon="4.75321">
        <ele>389</ele>
        <time>2011-04-09T08:28:12Z</time>
      </trkpt>
      <trkpt lat="45.54654" lon="4.75334">
        <ele>390</ele>
        <time>2011-04-09T08:28:19Z</time>
      </trkpt>
      <trkpt lat="45.54663" lon="4.7535">
        <ele>392</ele>
        <time>2011-04-09T08:28:28Z</time>
      </trkpt>
      <trkpt lat="45.54673" lon="4.75357">
        <ele>394</ele>
        <time>2011-04-09T08:28:35Z</time>
      </trkpt>
      <trkpt lat="45.54682" lon="4.75366">
        <ele>395</ele>
        <time>2011-04-09T08:28:42Z</time>
      </trkpt>
      <trkpt lat="45.54692" lon="4.75373">
        <ele>396</ele>
        <time>2011-04-09T08:28:50Z</time>
      </trkpt>
      <trkpt lat="45.547" lon="4.75378">
        <ele>397</ele>
        <time>2011-04-09T08:28:57Z</time>
      </trkpt>
      <trkpt lat="45.54706" lon="4.75382">
        <ele>399</ele>
        <time>2011-04-09T08:29:03Z</time>
      </trkpt>
      <trkpt lat="45.54712" lon="4.75385">
        <ele>399</ele>
        <time>2011-04-09T08:29:07Z</time>
      </trkpt>
      <trkpt lat="45.54725" lon="4.75394">
        <ele>400</ele>
        <time>2011-04-09T08:29:17Z</time>
      </trkpt>
      <trkpt lat="45.54732" lon="4.75399">
        <ele>400</ele>
        <time>2011-04-09T08:29:22Z</time>
      </trkpt>
      <trkpt lat="45.54749" lon="4.75405">
        <ele>402</ele>
        <time>2011-04-09T08:29:33Z</time>
      </trkpt>
      <trkpt lat="45.54763" lon="4.75407">
        <ele>404</ele>
        <time>2011-04-09T08:29:42Z</time>
      </trkpt>
      <trkpt lat="45.5478" lon="4.75408">
        <ele>405</ele>
        <time>2011-04-09T08:29:52Z</time>
      </trkpt>
      <trkpt lat="45.54795" lon="4.75406">
        <ele>405</ele>
        <time>2011-04-09T08:30:00Z</time>
      </trkpt>
      <trkpt lat="45.54809" lon="4.75404">
        <ele>407</ele>
        <time>2011-04-09T08:30:08Z</time>
      </trkpt>
      <trkpt lat="45.54823" lon="4.75402">
        <ele>409</ele>
        <time>2011-04-09T08:30:16Z</time>
      </trkpt>
      <trkpt lat="45.54837" lon="4.75407">
        <ele>409</ele>
        <time>2011-04-09T08:30:24Z</time>
      </trkpt>
      <trkpt lat="45.54854" lon="4.75414">
        <ele>408</ele>
        <time>2011-04-09T08:30:32Z</time>
      </trkpt>
      <trkpt lat="45.54878" lon="4.75418">
        <ele>408</ele>
        <time>2011-04-09T08:30:40Z</time>
      </trkpt>
      <trkpt lat="45.54905" lon="4.75418">
        <ele>408</ele>
        <time>2011-04-09T08:30:48Z</time>
      </trkpt>
      <trkpt lat="45.54927" lon="4.75413">
        <ele>408</ele>
        <time>2011-04-09T08:30:54Z</time>
      </trkpt>
      <trkpt lat="45.54953" lon="4.75412">
        <ele>409</ele>
        <time>2011-04-09T08:31:01Z</time>
      </trkpt>
      <trkpt lat="45.5499" lon="4.75424">
        <ele>409</ele>
        <time>2011-04-09T08:31:11Z</time>
      </trkpt>
      <trkpt lat="45.55022" lon="4.75434">
        <ele>411</ele>
        <time>2011-04-09T08:31:20Z</time>
      </trkpt>
      <trkpt lat="45.55037" lon="4.75439">
        <ele>412</ele>
        <time>2011-04-09T08:31:26Z</time>
      </trkpt>
      <trkpt lat="45.5505" lon="4.75446">
        <ele>412</ele>
        <time>2011-04-09T08:31:33Z</time>
      </trkpt>
      <trkpt lat="45.55069" lon="4.75445">
        <ele>413</ele>
        <time>2011-04-09T08:31:42Z</time>
      </trkpt>
      <trkpt lat="45.55083" lon="4.75437">
        <ele>413</ele>
        <time>2011-04-09T08:31:50Z</time>
      </trkpt>
      <trkpt lat="45.55101" lon="4.75417">
        <ele>412</ele>
        <time>2011-04-09T08:31:57Z</time>
      </trkpt>
      <trkpt lat="45.55108" lon="4.75408">
        <ele>411</ele>
        <time>2011-04-09T08:31:59Z</time>
      </trkpt>
      <trkpt lat="45.55125" lon="4.75385">
        <ele>409</ele>
        <time>2011-04-09T08:32:04Z</time>
      </trkpt>
      <trkpt lat="45.55144" lon="4.75359">
        <ele>405</ele>
        <time>2011-04-09T08:32:08Z</time>
      </trkpt>
      <trkpt lat="45.55166" lon="4.7533">
        <ele>401</ele>
        <time>2011-04-09T08:32:12Z</time>
      </trkpt>
      <trkpt lat="45.55182" lon="4.75308">
        <ele>397</ele>
        <time>2011-04-09T08:32:15Z</time>
      </trkpt>
      <trkpt lat="45.55199" lon="4.75291">
        <ele>394</ele>
        <time>2011-04-09T08:32:18Z</time>
      </trkpt>
      <trkpt lat="45.55205" lon="4.75286">
        <ele>392</ele>
        <time>2011-04-09T08:32:19Z</time>
      </trkpt>
      <trkpt lat="45.55211" lon="4.75279">
        <ele>391</ele>
        <time>2011-04-09T08:32:20Z</time>
      </trkpt>
      <trkpt lat="45.55216" lon="4.75272">
        <ele>390</ele>
        <time>2011-04-09T08:32:21Z</time>
      </trkpt>
      <trkpt lat="45.55227" lon="4.75256">
        <ele>387</ele>
        <time>2011-04-09T08:32:23Z</time>
      </trkpt>
      <trkpt lat="45.55241" lon="4.75232">
        <ele>383</ele>
        <time>2011-04-09T08:32:26Z</time>
      </trkpt>
      <trkpt lat="45.55254" lon="4.75213">
        <ele>380</ele>
        <time>2011-04-09T08:32:29Z</time>
      </trkpt>
      <trkpt lat="45.55257" lon="4.7521">
        <ele>380</ele>
        <time>2011-04-09T08:32:30Z</time>
      </trkpt>
      <trkpt lat="45.55262" lon="4.75208">
        <ele>379</ele>
        <time>2011-04-09T08:32:31Z</time>
      </trkpt>
      <trkpt lat="45.55267" lon="4.75209">
        <ele>378</ele>
        <time>2011-04-09T08:32:32Z</time>
      </trkpt>
      <trkpt lat="45.55272" lon="4.75212">
        <ele>379</ele>
        <time>2011-04-09T08:32:33Z</time>
      </trkpt>
      <trkpt lat="45.55277" lon="4.75216">
        <ele>378</ele>
        <time>2011-04-09T08:32:34Z</time>
      </trkpt>
      <trkpt lat="45.5528" lon="4.7522">
        <ele>378</ele>
        <time>2011-04-09T08:32:35Z</time>
      </trkpt>
      <trkpt lat="45.55284" lon="4.75225">
        <ele>378</ele>
        <time>2011-04-09T08:32:36Z</time>
      </trkpt>
      <trkpt lat="45.55287" lon="4.75228">
        <ele>377</ele>
        <time>2011-04-09T08:32:37Z</time>
      </trkpt>
      <trkpt lat="45.5529" lon="4.7523">
        <ele>377</ele>
        <time>2011-04-09T08:32:38Z</time>
      </trkpt>
      <trkpt lat="45.55293" lon="4.75229">
        <ele>376</ele>
        <time>2011-04-09T08:32:39Z</time>
      </trkpt>
      <trkpt lat="45.55295" lon="4.75228">
        <ele>376</ele>
        <time>2011-04-09T08:32:40Z</time>
      </trkpt>
      <trkpt lat="45.55298" lon="4.75226">
        <ele>376</ele>
        <time>2011-04-09T08:32:41Z</time>
      </trkpt>
      <trkpt lat="45.55306" lon="4.75216">
        <ele>375</ele>
        <time>2011-04-09T08:32:44Z</time>
      </trkpt>
      <trkpt lat="45.55309" lon="4.75212">
        <ele>375</ele>
        <time>2011-04-09T08:32:48Z</time>
      </trkpt>
      <trkpt lat="45.5531" lon="4.75212">
        <ele>375</ele>
        <time>2011-04-09T08:32:52Z</time>
      </trkpt>
      <trkpt lat="45.55312" lon="4.75212">
        <ele>375</ele>
        <time>2011-04-09T08:32:53Z</time>
      </trkpt>
      <trkpt lat="45.55314" lon="4.75213">
        <ele>375</ele>
        <time>2011-04-09T08:32:54Z</time>
      </trkpt>
      <trkpt lat="45.55321" lon="4.75212">
        <ele>374</ele>
        <time>2011-04-09T08:33:00Z</time>
      </trkpt>
      <trkpt lat="45.55334" lon="4.75206">
        <ele>372</ele>
        <time>2011-04-09T08:33:04Z</time>
      </trkpt>
      <trkpt lat="45.55343" lon="4.75199">
        <ele>371</ele>
        <time>2011-04-09T08:33:06Z</time>
      </trkpt>
      <trkpt lat="45.55354" lon="4.7519">
        <ele>369</ele>
        <time>2011-04-09T08:33:08Z</time>
      </trkpt>
      <trkpt lat="45.55365" lon="4.75178">
        <ele>367</ele>
        <time>2011-04-09T08:33:10Z</time>
      </trkpt>
      <trkpt lat="45.55376" lon="4.75165">
        <ele>366</ele>
        <time>2011-04-09T08:33:12Z</time>
      </trkpt>
      <trkpt lat="45.55381" lon="4.75158">
        <ele>365</ele>
        <time>2011-04-09T08:33:13Z</time>
      </trkpt>
      <trkpt lat="45.55394" lon="4.75135">
        <ele>364</ele>
        <time>2011-04-09T08:33:16Z</time>
      </trkpt>
      <trkpt lat="45.55407" lon="4.751">
        <ele>361</ele>
        <time>2011-04-09T08:33:20Z</time>
      </trkpt>
      <trkpt lat="45.55411" lon="4.75091">
        <ele>360</ele>
        <time>2011-04-09T08:33:21Z</time>
      </trkpt>
      <trkpt lat="45.55416" lon="4.75072">
        <ele>358</ele>
        <time>2011-04-09T08:33:24Z</time>
      </trkpt>
      <trkpt lat="45.55418" lon="4.75067">
        <ele>358</ele>
        <time>2011-04-09T08:33:30Z</time>
      </trkpt>
      <trkpt lat="45.55418" lon="4.75069">
        <ele>357</ele>
        <time>2011-04-09T08:33:40Z</time>
      </trkpt>
      <trkpt lat="45.55418" lon="4.75071">
        <ele>358</ele>
        <time>2011-04-09T08:33:46Z</time>
      </trkpt>
      <trkpt lat="45.55415" lon="4.75088">
        <ele>358</ele>
        <time>2011-04-09T08:33:54Z</time>
      </trkpt>
      <trkpt lat="45.55412" lon="4.75098">
        <ele>358</ele>
        <time>2011-04-09T08:33:57Z</time>
      </trkpt>
      <trkpt lat="45.55421" lon="4.75107">
        <ele>358</ele>
        <time>2011-04-09T08:34:02Z</time>
      </trkpt>
      <trkpt lat="45.55448" lon="4.75119">
        <ele>357</ele>
        <time>2011-04-09T08:34:10Z</time>
      </trkpt>
      <trkpt lat="45.55475" lon="4.75129">
        <ele>355</ele>
        <time>2011-04-09T08:34:16Z</time>
      </trkpt>
      <trkpt lat="45.55493" lon="4.75135">
        <ele>354</ele>
        <time>2011-04-09T08:34:20Z</time>
      </trkpt>
      <trkpt lat="45.55497" lon="4.75137">
        <ele>354</ele>
        <time>2011-04-09T08:34:21Z</time>
      </trkpt>
      <trkpt lat="45.55536" lon="4.75152">
        <ele>353</ele>
        <time>2011-04-09T08:34:32Z</time>
      </trkpt>
      <trkpt lat="45.55544" lon="4.75153">
        <ele>353</ele>
        <time>2011-04-09T08:34:35Z</time>
      </trkpt>
      <trkpt lat="45.55547" lon="4.75151">
        <ele>353</ele>
        <time>2011-04-09T08:34:36Z</time>
      </trkpt>
      <trkpt lat="45.5555" lon="4.75148">
        <ele>352</ele>
        <time>2011-04-09T08:34:37Z</time>
      </trkpt>
      <trkpt lat="45.55552" lon="4.75143">
        <ele>351</ele>
        <time>2011-04-09T08:34:38Z</time>
      </trkpt>
      <trkpt lat="45.55553" lon="4.75138">
        <ele>351</ele>
        <time>2011-04-09T08:34:39Z</time>
      </trkpt>
      <trkpt lat="45.55555" lon="4.75132">
        <ele>350</ele>
        <time>2011-04-09T08:34:40Z</time>
      </trkpt>
      <trkpt lat="45.55557" lon="4.75127">
        <ele>349</ele>
        <time>2011-04-09T08:34:41Z</time>
      </trkpt>
      <trkpt lat="45.55559" lon="4.75123">
        <ele>349</ele>
        <time>2011-04-09T08:34:42Z</time>
      </trkpt>
      <trkpt lat="45.55562" lon="4.7512">
        <ele>348</ele>
        <time>2011-04-09T08:34:43Z</time>
      </trkpt>
      <trkpt lat="45.55594" lon="4.75126">
        <ele>347</ele>
        <time>2011-04-09T08:34:50Z</time>
      </trkpt>
      <trkpt lat="45.5562" lon="4.75139">
        <ele>346</ele>
        <time>2011-04-09T08:34:58Z</time>
      </trkpt>
      <trkpt lat="45.55641" lon="4.7515">
        <ele>346</ele>
        <time>2011-04-09T08:35:05Z</time>
      </trkpt>
      <trkpt lat="45.5565" lon="4.75147">
        <ele>347</ele>
        <time>2011-04-09T08:35:10Z</time>
      </trkpt>
      <trkpt lat="45.55651" lon="4.75145">
        <ele>347</ele>
        <time>2011-04-09T08:35:11Z</time>
      </trkpt>
      <trkpt lat="45.55652" lon="4.75142">
        <ele>347</ele>
        <time>2011-04-09T08:35:17Z</time>
      </trkpt>
      <trkpt lat="45.55652" lon="4.75143">
        <ele>347</ele>
        <time>2011-04-09T08:35:23Z</time>
      </trkpt>
      <trkpt lat="45.55652" lon="4.75147">
        <ele>347</ele>
        <time>2011-04-09T08:35:25Z</time>
      </trkpt>
      <trkpt lat="45.55661" lon="4.7514">
        <ele>344</ele>
        <time>2011-04-09T08:35:32Z</time>
      </trkpt>
      <trkpt lat="45.55663" lon="4.75127">
        <ele>343</ele>
        <time>2011-04-09T08:35:37Z</time>
      </trkpt>
      <trkpt lat="45.55676" lon="4.75127">
        <ele>342</ele>
        <time>2011-04-09T08:35:42Z</time>
      </trkpt>
      <trkpt lat="45.55706" lon="4.75136">
        <ele>341</ele>
        <time>2011-04-09T08:35:50Z</time>
      </trkpt>
      <trkpt lat="45.55738" lon="4.75151">
        <ele>340</ele>
        <time>2011-04-09T08:35:58Z</time>
      </trkpt>
      <trkpt lat="45.55763" lon="4.75159">
        <ele>340</ele>
        <time>2011-04-09T08:36:05Z</time>
      </trkpt>
      <trkpt lat="45.55774" lon="4.75156">
        <ele>339</ele>
        <time>2011-04-09T08:36:08Z</time>
      </trkpt>
      <trkpt lat="45.55779" lon="4.75154">
        <ele>339</ele>
        <time>2011-04-09T08:36:09Z</time>
      </trkpt>
      <trkpt lat="45.55811" lon="4.75123">
        <ele>336</ele>
        <time>2011-04-09T08:36:16Z</time>
      </trkpt>
      <trkpt lat="45.5584" lon="4.75112">
        <ele>335</ele>
        <time>2011-04-09T08:36:23Z</time>
      </trkpt>
      <trkpt lat="45.55839" lon="4.75113">
        <ele>335</ele>
        <time>2011-04-09T08:36:30Z</time>
      </trkpt>
      <trkpt lat="45.55846" lon="4.75116">
        <ele>335</ele>
        <time>2011-04-09T08:36:36Z</time>
      </trkpt>
      <trkpt lat="45.55856" lon="4.75132">
        <ele>335</ele>
        <time>2011-04-09T08:36:41Z</time>
      </trkpt>
      <trkpt lat="45.55873" lon="4.75175">
        <ele>335</ele>
        <time>2011-04-09T08:36:49Z</time>
      </trkpt>
      <trkpt lat="45.5589" lon="4.75226">
        <ele>335</ele>
        <time>2011-04-09T08:36:59Z</time>
      </trkpt>
      <trkpt lat="45.55907" lon="4.7528">
        <ele>338</ele>
        <time>2011-04-09T08:37:10Z</time>
      </trkpt>
      <trkpt lat="45.5591" lon="4.75329">
        <ele>339</ele>
        <time>2011-04-09T08:37:19Z</time>
      </trkpt>
      <trkpt lat="45.5591" lon="4.75373">
        <ele>338</ele>
        <time>2011-04-09T08:37:26Z</time>
      </trkpt>
      <trkpt lat="45.55911" lon="4.75379">
        <ele>338</ele>
        <time>2011-04-09T08:37:27Z</time>
      </trkpt>
      <trkpt lat="45.55914" lon="4.75391">
        <ele>338</ele>
        <time>2011-04-09T08:37:29Z</time>
      </trkpt>
      <trkpt lat="45.55928" lon="4.75435">
        <ele>339</ele>
        <time>2011-04-09T08:37:37Z</time>
      </trkpt>
      <trkpt lat="45.55946" lon="4.7549">
        <ele>341</ele>
        <time>2011-04-09T08:37:49Z</time>
      </trkpt>
      <trkpt lat="45.55957" lon="4.75524">
        <ele>343</ele>
        <time>2011-04-09T08:37:57Z</time>
      </trkpt>
      <trkpt lat="45.55971" lon="4.75569">
        <ele>344</ele>
        <time>2011-04-09T08:38:08Z</time>
      </trkpt>
      <trkpt lat="45.55975" lon="4.75601">
        <ele>344</ele>
        <time>2011-04-09T08:38:16Z</time>
      </trkpt>
      <trkpt lat="45.55973" lon="4.75629">
        <ele>345</ele>
        <time>2011-04-09T08:38:24Z</time>
      </trkpt>
      <trkpt lat="45.55975" lon="4.75663">
        <ele>343</ele>
        <time>2011-04-09T08:38:31Z</time>
      </trkpt>
      <trkpt lat="45.55975" lon="4.75669">
        <ele>344</ele>
        <time>2011-04-09T08:38:32Z</time>
      </trkpt>
      <trkpt lat="45.55982" lon="4.75694">
        <ele>342</ele>
        <time>2011-04-09T08:38:38Z</time>
      </trkpt>
      <trkpt lat="45.55984" lon="4.75694">
        <ele>342</ele>
        <time>2011-04-09T08:38:44Z</time>
      </trkpt>
      <trkpt lat="45.55984" lon="4.75694">
        <ele>342</ele>
        <time>2011-04-09T08:38:59Z</time>
      </trkpt>
      <trkpt lat="45.55984" lon="4.75694">
        <ele>342</ele>
        <time>2011-04-09T08:39:14Z</time>
      </trkpt>
      <trkpt lat="45.55983" lon="4.75694">
        <ele>342</ele>
        <time>2011-04-09T08:39:36Z</time>
      </trkpt>
      <trkpt lat="45.55983" lon="4.75694">
        <ele>343</ele>
        <time>2011-04-09T08:39:54Z</time>
      </trkpt>
      <trkpt lat="45.55983" lon="4.75694">
        <ele>342</ele>
        <time>2011-04-09T08:40:10Z</time>
      </trkpt>
      <trkpt lat="45.55985" lon="4.75695">
        <ele>342</ele>
        <time>2011-04-09T08:40:13Z</time>
      </trkpt>
      <trkpt lat="45.55986" lon="4.75696">
        <ele>342</ele>
        <time>2011-04-09T08:40:14Z</time>
      </trkpt>
      <trkpt lat="45.55988" lon="4.75697">
        <ele>342</ele>
        <time>2011-04-09T08:40:15Z</time>
      </trkpt>
      <trkpt lat="45.5599" lon="4.75699">
        <ele>342</ele>
        <time>2011-04-09T08:40:16Z</time>
      </trkpt>
      <trkpt lat="45.55992" lon="4.757">
        <ele>342</ele>
        <time>2011-04-09T08:40:17Z</time>
      </trkpt>
      <trkpt lat="45.55995" lon="4.75701">
        <ele>342</ele>
        <time>2011-04-09T08:40:18Z</time>
      </trkpt>
      <trkpt lat="45.55998" lon="4.75703">
        <ele>342</ele>
        <time>2011-04-09T08:40:19Z</time>
      </trkpt>
      <trkpt lat="45.56" lon="4.75704">
        <ele>341</ele>
        <time>2011-04-09T08:40:20Z</time>
      </trkpt>
      <trkpt lat="45.56003" lon="4.75705">
        <ele>342</ele>
        <time>2011-04-09T08:40:21Z</time>
      </trkpt>
      <trkpt lat="45.56026" lon="4.75716">
        <ele>341</ele>
        <time>2011-04-09T08:40:29Z</time>
      </trkpt>
      <trkpt lat="45.56051" lon="4.7573">
        <ele>341</ele>
        <time>2011-04-09T08:40:37Z</time>
      </trkpt>
      <trkpt lat="45.56086" lon="4.75749">
        <ele>340</ele>
        <time>2011-04-09T08:40:47Z</time>
      </trkpt>
      <trkpt lat="45.5611" lon="4.7576">
        <ele>340</ele>
        <time>2011-04-09T08:40:54Z</time>
      </trkpt>
      <trkpt lat="45.56138" lon="4.75763">
        <ele>339</ele>
        <time>2011-04-09T08:41:01Z</time>
      </trkpt>
      <trkpt lat="45.56142" lon="4.75765">
        <ele>339</ele>
        <time>2011-04-09T08:41:02Z</time>
      </trkpt>
      <trkpt lat="45.56146" lon="4.75767">
        <ele>338</ele>
        <time>2011-04-09T08:41:03Z</time>
      </trkpt>
      <trkpt lat="45.5617" lon="4.75783">
        <ele>337</ele>
        <time>2011-04-09T08:41:08Z</time>
      </trkpt>
      <trkpt lat="45.56176" lon="4.75787">
        <ele>337</ele>
        <time>2011-04-09T08:41:09Z</time>
      </trkpt>
      <trkpt lat="45.56181" lon="4.75791">
        <ele>337</ele>
        <time>2011-04-09T08:41:10Z</time>
      </trkpt>
      <trkpt lat="45.56186" lon="4.75794">
        <ele>337</ele>
        <time>2011-04-09T08:41:11Z</time>
      </trkpt>
      <trkpt lat="45.56192" lon="4.75797">
        <ele>336</ele>
        <time>2011-04-09T08:41:12Z</time>
      </trkpt>
      <trkpt lat="45.56234" lon="4.75823">
        <ele>334</ele>
        <time>2011-04-09T08:41:20Z</time>
      </trkpt>
      <trkpt lat="45.56244" lon="4.7583">
        <ele>335</ele>
        <time>2011-04-09T08:41:22Z</time>
      </trkpt>
      <trkpt lat="45.56248" lon="4.75834">
        <ele>334</ele>
        <time>2011-04-09T08:41:23Z</time>
      </trkpt>
      <trkpt lat="45.56277" lon="4.75861">
        <ele>332</ele>
        <time>2011-04-09T08:41:29Z</time>
      </trkpt>
      <trkpt lat="45.563" lon="4.75881">
        <ele>330</ele>
        <time>2011-04-09T08:41:36Z</time>
      </trkpt>
      <trkpt lat="45.56325" lon="4.75903">
        <ele>330</ele>
        <time>2011-04-09T08:41:43Z</time>
      </trkpt>
      <trkpt lat="45.56335" lon="4.75911">
        <ele>329</ele>
        <time>2011-04-09T08:41:46Z</time>
      </trkpt>
      <trkpt lat="45.56353" lon="4.75929">
        <ele>329</ele>
        <time>2011-04-09T08:41:52Z</time>
      </trkpt>
      <trkpt lat="45.5636" lon="4.75935">
        <ele>329</ele>
        <time>2011-04-09T08:41:58Z</time>
      </trkpt>
      <trkpt lat="45.56373" lon="4.75949">
        <ele>328</ele>
        <time>2011-04-09T08:42:06Z</time>
      </trkpt>
      <trkpt lat="45.56392" lon="4.75966">
        <ele>325</ele>
        <time>2011-04-09T08:42:12Z</time>
      </trkpt>
      <trkpt lat="45.56397" lon="4.75971">
        <ele>324</ele>
        <time>2011-04-09T08:42:13Z</time>
      </trkpt>
      <trkpt lat="45.56401" lon="4.75977">
        <ele>324</ele>
        <time>2011-04-09T08:42:14Z</time>
      </trkpt>
      <trkpt lat="45.5641" lon="4.75992">
        <ele>321</ele>
        <time>2011-04-09T08:42:18Z</time>
      </trkpt>
      <trkpt lat="45.56412" lon="4.75994">
        <ele>321</ele>
        <time>2011-04-09T08:42:23Z</time>
      </trkpt>
      <trkpt lat="45.56413" lon="4.75996">
        <ele>321</ele>
        <time>2011-04-09T08:42:31Z</time>
      </trkpt>
      <trkpt lat="45.56413" lon="4.75997">
        <ele>320</ele>
        <time>2011-04-09T08:42:37Z</time>
      </trkpt>
      <trkpt lat="45.56416" lon="4.75999">
        <ele>320</ele>
        <time>2011-04-09T08:42:45Z</time>
      </trkpt>
      <trkpt lat="45.56428" lon="4.76008">
        <ele>319</ele>
        <time>2011-04-09T08:42:51Z</time>
      </trkpt>
      <trkpt lat="45.56445" lon="4.76021">
        <ele>317</ele>
        <time>2011-04-09T08:42:57Z</time>
      </trkpt>
      <trkpt lat="45.56448" lon="4.76023">
        <ele>316</ele>
        <time>2011-04-09T08:42:58Z</time>
      </trkpt>
      <trkpt lat="45.56466" lon="4.76035">
        <ele>314</ele>
        <time>2011-04-09T08:43:03Z</time>
      </trkpt>
      <trkpt lat="45.56481" lon="4.76042">
        <ele>310</ele>
        <time>2011-04-09T08:43:07Z</time>
      </trkpt>
      <trkpt lat="45.56485" lon="4.76043">
        <ele>310</ele>
        <time>2011-04-09T08:43:08Z</time>
      </trkpt>
      <trkpt lat="45.56488" lon="4.76044">
        <ele>309</ele>
        <time>2011-04-09T08:43:09Z</time>
      </trkpt>
      <trkpt lat="45.56496" lon="4.76046">
        <ele>309</ele>
        <time>2011-04-09T08:43:11Z</time>
      </trkpt>
      <trkpt lat="45.56518" lon="4.76053">
        <ele>304</ele>
        <time>2011-04-09T08:43:16Z</time>
      </trkpt>
      <trkpt lat="45.56533" lon="4.76058">
        <ele>301</ele>
        <time>2011-04-09T08:43:19Z</time>
      </trkpt>
      <trkpt lat="45.56539" lon="4.76061">
        <ele>301</ele>
        <time>2011-04-09T08:43:20Z</time>
      </trkpt>
      <trkpt lat="45.56554" lon="4.76069">
        <ele>298</ele>
        <time>2011-04-09T08:43:22Z</time>
      </trkpt>
      <trkpt lat="45.56574" lon="4.76077">
        <ele>295</ele>
        <time>2011-04-09T08:43:25Z</time>
      </trkpt>
      <trkpt lat="45.56585" lon="4.76079">
        <ele>294</ele>
        <time>2011-04-09T08:43:28Z</time>
      </trkpt>
      <trkpt lat="45.56601" lon="4.76084">
        <ele>290</ele>
        <time>2011-04-09T08:43:33Z</time>
      </trkpt>
      <trkpt lat="45.56609" lon="4.76089">
        <ele>288</ele>
        <time>2011-04-09T08:43:36Z</time>
      </trkpt>
      <trkpt lat="45.56622" lon="4.76097">
        <ele>288</ele>
        <time>2011-04-09T08:43:41Z</time>
      </trkpt>
      <trkpt lat="45.56635" lon="4.76098">
        <ele>289</ele>
        <time>2011-04-09T08:43:48Z</time>
      </trkpt>
      <trkpt lat="45.56644" lon="4.76097">
        <ele>290</ele>
        <time>2011-04-09T08:43:54Z</time>
      </trkpt>
      <trkpt lat="45.56654" lon="4.76098">
        <ele>291</ele>
        <time>2011-04-09T08:44:02Z</time>
      </trkpt>
      <trkpt lat="45.56662" lon="4.76098">
        <ele>292</ele>
        <time>2011-04-09T08:44:08Z</time>
      </trkpt>
      <trkpt lat="45.56664" lon="4.76101">
        <ele>294</ele>
        <time>2011-04-09T08:44:16Z</time>
      </trkpt>
      <trkpt lat="45.56667" lon="4.76102">
        <ele>295</ele>
        <time>2011-04-09T08:44:24Z</time>
      </trkpt>
      <trkpt lat="45.56671" lon="4.76103">
        <ele>296</ele>
        <time>2011-04-09T08:44:31Z</time>
      </trkpt>
      <trkpt lat="45.56675" lon="4.76103">
        <ele>296</ele>
        <time>2011-04-09T08:44:38Z</time>
      </trkpt>
      <trkpt lat="45.56679" lon="4.76103">
        <ele>297</ele>
        <time>2011-04-09T08:44:47Z</time>
      </trkpt>
      <trkpt lat="45.56679" lon="4.76103">
        <ele>297</ele>
        <time>2011-04-09T08:44:59Z</time>
      </trkpt>
      <trkpt lat="45.56687" lon="4.76105">
        <ele>299</ele>
        <time>2011-04-09T08:45:06Z</time>
      </trkpt>
      <trkpt lat="45.56691" lon="4.76107">
        <ele>300</ele>
        <time>2011-04-09T08:45:09Z</time>
      </trkpt>
      <trkpt lat="45.56693" lon="4.76108">
        <ele>300</ele>
        <time>2011-04-09T08:45:10Z</time>
      </trkpt>
      <trkpt lat="45.56704" lon="4.76112">
        <ele>302</ele>
        <time>2011-04-09T08:45:18Z</time>
      </trkpt>
      <trkpt lat="45.56707" lon="4.76115">
        <ele>302</ele>
        <time>2011-04-09T08:45:21Z</time>
      </trkpt>
      <trkpt lat="45.56713" lon="4.76115">
        <ele>304</ele>
        <time>2011-04-09T08:45:25Z</time>
      </trkpt>
      <trkpt lat="45.56724" lon="4.7612">
        <ele>306</ele>
        <time>2011-04-09T08:45:32Z</time>
      </trkpt>
      <trkpt lat="45.56725" lon="4.76121">
        <ele>305</ele>
        <time>2011-04-09T08:45:33Z</time>
      </trkpt>
      <trkpt lat="45.56732" lon="4.76123">
        <ele>308</ele>
        <time>2011-04-09T08:45:40Z</time>
      </trkpt>
      <trkpt lat="45.56732" lon="4.76123">
        <ele>307</ele>
        <time>2011-04-09T08:45:57Z</time>
      </trkpt>
      <trkpt lat="45.5673" lon="4.76124">
        <ele>307</ele>
        <time>2011-04-09T08:46:03Z</time>
      </trkpt>
      <trkpt lat="45.56728" lon="4.76124">
        <ele>306</ele>
        <time>2011-04-09T08:46:11Z</time>
      </trkpt>
      <trkpt lat="45.56727" lon="4.76122">
        <ele>306</ele>
        <time>2011-04-09T08:46:12Z</time>
      </trkpt>
      <trkpt lat="45.56725" lon="4.76122">
        <ele>306</ele>
        <time>2011-04-09T08:46:13Z</time>
      </trkpt>
      <trkpt lat="45.56724" lon="4.76121">
        <ele>305</ele>
        <time>2011-04-09T08:46:14Z</time>
      </trkpt>
      <trkpt lat="45.56722" lon="4.7612">
        <ele>305</ele>
        <time>2011-04-09T08:46:15Z</time>
      </trkpt>
      <trkpt lat="45.5672" lon="4.76119">
        <ele>305</ele>
        <time>2011-04-09T08:46:16Z</time>
      </trkpt>
      <trkpt lat="45.56718" lon="4.76119">
        <ele>305</ele>
        <time>2011-04-09T08:46:17Z</time>
      </trkpt>
      <trkpt lat="45.56708" lon="4.76116">
        <ele>302</ele>
        <time>2011-04-09T08:46:23Z</time>
      </trkpt>
      <trkpt lat="45.56707" lon="4.76114">
        <ele>302</ele>
        <time>2011-04-09T08:46:24Z</time>
      </trkpt>
      <trkpt lat="45.56707" lon="4.76107">
        <ele>301</ele>
        <time>2011-04-09T08:46:29Z</time>
      </trkpt>
      <trkpt lat="45.56712" lon="4.76106">
        <ele>299</ele>
        <time>2011-04-09T08:46:33Z</time>
      </trkpt>
      <trkpt lat="45.56718" lon="4.76101">
        <ele>298</ele>
        <time>2011-04-09T08:46:36Z</time>
      </trkpt>
      <trkpt lat="45.5672" lon="4.76099">
        <ele>297</ele>
        <time>2011-04-09T08:46:37Z</time>
      </trkpt>
      <trkpt lat="45.56731" lon="4.76077">
        <ele>295</ele>
        <time>2011-04-09T08:46:44Z</time>
      </trkpt>
      <trkpt lat="45.56735" lon="4.7607">
        <ele>294</ele>
        <time>2011-04-09T08:46:46Z</time>
      </trkpt>
      <trkpt lat="45.56749" lon="4.76044">
        <ele>291</ele>
        <time>2011-04-09T08:46:51Z</time>
      </trkpt>
      <trkpt lat="45.56768" lon="4.7602">
        <ele>287</ele>
        <time>2011-04-09T08:46:56Z</time>
      </trkpt>
      <trkpt lat="45.56775" lon="4.7601">
        <ele>285</ele>
        <time>2011-04-09T08:46:58Z</time>
      </trkpt>
      <trkpt lat="45.56786" lon="4.75992">
        <ele>283</ele>
        <time>2011-04-09T08:47:01Z</time>
      </trkpt>
      <trkpt lat="45.56795" lon="4.75976">
        <ele>281</ele>
        <time>2011-04-09T08:47:04Z</time>
      </trkpt>
      <trkpt lat="45.56806" lon="4.75956">
        <ele>278</ele>
        <time>2011-04-09T08:47:09Z</time>
      </trkpt>
      <trkpt lat="45.56822" lon="4.75929">
        <ele>275</ele>
        <time>2011-04-09T08:47:14Z</time>
      </trkpt>
      <trkpt lat="45.5683" lon="4.75913">
        <ele>273</ele>
        <time>2011-04-09T08:47:17Z</time>
      </trkpt>
      <trkpt lat="45.56836" lon="4.75905">
        <ele>272</ele>
        <time>2011-04-09T08:47:19Z</time>
      </trkpt>
      <trkpt lat="45.5684" lon="4.75898">
        <ele>270</ele>
        <time>2011-04-09T08:47:21Z</time>
      </trkpt>
      <trkpt lat="45.56848" lon="4.75888">
        <ele>267</ele>
        <time>2011-04-09T08:47:27Z</time>
      </trkpt>
      <trkpt lat="45.5685" lon="4.75887">
        <ele>267</ele>
        <time>2011-04-09T08:47:36Z</time>
      </trkpt>
      <trkpt lat="45.5685" lon="4.75887">
        <ele>266</ele>
        <time>2011-04-09T08:47:48Z</time>
      </trkpt>
      <trkpt lat="45.56853" lon="4.75888">
        <ele>266</ele>
        <time>2011-04-09T08:47:56Z</time>
      </trkpt>
      <trkpt lat="45.56853" lon="4.75888">
        <ele>266</ele>
        <time>2011-04-09T08:48:05Z</time>
      </trkpt>
      <trkpt lat="45.56849" lon="4.75885">
        <ele>265</ele>
        <time>2011-04-09T08:48:10Z</time>
      </trkpt>
      <trkpt lat="45.56847" lon="4.75884">
        <ele>266</ele>
        <time>2011-04-09T08:48:11Z</time>
      </trkpt>
      <trkpt lat="45.56846" lon="4.75884">
        <ele>265</ele>
        <time>2011-04-09T08:48:12Z</time>
      </trkpt>
      <trkpt lat="45.56844" lon="4.75883">
        <ele>264</ele>
        <time>2011-04-09T08:48:13Z</time>
      </trkpt>
      <trkpt lat="45.56841" lon="4.75883">
        <ele>265</ele>
        <time>2011-04-09T08:48:14Z</time>
      </trkpt>
      <trkpt lat="45.5684" lon="4.75882">
        <ele>264</ele>
        <time>2011-04-09T08:48:15Z</time>
      </trkpt>
      <trkpt lat="45.56838" lon="4.75881">
        <ele>264</ele>
        <time>2011-04-09T08:48:17Z</time>
      </trkpt>
      <trkpt lat="45.56838" lon="4.75881">
        <ele>264</ele>
        <time>2011-04-09T08:48:26Z</time>
      </trkpt>
      <trkpt lat="45.56838" lon="4.75881">
        <ele>263</ele>
        <time>2011-04-09T08:48:37Z</time>
      </trkpt>
      <trkpt lat="45.56836" lon="4.7588">
        <ele>263</ele>
        <time>2011-04-09T08:48:46Z</time>
      </trkpt>
      <trkpt lat="45.56837" lon="4.75878">
        <ele>264</ele>
        <time>2011-04-09T08:48:55Z</time>
      </trkpt>
      <trkpt lat="45.56837" lon="4.75878">
        <ele>263</ele>
        <time>2011-04-09T08:49:03Z</time>
      </trkpt>
      <trkpt lat="45.56838" lon="4.75877">
        <ele>264</ele>
        <time>2011-04-09T08:49:05Z</time>
      </trkpt>
      <trkpt lat="45.56851" lon="4.75871">
        <ele>263</ele>
        <time>2011-04-09T08:49:12Z</time>
      </trkpt>
      <trkpt lat="45.5687" lon="4.75869">
        <ele>263</ele>
        <time>2011-04-09T08:49:20Z</time>
      </trkpt>
      <trkpt lat="45.56893" lon="4.75865">
        <ele>263</ele>
        <time>2011-04-09T08:49:27Z</time>
      </trkpt>
      <trkpt lat="45.56912" lon="4.75853">
        <ele>263</ele>
        <time>2011-04-09T08:49:35Z</time>
      </trkpt>
      <trkpt lat="45.56925" lon="4.75839">
        <ele>263</ele>
        <time>2011-04-09T08:49:42Z</time>
      </trkpt>
      <trkpt lat="45.56928" lon="4.75834">
        <ele>263</ele>
        <time>2011-04-09T08:49:50Z</time>
      </trkpt>
      <trkpt lat="45.56931" lon="4.75834">
        <ele>263</ele>
        <time>2011-04-09T08:49:57Z</time>
      </trkpt>
      <trkpt lat="45.56944" lon="4.75836">
        <ele>260</ele>
        <time>2011-04-09T08:50:05Z</time>
      </trkpt>
      <trkpt lat="45.56956" lon="4.75847">
        <ele>256</ele>
        <time>2011-04-09T08:50:10Z</time>
      </trkpt>
      <trkpt lat="45.56958" lon="4.75849">
        <ele>256</ele>
        <time>2011-04-09T08:50:11Z</time>
      </trkpt>
      <trkpt lat="45.56974" lon="4.75848">
        <ele>255</ele>
        <time>2011-04-09T08:50:17Z</time>
      </trkpt>
      <trkpt lat="45.56975" lon="4.75848">
        <ele>253</ele>
        <time>2011-04-09T08:50:25Z</time>
      </trkpt>
      <trkpt lat="45.56975" lon="4.75848">
        <ele>253</ele>
        <time>2011-04-09T08:50:27Z</time>
      </trkpt>
      <trkpt lat="45.56982" lon="4.75852">
        <ele>254</ele>
        <time>2011-04-09T08:50:29Z</time>
      </trkpt>
      <trkpt lat="45.56988" lon="4.75853">
        <ele>254</ele>
        <time>2011-04-09T08:50:30Z</time>
      </trkpt>
      <trkpt lat="45.57016" lon="4.7585">
        <ele>256</ele>
        <time>2011-04-09T08:50:38Z</time>
      </trkpt>
      <trkpt lat="45.5704" lon="4.75853">
        <ele>256</ele>
        <time>2011-04-09T08:50:46Z</time>
      </trkpt>
      <trkpt lat="45.5706" lon="4.75855">
        <ele>256</ele>
        <time>2011-04-09T08:50:54Z</time>
      </trkpt>
      <trkpt lat="45.5708" lon="4.75863">
        <ele>258</ele>
        <time>2011-04-09T08:51:01Z</time>
      </trkpt>
      <trkpt lat="45.57094" lon="4.75865">
        <ele>260</ele>
        <time>2011-04-09T08:51:08Z</time>
      </trkpt>
      <trkpt lat="45.57111" lon="4.75864">
        <ele>259</ele>
        <time>2011-04-09T08:51:15Z</time>
      </trkpt>
      <trkpt lat="45.5713" lon="4.75862">
        <ele>255</ele>
        <time>2011-04-09T08:51:20Z</time>
      </trkpt>
      <trkpt lat="45.57136" lon="4.75858">
        <ele>254</ele>
        <time>2011-04-09T08:51:24Z</time>
      </trkpt>
      <trkpt lat="45.57136" lon="4.75858">
        <ele>255</ele>
        <time>2011-04-09T08:51:35Z</time>
      </trkpt>
      <trkpt lat="45.57136" lon="4.75858">
        <ele>255</ele>
        <time>2011-04-09T08:51:47Z</time>
      </trkpt>
      <trkpt lat="45.57136" lon="4.75857">
        <ele>255</ele>
        <time>2011-04-09T08:51:56Z</time>
      </trkpt>
      <trkpt lat="45.57136" lon="4.75857">
        <ele>254</ele>
        <time>2011-04-09T08:52:08Z</time>
      </trkpt>
      <trkpt lat="45.57136" lon="4.75857">
        <ele>254</ele>
        <time>2011-04-09T08:52:17Z</time>
      </trkpt>
      <trkpt lat="45.57137" lon="4.75857">
        <ele>253</ele>
        <time>2011-04-09T08:52:28Z</time>
      </trkpt>
      <trkpt lat="45.57139" lon="4.75855">
        <ele>252</ele>
        <time>2011-04-09T08:52:36Z</time>
      </trkpt>
      <trkpt lat="45.57139" lon="4.75855">
        <ele>252</ele>
        <time>2011-04-09T08:52:45Z</time>
      </trkpt>
      <trkpt lat="45.57141" lon="4.75855">
        <ele>252</ele>
        <time>2011-04-09T08:52:53Z</time>
      </trkpt>
      <trkpt lat="45.57152" lon="4.75856">
        <ele>250</ele>
        <time>2011-04-09T08:53:01Z</time>
      </trkpt>
      <trkpt lat="45.57162" lon="4.7586">
        <ele>246</ele>
        <time>2011-04-09T08:53:06Z</time>
      </trkpt>
      <trkpt lat="45.57167" lon="4.75861">
        <ele>244</ele>
        <time>2011-04-09T08:53:09Z</time>
      </trkpt>
      <trkpt lat="45.57177" lon="4.75863">
        <ele>241</ele>
        <time>2011-04-09T08:53:14Z</time>
      </trkpt>
      <trkpt lat="45.57192" lon="4.75854">
        <ele>239</ele>
        <time>2011-04-09T08:53:23Z</time>
      </trkpt>
      <trkpt lat="45.57193" lon="4.75854">
        <ele>239</ele>
        <time>2011-04-09T08:53:31Z</time>
      </trkpt>
      <trkpt lat="45.57193" lon="4.75854">
        <ele>239</ele>
        <time>2011-04-09T08:53:43Z</time>
      </trkpt>
      <trkpt lat="45.57193" lon="4.75854">
        <ele>240</ele>
        <time>2011-04-09T08:53:51Z</time>
      </trkpt>
      <trkpt lat="45.57193" lon="4.75854">
        <ele>240</ele>
        <time>2011-04-09T08:53:53Z</time>
      </trkpt>
      <trkpt lat="45.57196" lon="4.75852">
        <ele>239</ele>
        <time>2011-04-09T08:54:02Z</time>
      </trkpt>
      <trkpt lat="45.57197" lon="4.75852">
        <ele>239</ele>
        <time>2011-04-09T08:54:10Z</time>
      </trkpt>
      <trkpt lat="45.57197" lon="4.75852">
        <ele>239</ele>
        <time>2011-04-09T08:54:21Z</time>
      </trkpt>
      <trkpt lat="45.57198" lon="4.75852">
        <ele>239</ele>
        <time>2011-04-09T08:54:31Z</time>
      </trkpt>
      <trkpt lat="45.57201" lon="4.75852">
        <ele>238</ele>
        <time>2011-04-09T08:54:36Z</time>
      </trkpt>
      <trkpt lat="45.5721" lon="4.75858">
        <ele>236</ele>
        <time>2011-04-09T08:54:43Z</time>
      </trkpt>
      <trkpt lat="45.57217" lon="4.75857">
        <ele>237</ele>
        <time>2011-04-09T08:54:54Z</time>
      </trkpt>
      <trkpt lat="45.5722" lon="4.75856">
        <ele>236</ele>
        <time>2011-04-09T08:55:02Z</time>
      </trkpt>
      <trkpt lat="45.57239" lon="4.75861">
        <ele>236</ele>
        <time>2011-04-09T08:55:12Z</time>
      </trkpt>
      <trkpt lat="45.57259" lon="4.75852">
        <ele>236</ele>
        <time>2011-04-09T08:55:19Z</time>
      </trkpt>
      <trkpt lat="45.57286" lon="4.75842">
        <ele>233</ele>
        <time>2011-04-09T08:55:27Z</time>
      </trkpt>
      <trkpt lat="45.57298" lon="4.75842">
        <ele>232</ele>
        <time>2011-04-09T08:55:30Z</time>
      </trkpt>
      <trkpt lat="45.57339" lon="4.7584">
        <ele>229</ele>
        <time>2011-04-09T08:55:38Z</time>
      </trkpt>
      <trkpt lat="45.57381" lon="4.75813">
        <ele>228</ele>
        <time>2011-04-09T08:55:45Z</time>
      </trkpt>
      <trkpt lat="45.57422" lon="4.75797">
        <ele>226</ele>
        <time>2011-04-09T08:55:52Z</time>
      </trkpt>
      <trkpt lat="45.57456" lon="4.75777">
        <ele>226</ele>
        <time>2011-04-09T08:55:57Z</time>
      </trkpt>
      <trkpt lat="45.57459" lon="4.75773">
        <ele>226</ele>
        <time>2011-04-09T08:55:58Z</time>
      </trkpt>
      <trkpt lat="45.57459" lon="4.75769">
        <ele>226</ele>
        <time>2011-04-09T08:55:59Z</time>
      </trkpt>
      <trkpt lat="45.57459" lon="4.75766">
        <ele>225</ele>
        <time>2011-04-09T08:56:00Z</time>
      </trkpt>
      <trkpt lat="45.57457" lon="4.75762">
        <ele>225</ele>
        <time>2011-04-09T08:56:01Z</time>
      </trkpt>
      <trkpt lat="45.57455" lon="4.75757">
        <ele>224</ele>
        <time>2011-04-09T08:56:02Z</time>
      </trkpt>
      <trkpt lat="45.57451" lon="4.75752">
        <ele>224</ele>
        <time>2011-04-09T08:56:03Z</time>
      </trkpt>
      <trkpt lat="45.57428" lon="4.75728">
        <ele>222</ele>
        <time>2011-04-09T08:56:09Z</time>
      </trkpt>
      <trkpt lat="45.57416" lon="4.75718">
        <ele>220</ele>
        <time>2011-04-09T08:56:12Z</time>
      </trkpt>
      <trkpt lat="45.57416" lon="4.75714">
        <ele>220</ele>
        <time>2011-04-09T08:56:14Z</time>
      </trkpt>
      <trkpt lat="45.57432" lon="4.75718">
        <ele>220</ele>
        <time>2011-04-09T08:56:20Z</time>
      </trkpt>
      <trkpt lat="45.57466" lon="4.7573">
        <ele>216</ele>
        <time>2011-04-09T08:56:28Z</time>
      </trkpt>
      <trkpt lat="45.57488" lon="4.75738">
        <ele>213</ele>
        <time>2011-04-09T08:56:33Z</time>
      </trkpt>
      <trkpt lat="45.57499" lon="4.7574">
        <ele>212</ele>
        <time>2011-04-09T08:56:35Z</time>
      </trkpt>
      <trkpt lat="45.57505" lon="4.75742">
        <ele>211</ele>
        <time>2011-04-09T08:56:36Z</time>
      </trkpt>
      <trkpt lat="45.57511" lon="4.75744">
        <ele>211</ele>
        <time>2011-04-09T08:56:37Z</time>
      </trkpt>
      <trkpt lat="45.57517" lon="4.75746">
        <ele>210</ele>
        <time>2011-04-09T08:56:38Z</time>
      </trkpt>
      <trkpt lat="45.57522" lon="4.7575">
        <ele>209</ele>
        <time>2011-04-09T08:56:39Z</time>
      </trkpt>
      <trkpt lat="45.57527" lon="4.75753">
        <ele>208</ele>
        <time>2011-04-09T08:56:40Z</time>
      </trkpt>
      <trkpt lat="45.57531" lon="4.75757">
        <ele>207</ele>
        <time>2011-04-09T08:56:41Z</time>
      </trkpt>
      <trkpt lat="45.57535" lon="4.75759">
        <ele>206</ele>
        <time>2011-04-09T08:56:42Z</time>
      </trkpt>
      <trkpt lat="45.5754" lon="4.75761">
        <ele>206</ele>
        <time>2011-04-09T08:56:43Z</time>
      </trkpt>
      <trkpt lat="45.57555" lon="4.75768">
        <ele>203</ele>
        <time>2011-04-09T08:56:46Z</time>
      </trkpt>
      <trkpt lat="45.57566" lon="4.75769">
        <ele>202</ele>
        <time>2011-04-09T08:56:48Z</time>
      </trkpt>
      <trkpt lat="45.57571" lon="4.75768">
        <ele>201</ele>
        <time>2011-04-09T08:56:49Z</time>
      </trkpt>
      <trkpt lat="45.57576" lon="4.75765">
        <ele>200</ele>
        <time>2011-04-09T08:56:50Z</time>
      </trkpt>
      <trkpt lat="45.57581" lon="4.75762">
        <ele>200</ele>
        <time>2011-04-09T08:56:51Z</time>
      </trkpt>
      <trkpt lat="45.57587" lon="4.7576">
        <ele>200</ele>
        <time>2011-04-09T08:56:52Z</time>
      </trkpt>
      <trkpt lat="45.57594" lon="4.75761">
        <ele>200</ele>
        <time>2011-04-09T08:56:53Z</time>
      </trkpt>
      <trkpt lat="45.57601" lon="4.75764">
        <ele>199</ele>
        <time>2011-04-09T08:56:54Z</time>
      </trkpt>
      <trkpt lat="45.57629" lon="4.75777">
        <ele>197</ele>
        <time>2011-04-09T08:56:58Z</time>
      </trkpt>
      <trkpt lat="45.57636" lon="4.75777">
        <ele>196</ele>
        <time>2011-04-09T08:56:59Z</time>
      </trkpt>
      <trkpt lat="45.57644" lon="4.75775">
        <ele>196</ele>
        <time>2011-04-09T08:57:00Z</time>
      </trkpt>
      <trkpt lat="45.57671" lon="4.75765">
        <ele>196</ele>
        <time>2011-04-09T08:57:04Z</time>
      </trkpt>
      <trkpt lat="45.57676" lon="4.75763">
        <ele>195</ele>
        <time>2011-04-09T08:57:05Z</time>
      </trkpt>
      <trkpt lat="45.57688" lon="4.75764">
        <ele>195</ele>
        <time>2011-04-09T08:57:07Z</time>
      </trkpt>
      <trkpt lat="45.57699" lon="4.75764">
        <ele>194</ele>
        <time>2011-04-09T08:57:09Z</time>
      </trkpt>
      <trkpt lat="45.57716" lon="4.75764">
        <ele>192</ele>
        <time>2011-04-09T08:57:12Z</time>
      </trkpt>
      <trkpt lat="45.57721" lon="4.75761">
        <ele>192</ele>
        <time>2011-04-09T08:57:13Z</time>
      </trkpt>
      <trkpt lat="45.57727" lon="4.75758">
        <ele>191</ele>
        <time>2011-04-09T08:57:14Z</time>
      </trkpt>
      <trkpt lat="45.5774" lon="4.75746">
        <ele>189</ele>
        <time>2011-04-09T08:57:17Z</time>
      </trkpt>
      <trkpt lat="45.57745" lon="4.75742">
        <ele>188</ele>
        <time>2011-04-09T08:57:18Z</time>
      </trkpt>
      <trkpt lat="45.57751" lon="4.75736">
        <ele>187</ele>
        <time>2011-04-09T08:57:20Z</time>
      </trkpt>
      <trkpt lat="45.57753" lon="4.75732">
        <ele>187</ele>
        <time>2011-04-09T08:57:21Z</time>
      </trkpt>
      <trkpt lat="45.57754" lon="4.75729">
        <ele>187</ele>
        <time>2011-04-09T08:57:22Z</time>
      </trkpt>
      <trkpt lat="45.57755" lon="4.75725">
        <ele>186</ele>
        <time>2011-04-09T08:57:23Z</time>
      </trkpt>
      <trkpt lat="45.57757" lon="4.7572">
        <ele>185</ele>
        <time>2011-04-09T08:57:24Z</time>
      </trkpt>
      <trkpt lat="45.5776" lon="4.75714">
        <ele>185</ele>
        <time>2011-04-09T08:57:26Z</time>
      </trkpt>
      <trkpt lat="45.57763" lon="4.7571">
        <ele>183</ele>
        <time>2011-04-09T08:57:28Z</time>
      </trkpt>
      <trkpt lat="45.57771" lon="4.75708">
        <ele>181</ele>
        <time>2011-04-09T08:57:32Z</time>
      </trkpt>
      <trkpt lat="45.57773" lon="4.75705">
        <ele>180</ele>
        <time>2011-04-09T08:57:38Z</time>
      </trkpt>
      <trkpt lat="45.5778" lon="4.75706">
        <ele>182</ele>
        <time>2011-04-09T08:57:46Z</time>
      </trkpt>
      <trkpt lat="45.57785" lon="4.75705">
        <ele>183</ele>
        <time>2011-04-09T08:57:53Z</time>
      </trkpt>
      <trkpt lat="45.57786" lon="4.75705">
        <ele>183</ele>
        <time>2011-04-09T08:57:58Z</time>
      </trkpt>
      <trkpt lat="45.57789" lon="4.75704">
        <ele>183</ele>
        <time>2011-04-09T08:57:59Z</time>
      </trkpt>
      <trkpt lat="45.57804" lon="4.75701">
        <ele>182</ele>
        <time>2011-04-09T08:58:04Z</time>
      </trkpt>
      <trkpt lat="45.57815" lon="4.75704">
        <ele>181</ele>
        <time>2011-04-09T08:58:07Z</time>
      </trkpt>
      <trkpt lat="45.57823" lon="4.75702">
        <ele>179</ele>
        <time>2011-04-09T08:58:09Z</time>
      </trkpt>
      <trkpt lat="45.57842" lon="4.75703">
        <ele>179</ele>
        <time>2011-04-09T08:58:15Z</time>
      </trkpt>
      <trkpt lat="45.5785" lon="4.75704">
        <ele>179</ele>
        <time>2011-04-09T08:58:17Z</time>
      </trkpt>
      <trkpt lat="45.5787" lon="4.75699">
        <ele>179</ele>
        <time>2011-04-09T08:58:22Z</time>
      </trkpt>
      <trkpt lat="45.57885" lon="4.75688">
        <ele>178</ele>
        <time>2011-04-09T08:58:26Z</time>
      </trkpt>
      <trkpt lat="45.57917" lon="4.75655">
        <ele>177</ele>
        <time>2011-04-09T08:58:34Z</time>
      </trkpt>
      <trkpt lat="45.57941" lon="4.75638">
        <ele>176</ele>
        <time>2011-04-09T08:58:41Z</time>
      </trkpt>
      <trkpt lat="45.57943" lon="4.75642">
        <ele>176</ele>
        <time>2011-04-09T08:58:43Z</time>
      </trkpt>
      <trkpt lat="45.57942" lon="4.75646">
        <ele>177</ele>
        <time>2011-04-09T08:58:44Z</time>
      </trkpt>
      <trkpt lat="45.57943" lon="4.75649">
        <ele>176</ele>
        <time>2011-04-09T08:58:45Z</time>
      </trkpt>
      <trkpt lat="45.57943" lon="4.75651">
        <ele>177</ele>
        <time>2011-04-09T08:58:46Z</time>
      </trkpt>
      <trkpt lat="45.57945" lon="4.75653">
        <ele>176</ele>
        <time>2011-04-09T08:58:47Z</time>
      </trkpt>
      <trkpt lat="45.57946" lon="4.75653">
        <ele>176</ele>
        <time>2011-04-09T08:58:48Z</time>
      </trkpt>
      <trkpt lat="45.57946" lon="4.75653">
        <ele>176</ele>
        <time>2011-04-09T08:58:49Z</time>
      </trkpt>
      <trkpt lat="45.57945" lon="4.7565">
        <ele>176</ele>
        <time>2011-04-09T08:58:57Z</time>
      </trkpt>
      <trkpt lat="45.57943" lon="4.75647">
        <ele>176</ele>
        <time>2011-04-09T08:59:00Z</time>
      </trkpt>
      <trkpt lat="45.57941" lon="4.75645">
        <ele>176</ele>
        <time>2011-04-09T08:59:01Z</time>
      </trkpt>
      <trkpt lat="45.5794" lon="4.75641">
        <ele>176</ele>
        <time>2011-04-09T08:59:09Z</time>
      </trkpt>
      <trkpt lat="45.5794" lon="4.75641">
        <ele>176</ele>
        <time>2011-04-09T08:59:29Z</time>
      </trkpt>
      <trkpt lat="45.57941" lon="4.75642">
        <ele>176</ele>
        <time>2011-04-09T08:59:48Z</time>
      </trkpt>
      <trkpt lat="45.57941" lon="4.75642">
        <ele>176</ele>
        <time>2011-04-09T09:00:14Z</time>
      </trkpt>
      <trkpt lat="45.5794" lon="4.75643">
        <ele>176</ele>
        <time>2011-04-09T09:00:25Z</time>
      </trkpt>
      <trkpt lat="45.5794" lon="4.75643">
        <ele>176</ele>
        <time>2011-04-09T09:00:34Z</time>
      </trkpt>
      <trkpt lat="45.5794" lon="4.75643">
        <ele>177</ele>
        <time>2011-04-09T09:00:45Z</time>
      </trkpt>
      <trkpt lat="45.57941" lon="4.75645">
        <ele>176</ele>
        <time>2011-04-09T09:00:55Z</time>
      </trkpt>
      <trkpt lat="45.57941" lon="4.75647">
        <ele>176</ele>
        <time>2011-04-09T09:00:56Z</time>
      </trkpt>
      <trkpt lat="45.57942" lon="4.75649">
        <ele>177</ele>
        <time>2011-04-09T09:00:57Z</time>
      </trkpt>
      <trkpt lat="45.57943" lon="4.7565">
        <ele>177</ele>
        <time>2011-04-09T09:00:58Z</time>
      </trkpt>
      <trkpt lat="45.57943" lon="4.75651">
        <ele>176</ele>
        <time>2011-04-09T09:00:59Z</time>
      </trkpt>
      <trkpt lat="45.57945" lon="4.75652">
        <ele>177</ele>
        <time>2011-04-09T09:01:00Z</time>
      </trkpt>
      <trkpt lat="45.57946" lon="4.75652">
        <ele>177</ele>
        <time>2011-04-09T09:01:01Z</time>
      </trkpt>
      <trkpt lat="45.57948" lon="4.75651">
        <ele>176</ele>
        <time>2011-04-09T09:01:02Z</time>
      </trkpt>
      <trkpt lat="45.57951" lon="4.7565">
        <ele>176</ele>
        <time>2011-04-09T09:01:03Z</time>
      </trkpt>
      <trkpt lat="45.57978" lon="4.7564">
        <ele>176</ele>
        <time>2011-04-09T09:01:11Z</time>
      </trkpt>
      <trkpt lat="45.5799" lon="4.75635">
        <ele>175</ele>
        <time>2011-04-09T09:01:14Z</time>
      </trkpt>
      <trkpt lat="45.57993" lon="4.75634">
        <ele>174</ele>
        <time>2011-04-09T09:01:15Z</time>
      </trkpt>
      <trkpt lat="45.58011" lon="4.7563">
        <ele>174</ele>
        <time>2011-04-09T09:01:19Z</time>
      </trkpt>
      <trkpt lat="45.58015" lon="4.75629">
        <ele>174</ele>
        <time>2011-04-09T09:01:20Z</time>
      </trkpt>
      <trkpt lat="45.58051" lon="4.75634">
        <ele>173</ele>
        <time>2011-04-09T09:01:27Z</time>
      </trkpt>
      <trkpt lat="45.58094" lon="4.75649">
        <ele>172</ele>
        <time>2011-04-09T09:01:34Z</time>
      </trkpt>
      <trkpt lat="45.58109" lon="4.75651">
        <ele>172</ele>
        <time>2011-04-09T09:01:36Z</time>
      </trkpt>
      <trkpt lat="45.58117" lon="4.7565">
        <ele>172</ele>
        <time>2011-04-09T09:01:37Z</time>
      </trkpt>
      <trkpt lat="45.58124" lon="4.75649">
        <ele>172</ele>
        <time>2011-04-09T09:01:38Z</time>
      </trkpt>
      <trkpt lat="45.5816" lon="4.75634">
        <ele>172</ele>
        <time>2011-04-09T09:01:43Z</time>
      </trkpt>
      <trkpt lat="45.58166" lon="4.75629">
        <ele>172</ele>
        <time>2011-04-09T09:01:44Z</time>
      </trkpt>
      <trkpt lat="45.58172" lon="4.75623">
        <ele>172</ele>
        <time>2011-04-09T09:01:45Z</time>
      </trkpt>
      <trkpt lat="45.58176" lon="4.75617">
        <ele>172</ele>
        <time>2011-04-09T09:01:46Z</time>
      </trkpt>
      <trkpt lat="45.58181" lon="4.7561">
        <ele>172</ele>
        <time>2011-04-09T09:01:47Z</time>
      </trkpt>
      <trkpt lat="45.58186" lon="4.75604">
        <ele>172</ele>
        <time>2011-04-09T09:01:48Z</time>
      </trkpt>
      <trkpt lat="45.58191" lon="4.75599">
        <ele>171</ele>
        <time>2011-04-09T09:01:49Z</time>
      </trkpt>
      <trkpt lat="45.58197" lon="4.75595">
        <ele>172</ele>
        <time>2011-04-09T09:01:50Z</time>
      </trkpt>
      <trkpt lat="45.58231" lon="4.75578">
        <ele>174</ele>
        <time>2011-04-09T09:01:56Z</time>
      </trkpt>
      <trkpt lat="45.58249" lon="4.7557">
        <ele>174</ele>
        <time>2011-04-09T09:01:59Z</time>
      </trkpt>
      <trkpt lat="45.58257" lon="4.7557">
        <ele>173</ele>
        <time>2011-04-09T09:02:00Z</time>
      </trkpt>
      <trkpt lat="45.58264" lon="4.75572">
        <ele>173</ele>
        <time>2011-04-09T09:02:01Z</time>
      </trkpt>
      <trkpt lat="45.58272" lon="4.75574">
        <ele>172</ele>
        <time>2011-04-09T09:02:02Z</time>
      </trkpt>
      <trkpt lat="45.58279" lon="4.75572">
        <ele>171</ele>
        <time>2011-04-09T09:02:03Z</time>
      </trkpt>
      <trkpt lat="45.58287" lon="4.75568">
        <ele>170</ele>
        <time>2011-04-09T09:02:04Z</time>
      </trkpt>
      <trkpt lat="45.58294" lon="4.75562">
        <ele>169</ele>
        <time>2011-04-09T09:02:05Z</time>
      </trkpt>
      <trkpt lat="45.58302" lon="4.75554">
        <ele>168</ele>
        <time>2011-04-09T09:02:06Z</time>
      </trkpt>
      <trkpt lat="45.58309" lon="4.75546">
        <ele>168</ele>
        <time>2011-04-09T09:02:07Z</time>
      </trkpt>
      <trkpt lat="45.58327" lon="4.75521">
        <ele>166</ele>
        <time>2011-04-09T09:02:10Z</time>
      </trkpt>
      <trkpt lat="45.58338" lon="4.755">
        <ele>165</ele>
        <time>2011-04-09T09:02:13Z</time>
      </trkpt>
      <trkpt lat="45.58341" lon="4.75496">
        <ele>165</ele>
        <time>2011-04-09T09:02:14Z</time>
      </trkpt>
      <trkpt lat="45.58344" lon="4.75495">
        <ele>165</ele>
        <time>2011-04-09T09:02:15Z</time>
      </trkpt>
      <trkpt lat="45.58347" lon="4.75496">
        <ele>165</ele>
        <time>2011-04-09T09:02:16Z</time>
      </trkpt>
      <trkpt lat="45.58349" lon="4.75498">
        <ele>165</ele>
        <time>2011-04-09T09:02:17Z</time>
      </trkpt>
      <trkpt lat="45.5835" lon="4.75499">
        <ele>166</ele>
        <time>2011-04-09T09:02:18Z</time>
      </trkpt>
      <trkpt lat="45.58352" lon="4.75501">
        <ele>165</ele>
        <time>2011-04-09T09:02:25Z</time>
      </trkpt>
      <trkpt lat="45.58352" lon="4.75501">
        <ele>161</ele>
        <time>2011-04-09T09:02:35Z</time>
      </trkpt>
      <trkpt lat="45.58352" lon="4.75501">
        <ele>164</ele>
        <time>2011-04-09T09:02:36Z</time>
      </trkpt>
      <trkpt lat="45.58352" lon="4.75501">
        <ele>164</ele>
        <time>2011-04-09T09:02:37Z</time>
      </trkpt>
    </trkseg>
  </trk>
</gpx>